Date StartTime U_cm/s V_cm/s W_cm/s Ustd_cm/s Vstd_cm/s Wstd_cm/s Uvar_(cm/s)^2 Vvar_(cm/s)^2 Wvar_(cm/s)^2 KE_(m/s)^2 TurbulentKE_(m/s)^2 HorizWindSpeed_cm/s FrictionSpeec_cm/s DragCoef SpeedOfSound_m/s SonicTemperature_C Pressure_mb 
03/20/2014  00:00:00       57.817       25.381       18.747       28.690       21.772       22.172      823.107      474.029      491.594        0.306        0.089       63.143       15.208        0.058      337.266        9.124      862.567
03/20/2014  00:01:00       13.386       12.491       23.661       17.277       12.186       13.571      298.502      148.492      184.160        0.076        0.032       18.309        6.607        0.130      337.337        9.243      862.581
03/20/2014  00:02:00       -9.973      -12.412        6.640        8.779       13.306       12.335       77.069      177.048      152.156        0.035        0.020       15.922       11.022        0.479      337.525        9.555      862.593
03/20/2014  00:03:00      -20.684      -16.392        0.946       12.533        7.974        7.782      157.086       63.584       60.565        0.049        0.014       26.392        6.146        0.054      337.513        9.536      862.601
03/20/2014  00:04:00      -31.137      -23.926        0.103       16.138        8.432        8.500      260.421       71.092       72.249        0.097        0.020       39.268        6.695        0.029      337.437        9.411      862.601
03/20/2014  00:05:00      -29.794      -19.731        0.329       16.395       11.984       11.210      268.808      143.620      125.667        0.091        0.027       35.735       10.683        0.089      337.517        9.544      862.597
03/20/2014  00:06:00        9.756       10.506        3.456       32.323       15.197       13.054     1044.762      230.952      170.420        0.083        0.072       14.337       17.058        1.416      337.630        9.732      862.581
03/20/2014  00:07:00      -54.540        3.431        0.840       14.658       15.957       11.789      214.857      254.612      138.991        0.180        0.030       54.648        8.456        0.024      337.654        9.773      862.581
03/20/2014  00:08:00      -51.016      -28.191       -1.847       20.477       17.468       10.298      419.317      305.138      106.055        0.212        0.042       58.287       10.300        0.031      337.270        9.131      862.588
03/20/2014  00:09:00      -62.231      -64.391       -4.469       20.018       33.521       12.042      400.702     1123.635      145.006        0.485        0.083       89.548       11.249        0.016      337.438        9.412      862.588
03/20/2014  00:10:00      -79.567      -92.199       -0.498       27.859       44.431       20.611      776.121     1974.132      424.827        0.900        0.159      121.785       16.967        0.019      337.657        9.777      862.587
03/20/2014  00:11:00      -85.131     -101.262       -1.243       50.739       46.133       26.100     2574.463     2128.241      681.220        1.144        0.269      132.293       29.194        0.049      337.578        9.647      862.579
03/20/2014  00:12:00      -78.855     -114.670       -0.761       38.865       44.775       26.050     1510.520     2004.780      678.592        1.178        0.210      139.167       18.470        0.018      337.606        9.693      862.587
03/20/2014  00:13:00      -62.271      -71.866        6.326       32.287       41.464       19.129     1042.429     1719.294      365.915        0.610        0.156       95.092       20.011        0.044      337.582        9.652      862.572
03/20/2014  00:14:00     -103.609      -95.830       -6.194       22.838       30.778       14.765      521.569      947.290      218.017        1.082        0.084      141.132        7.757        0.003      337.621        9.718      862.558
03/20/2014  00:15:00      -81.297      -74.920       -3.053       33.342       31.584       17.843     1111.681      997.519      318.363        0.733        0.121      110.554       18.782        0.029      337.532        9.570      862.555
03/20/2014  00:16:00      -91.282     -100.237        3.659       40.910       48.132       29.401     1673.605     2316.694      864.445        1.162        0.243      135.573       30.465        0.050      337.502        9.518      862.558
03/20/2014  00:17:00     -117.917     -116.336       -7.273       40.031       56.688       29.388     1602.499     3213.556      863.671        1.658        0.284      165.646       24.863        0.023      337.489        9.497      862.569
03/20/2014  00:18:00     -105.984     -114.730       -7.698       68.128       50.537       25.048     4641.490     2554.003      627.423        1.614        0.391      156.191       26.030        0.028      337.525        9.557      862.570
03/20/2014  00:19:00      -96.007      -95.541       -8.791       53.597       68.379       31.854     2872.625     4675.632     1014.691        1.349        0.428      135.445       27.032        0.040      337.482        9.485      862.555
03/20/2014  00:20:00      -64.243      -71.789        9.465       55.815       30.330       31.898     3115.365      919.891     1017.470        0.721        0.253       96.337       31.737        0.109      337.507        9.528      862.546
03/20/2014  00:21:00     -102.326     -106.029       -4.028       64.470       50.874       28.662     4156.376     2588.198      821.524        1.465        0.378      147.353       24.535        0.028      337.468        9.462      862.551
03/20/2014  00:22:00      -86.056      -90.448        1.732       55.999       36.536       24.571     3135.943     1334.847      603.723        1.033        0.254      124.845       17.822        0.020      337.454        9.439      862.546
03/20/2014  00:23:00     -105.210      -80.050       -5.453       47.396       51.126       29.713     2246.384     2613.849      882.841        1.162        0.287      132.201       18.478        0.020      337.394        9.337      862.537
03/20/2014  00:24:00     -148.113     -130.663       -5.028       78.072       58.596       37.986     6095.188     3433.463     1442.938        2.500        0.549      197.510       41.827        0.045      337.335        9.237      862.530
03/20/2014  00:25:00     -111.657     -107.354        8.872       82.342       62.989       39.409     6780.178     3967.594     1553.102        1.818        0.615      154.894       44.406        0.082      337.338        9.244      862.529
03/20/2014  00:26:00     -103.220     -111.816       -9.178       60.047       54.553       29.152     3605.632     2976.003      849.865        1.533        0.372      152.175       27.966        0.034      337.335        9.237      862.522
03/20/2014  00:27:00     -101.430      -99.996       -3.994       56.636       43.124       30.971     3207.653     1859.722      959.212        1.316        0.301      142.433       32.068        0.051      337.305        9.189      862.515
03/20/2014  00:28:00      -53.756      -47.915        6.785       41.136       37.826       22.375     1692.149     1430.827      500.652        0.443        0.181       72.010       16.984        0.056      337.256        9.108      862.515
03/20/2014  00:29:00      -97.192      -10.585       -4.700       39.807       31.719       18.029     1584.596     1006.103      325.050        0.625        0.146       97.767       16.075        0.027      336.903        8.516      862.521
03/20/2014  00:30:00     -124.761       -3.355       -9.236       38.920       40.592       21.408     1514.737     1647.742      458.306        0.964        0.181      124.806       20.076        0.026      336.704        8.186      862.524
03/20/2014  00:31:00     -117.376      -19.135       -1.666       35.303       33.188       23.173     1246.290     1101.439      536.973        0.851        0.144      118.925       19.511        0.027      336.544        7.918      862.533
03/20/2014  00:32:00     -107.217      -32.049       -1.890       48.340       33.296       22.039     2336.771     1108.642      485.730        0.823        0.197      111.905       25.552        0.052      336.586        7.988      862.535
03/20/2014  00:33:00     -105.903      -13.153        3.201       52.426       28.185       26.577     2748.528      794.382      706.351        0.782        0.212      106.716       28.702        0.072      336.429        7.724      862.547
03/20/2014  00:34:00     -106.448      -29.447       -6.069       35.035       28.440       18.625     1227.433      808.817      346.882        0.731        0.119      110.446       18.744        0.029      336.529        7.893      862.542
03/20/2014  00:35:00      -86.163      -13.522       -1.217       36.808       27.643       20.325     1354.854      764.143      413.089        0.507        0.127       87.217       18.795        0.046      336.430        7.727      862.520
03/20/2014  00:36:00     -132.780       -3.522      -12.751       26.371       22.891       19.123      695.434      524.012      365.693        0.970        0.079      132.827       15.592        0.014      336.593        7.997      862.507
03/20/2014  00:37:00     -108.963      -15.958       -3.846       38.695       24.755       18.932     1497.325      612.833      358.420        0.730        0.123      110.125       19.647        0.032      336.731        8.229      862.490
03/20/2014  00:38:00      -96.355      -24.779      -10.904       27.181       26.242       15.575      738.783      688.637      242.591        0.584        0.084       99.490       13.103        0.017      336.636        8.072      862.470
03/20/2014  00:39:00      -88.327      -31.774       -2.158       24.030       21.388       15.762      577.433      457.427      248.431        0.505        0.064       93.869       13.032        0.019      336.658        8.108      862.459
03/20/2014  00:40:00      -84.043      -29.793        2.912       35.600       29.893       16.925     1267.330      893.592      286.470        0.520        0.122       89.167       14.910        0.028      336.709        8.194      862.460
03/20/2014  00:41:00     -103.754      -17.284       -3.017       31.278       19.525       14.795      978.296      381.221      218.888        0.633        0.079      105.184       10.668        0.010      336.584        7.985      862.456
03/20/2014  00:42:00      -91.298      -26.267       -1.417       40.586       17.256       18.322     1647.259      297.784      335.709        0.565        0.114       95.001       21.712        0.052      336.713        8.200      862.451
03/20/2014  00:43:00      -98.465      -38.846       -3.580       17.924       16.659       12.606      321.261      277.508      158.904        0.599        0.038      105.850       10.349        0.010      336.675        8.138      862.447
03/20/2014  00:44:00      -68.106      -44.727        5.418       26.619       23.582       14.540      708.595      556.117      211.400        0.407        0.074       81.480       15.443        0.036      336.498        7.841      862.444
03/20/2014  00:45:00      -90.025      -30.623       -3.960       18.439       18.290       16.810      340.008      334.538      282.583        0.501        0.048       95.091       13.163        0.019      336.429        7.726      862.441
03/20/2014  00:46:00     -101.567      -40.565       -3.143       15.336       16.985       11.606      235.192      288.474      134.698        0.631        0.033      109.368        8.897        0.007      336.430        7.727      862.431
03/20/2014  00:47:00     -102.983      -33.292       -2.668       18.641       22.144       12.670      347.482      490.340      160.521        0.636        0.050      108.230        8.039        0.006      336.462        7.781      862.417
03/20/2014  00:48:00      -83.469      -57.816        1.289       29.099       22.176       17.628      846.749      491.786      310.763        0.598        0.082      101.537       17.000        0.028      336.475        7.801      862.409
03/20/2014  00:49:00      -89.182      -62.713       -1.247       23.986       19.692       16.491      575.308      387.768      271.939        0.656        0.062      109.024       13.076        0.014      336.606        8.021      862.409
03/20/2014  00:50:00      -93.017      -58.841        1.380       26.276       20.987       14.745      690.432      440.459      217.409        0.673        0.067      110.066       12.862        0.014      336.486        7.819      862.405
03/20/2014  00:51:00      -90.915      -98.623       -6.598       29.901       37.954       16.100      894.057     1440.478      259.208        1.031        0.130      134.135       15.491        0.013      336.661        8.114      862.396
03/20/2014  00:52:00     -102.153     -110.412       -8.445       38.981       42.082       20.411     1519.539     1770.868      416.617        1.320        0.185      150.420       11.164        0.006      336.800        8.344      862.385
03/20/2014  00:53:00      -89.562      -54.463        7.827       56.270       31.236       25.156     3166.311      975.667      632.801        0.791        0.239      104.821       24.835        0.056      336.699        8.176      862.384
03/20/2014  00:54:00      -74.495      -70.875       -0.644       49.139       43.915       29.490     2414.658     1928.520      869.658        0.789        0.261      102.824       23.215        0.051      336.723        8.218      862.389
03/20/2014  00:55:00      -63.041     -124.543       -0.960       44.331       64.053       25.664     1965.244     4102.825      658.653        1.310        0.336      139.589       27.222        0.038      336.793        8.334      862.383
03/20/2014  00:56:00      -86.166     -119.970        4.748       40.228       61.013       32.158     1618.297     3722.568     1034.169        1.411        0.319      147.707       33.174        0.050      336.829        8.393      862.380
03/20/2014  00:57:00      -97.773      -46.128        0.506       56.570       34.152       26.534     3200.159     1166.390      704.064        0.838        0.254      108.108       27.456        0.064      336.789        8.327      862.378
03/20/2014  00:58:00      -94.369      -80.972       -0.829       52.699       46.567       27.510     2777.222     2168.491      756.810        1.058        0.285      124.346       25.355        0.042      336.756        8.272      862.379
03/20/2014  00:59:00      -90.228     -117.810       -3.730       44.203       49.643       24.222     1953.925     2464.421      586.722        1.352        0.250      148.392       17.752        0.014      336.817        8.374      862.391
03/20/2014  01:00:00      -72.599      -88.980        7.753       70.934       40.680       41.688     5031.571     1654.856     1737.877        1.083        0.421      114.839       41.779        0.132      336.772        8.297      862.383
03/20/2014  01:01:00     -127.416     -135.117      -14.923       48.239       74.396       30.976     2327.037     5534.799      959.505        2.177        0.441      185.719       25.266        0.019      336.772        8.297      862.377
03/20/2014  01:02:00     -104.618      -97.215       10.386       60.724       52.107       34.803     3687.382     2715.162     1211.241        1.406        0.381      142.814       32.349        0.051      336.701        8.180      862.368
03/20/2014  01:03:00      -95.635      -99.805      -11.742       77.982       59.725       35.846     6081.168     3567.085     1284.942        1.509        0.547      138.228       36.170        0.068      336.671        8.128      862.360
03/20/2014  01:04:00      -83.833      -73.968       10.831       71.921       50.842       37.864     5172.676     2584.913     1433.676        1.090        0.460      111.800       35.799        0.103      336.645        8.086      862.350
03/20/2014  01:05:00     -134.296     -105.888      -19.915       58.530       52.152       38.426     3425.748     2719.845     1476.526        1.863        0.381      171.020       35.514        0.043      336.674        8.135      862.339
03/20/2014  01:06:00     -116.462      -72.845        1.458       44.428       39.761       29.643     1973.846     1580.913      878.719        1.165        0.222      137.367       30.123        0.048      336.681        8.148      862.341
03/20/2014  01:07:00     -113.038      -57.249       -2.546       34.656       32.300       22.881     1201.004     1043.314      523.536        0.941        0.138      126.709       15.621        0.015      336.657        8.109      862.335
03/20/2014  01:08:00     -138.873      -59.722      -12.323       24.810       25.466       12.318      615.553      648.516      151.730        1.221        0.071      151.170        7.298        0.002      336.636        8.074      862.329
03/20/2014  01:09:00      -77.564      -34.215        7.849       49.856       34.434       22.703     2485.610     1185.702      515.414        0.572        0.209       84.775       22.662        0.071      336.596        8.006      862.339
03/20/2014  01:10:00     -133.066      -37.783       -3.965       33.562       37.839       18.927     1126.384     1431.798      358.222        1.103        0.146      138.327       12.518        0.008      336.552        7.930      862.355
03/20/2014  01:11:00      -77.060      -31.088        8.249       53.905       40.807       25.729     2905.727     1665.181      661.978        0.610        0.262       83.094       30.902        0.138      336.496        7.838      862.367
03/20/2014  01:12:00      -51.591      -45.197       10.362       55.635       36.380       21.300     3095.247     1323.491      453.676        0.484        0.244       68.589       29.584        0.186      336.504        7.851      862.387
03/20/2014  01:13:00      -26.624      -29.296       -2.177       22.929       18.332       14.150      525.728      336.054      200.231        0.132        0.053       39.586       12.813        0.105      336.377        7.638      862.407
03/20/2014  01:14:00       10.093      -34.029       15.995       21.233       25.739       17.905      450.826      662.477      320.599        0.147        0.072       35.494       14.088        0.158      336.572        7.965      862.421
03/20/2014  01:15:00      -19.651      -10.501       10.081       37.115       43.342       29.295     1377.513     1878.526      858.183        0.236        0.206       22.281       30.565        1.882      336.552        7.931      862.429
03/20/2014  01:16:00       55.149       54.229       45.979       23.265       15.558       14.920      541.261      242.054      222.617        0.455        0.050       77.345        8.088        0.011      336.178        7.304      862.423
03/20/2014  01:17:00       18.865       40.501       24.853       21.136       22.042       14.948      446.751      485.837      223.443        0.188        0.058       44.679        6.700        0.022      336.155        7.266      862.419
03/20/2014  01:18:00      -25.530       22.689       -6.425       23.325       16.513        8.953      544.060      272.683       80.161        0.105        0.045       34.155        5.599        0.027      336.250        7.424      862.413
03/20/2014  01:19:00      -35.502       20.848        5.496       30.222       21.139       16.931      913.381      446.863      286.670        0.169        0.082       41.171       17.038        0.171      336.417        7.705      862.409
03/20/2014  01:20:00      -83.739      -14.751       -5.443       35.370       26.969       17.798     1251.070      727.302      316.782        0.478        0.115       85.028       19.076        0.050      336.447        7.756      862.391
03/20/2014  01:21:00      -56.159      -24.840        3.195       40.258       27.120       21.350     1620.730      735.472      455.805        0.330        0.141       61.408       22.218        0.131      336.449        7.757      862.389
03/20/2014  01:22:00      -68.741      -32.897       -6.298       29.547       25.347       15.261      873.038      642.477      232.904        0.380        0.087       76.207        8.406        0.012      336.428        7.724      862.391
03/20/2014  01:23:00      -56.281      -33.250        3.458       29.374       23.885       15.571      862.830      570.482      242.470        0.298        0.084       65.369       16.651        0.065      336.353        7.598      862.390
03/20/2014  01:24:00      -66.983      -40.197       -3.904       36.728       34.997       16.336     1348.911     1224.817      266.853        0.448        0.142       78.118       19.974        0.065      336.316        7.535      862.384
03/20/2014  01:25:00      -79.640      -22.123       -6.185       19.383       21.095       12.352      375.690      445.020      152.571        0.392        0.049       82.656        9.813        0.014      336.312        7.529      862.379
03/20/2014  01:26:00      -76.355      -24.903       -3.280       26.681       24.588       14.525      711.878      604.558      210.979        0.399        0.076       80.313       15.768        0.039      336.287        7.487      862.372
03/20/2014  01:27:00      -59.616      -31.805       -3.298       23.250       19.954       12.565      540.554      398.150      157.868        0.284        0.055       67.569       12.328        0.033      336.244        7.415      862.369
03/20/2014  01:28:00      -87.348      -17.294      -11.568       18.831       18.040       14.704      354.608      325.441      216.194        0.448        0.045       89.043        8.490        0.009      336.151        7.259      862.361
03/20/2014  01:29:00      -68.449      -14.705       -3.532       21.996       19.048       10.387      483.834      362.826      107.884        0.293        0.048       70.010        7.408        0.011      336.248        7.422      862.346
03/20/2014  01:30:00      -46.477      -33.089       -7.235       20.789       17.310       13.945      432.176      299.621      194.450        0.212        0.046       57.052       12.871        0.051      336.257        7.436      862.342
03/20/2014  01:31:00      -46.327      -20.620       -8.069        7.737        7.804        8.073       59.856       60.909       65.176        0.141        0.009       50.709        5.796        0.013      336.198        7.338      862.354
03/20/2014  01:32:00      -63.954      -11.854       -8.331       13.118        8.899        7.303      172.089       79.197       53.331        0.230        0.015       65.044        4.254        0.004      336.119        7.207      862.366
03/20/2014  01:33:00      -63.784      -15.541       -8.310       17.832       15.586       14.061      317.993      242.909      197.713        0.257        0.038       65.650       13.224        0.041      335.990        6.991      862.383
03/20/2014  01:34:00      -56.414       19.997      -10.139       16.712       34.870       11.808      279.277     1215.914      139.438        0.266        0.082       59.853        8.929        0.022      336.221        7.376      862.392
03/20/2014  01:35:00      -28.263      -28.375        1.476       22.130       18.421       12.749      489.751      339.334      162.545        0.130        0.050       40.049        8.869        0.049      336.132        7.227      862.408
03/20/2014  01:36:00      -26.390       -7.833       -3.205       20.529       27.898       12.846      421.436      778.309      165.025        0.107        0.068       27.528       13.769        0.250      336.217        7.370      862.410
03/20/2014  01:37:00        5.043      -13.141        2.634       25.157       19.878       16.116      632.871      395.154      259.733        0.075        0.064       14.076        9.488        0.454      336.294        7.498      862.418
03/20/2014  01:38:00       -6.141        5.626        8.836       13.917       25.845       14.932      193.675      667.974      222.962        0.062        0.054        8.328        6.395        0.590      336.321        7.545      862.423
03/20/2014  01:39:00      -33.221       35.550       -5.454       34.720       21.876       17.253     1205.504      478.580      297.663        0.219        0.099       48.656       11.376        0.055      336.695        8.170      862.432
03/20/2014  01:40:00       -9.779        9.362       -1.780       19.019       30.635        9.247      361.740      938.532       85.515        0.079        0.069       13.538        8.231        0.370      336.375        7.634      862.438
03/20/2014  01:41:00      -18.414       -6.814       -0.456       16.883       14.478       10.114      285.023      209.599      102.295        0.049        0.030       19.634        6.422        0.107      336.051        7.094      862.446
03/20/2014  01:42:00      -18.412      -13.975       -3.792       15.189       10.405        5.577      230.706      108.256       31.106        0.046        0.019       23.114        5.987        0.067      335.953        6.929      862.449
03/20/2014  01:43:00        1.880       -8.693       -3.094        5.516        8.883        6.943       30.422       78.909       48.199        0.012        0.008        8.894        5.521        0.385      336.285        7.484      862.441
03/20/2014  01:44:00       -6.636      -14.635       -5.197        9.920        7.318        8.549       98.411       53.548       73.093        0.026        0.011       16.069        7.256        0.204      336.386        7.653      862.446
03/20/2014  01:45:00        0.265       -8.032        3.390        8.987        9.827        6.269       80.772       96.566       39.303        0.015        0.011        8.036        5.673        0.498      336.297        7.504      862.450
03/20/2014  01:46:00       -7.505      -34.522        0.396       10.168       14.987       13.988      103.395      224.621      195.670        0.089        0.026       35.328       11.721        0.110      336.258        7.438      862.450
03/20/2014  01:47:00       -3.687      -50.082       -2.024       12.139       15.143       10.433      147.355      229.308      108.854        0.151        0.024       50.218        5.442        0.012      336.351        7.594      862.445
03/20/2014  01:48:00      -34.639      -16.523        3.829       26.305       14.068       13.957      691.939      197.913      194.804        0.129        0.054       38.378        3.626        0.009      335.986        6.984      862.439
03/20/2014  01:49:00      -61.297        9.798       -7.607        9.483        8.757        8.683       89.932       76.691       75.387        0.208        0.012       62.075        3.276        0.003      335.865        6.785      862.419
03/20/2014  01:50:00      -71.385      -13.297       -6.332       18.562       20.971       10.973      344.555      439.785      120.412        0.311        0.045       72.613        6.846        0.009      335.847        6.755      862.412
03/20/2014  01:51:00      -70.092      -45.782        1.850       33.191       17.520       14.597     1101.666      306.954      213.070        0.432        0.081       83.718       16.022        0.037      335.857        6.769      862.417
03/20/2014  01:52:00      -37.308      -69.972       -8.017       25.724       20.931       12.428      661.748      438.123      154.443        0.380        0.063       79.297       13.321        0.028      336.027        7.053      862.427
03/20/2014  01:53:00     -101.448      -49.688       -8.709       27.395       26.080       18.089      750.512      680.160      327.196        0.730        0.088      112.962       10.682        0.009      336.159        7.274      862.413
03/20/2014  01:54:00      -73.667      -61.958       -1.639       41.371       34.534       18.836     1711.583     1192.579      354.808        0.626        0.163       96.258       14.484        0.023      336.159        7.272      862.402
03/20/2014  01:55:00      -42.151      -27.511       -0.603       28.863       21.513       10.725      833.056      462.790      115.036        0.197        0.071       50.334       12.988        0.067      336.202        7.346      862.395
03/20/2014  01:56:00      -46.900      -12.825        1.207       26.795       20.802       12.409      717.948      432.742      153.989        0.183        0.065       48.622       12.626        0.067      336.186        7.318      862.380
03/20/2014  01:57:00      -65.263       -9.351        0.061       25.382       17.224       16.616      644.252      296.661      276.102        0.278        0.061       65.930       10.660        0.026      336.211        7.360      862.377
03/20/2014  01:58:00      -50.641      -21.672       -2.439       16.556       13.212        8.264      274.107      174.544       68.298        0.178        0.026       55.083        6.225        0.013      336.248        7.423      862.371
03/20/2014  01:59:00      -28.933       -0.411       -3.238       23.445       21.631        7.956      549.690      467.884       63.301        0.096        0.054       28.936       10.711        0.137      336.247        7.419      862.361
03/20/2014  02:00:00       20.645       42.050       13.211       11.347       16.826       17.296      128.746      283.106      299.140        0.154        0.036       46.844       14.692        0.098      336.050        7.091      862.343
03/20/2014  02:01:00       39.124       30.521       -4.622       18.733       18.890       13.866      350.943      356.844      192.278        0.169        0.045       49.621       13.401        0.073      335.871        6.793      862.343
03/20/2014  02:02:00       36.967       11.436       -0.802       29.056       18.363       11.533      844.263      337.198      133.012        0.141        0.066       38.695        7.336        0.036      335.946        6.917      862.346
03/20/2014  02:03:00        6.690       12.655       20.159       30.617       23.222       12.957      937.400      539.276      167.888        0.113        0.082       14.314       13.038        0.830      335.911        6.860      862.363
03/20/2014  02:04:00      -20.965      -12.066       -1.784       19.328       20.589       11.855      373.580      423.892      140.533        0.076        0.047       24.189        9.281        0.147      335.965        6.951      862.396
03/20/2014  02:05:00      -39.810      -41.896       -2.250       42.327       41.937       15.522     1791.569     1758.728      240.925        0.357        0.190       57.793       11.489        0.040      335.979        6.973      862.399
03/20/2014  02:06:00      -44.088      -38.668        8.476       45.303       35.714       25.657     2052.319     1275.464      658.261        0.375        0.199       58.642       21.040        0.129      336.177        7.303      862.381
03/20/2014  02:07:00      -98.349      -86.515       -0.985       44.307       32.594       27.060     1963.091     1062.399      732.220        1.046        0.188      130.986       24.140        0.034      336.165        7.282      862.358
03/20/2014  02:08:00     -137.469      -48.296      -12.075       48.804       33.990       24.800     2381.799     1155.322      615.034        1.276        0.208      145.706       30.140        0.043      336.112        7.194      862.331
03/20/2014  02:09:00     -118.369      -44.240       -4.800       41.418       32.644       18.545     1715.464     1065.654      343.904        0.956        0.156      126.366       17.115        0.018      336.085        7.149      862.314
03/20/2014  02:10:00     -108.301      -26.904        0.453       38.033       26.609       23.721     1446.547      708.036      562.689        0.758        0.136      111.592       24.702        0.049      335.896        6.835      862.326
03/20/2014  02:11:00     -118.522      -36.390       -3.930       27.731       28.233       17.669      768.997      797.077      312.197        0.863        0.094      123.983       13.226        0.011      335.869        6.790      862.339
03/20/2014  02:12:00      -61.031      -34.455        7.772       43.598       23.987       19.727     1900.803      575.382      389.148        0.392        0.143       70.085       23.003        0.108      335.839        6.739      862.341
03/20/2014  02:13:00      -26.963      -43.774        8.594       31.980       31.309       19.834     1022.719      980.274      393.407        0.256        0.120       51.412       18.531        0.130      335.882        6.813      862.339
03/20/2014  02:14:00      -68.905      -66.012       -0.186       33.406       28.381       18.967     1115.970      805.495      359.764        0.569        0.114       95.423       22.892        0.058      335.973        6.962      862.335
03/20/2014  02:15:00      -56.741      -69.440        1.434       43.259       30.324       20.707     1871.303      919.547      428.768        0.563        0.161       89.674       19.078        0.045      336.131        7.227      862.336
03/20/2014  02:16:00      -89.973      -26.079       12.763       50.660       33.776       31.288     2566.441     1140.812      978.913        0.681        0.234       93.676       29.081        0.096      336.112        7.195      862.339
03/20/2014  02:17:00     -118.016      -75.414      -11.720       30.937       25.219       17.605      957.082      635.986      309.947        1.083        0.095      140.054       15.980        0.013      336.060        7.107      862.322
03/20/2014  02:18:00     -115.292      -53.402       -5.046       17.537       16.038       10.286      307.541      257.216      105.802        0.842        0.034      127.059        7.728        0.004      336.218        7.370      862.301
03/20/2014  02:19:00     -106.499      -75.158       -1.096       34.117       23.195       23.099     1163.954      538.012      533.565        0.961        0.112      130.349       20.145        0.024      336.306        7.518      862.306
03/20/2014  02:20:00      -86.640      -55.487       -5.589       31.939       21.437       17.675     1020.069      459.549      312.416        0.620        0.090      102.885       11.868        0.013      336.445        7.753      862.311
03/20/2014  02:21:00      -74.380      -35.141       -2.126       29.937       26.461       15.235      896.231      700.186      232.092        0.430        0.091       82.263       10.673        0.017      336.234        7.398      862.326
03/20/2014  02:22:00      -88.581      -42.244       -2.407       26.347       18.785       13.862      694.151      352.887      192.166        0.544        0.062       98.138       15.668        0.025      336.051        7.093      862.355
03/20/2014  02:23:00      -42.106      -21.067        3.998       37.324       18.571       14.104     1393.095      344.890      198.922        0.208        0.097       47.082       16.653        0.125      335.858        6.771      862.372
03/20/2014  02:24:00      -64.751      -22.721       -0.754       23.857       22.153       13.071      569.145      490.753      170.844        0.297        0.062       68.622       12.257        0.032      335.791        6.659      862.385
03/20/2014  02:25:00      -64.228      -31.259       -5.074       14.686       23.563        7.914      215.693      555.198       62.633        0.298        0.042       71.431        7.189        0.010      335.914        6.866      862.389
03/20/2014  02:26:00      -25.642      -42.523       -1.727       15.722       22.366        9.619      247.182      500.223       92.529        0.165        0.042       49.656       10.049        0.041      336.029        7.055      862.391
03/20/2014  02:27:00      -27.401      -36.666        2.216       16.311       18.282       11.292      266.040      334.218      127.510        0.141        0.036       45.774       10.440        0.052      336.088        7.155      862.380
03/20/2014  02:28:00       12.238       18.648       21.813       18.860       15.762       11.181      355.710      248.455      125.014        0.085        0.036       22.305        3.426        0.024      335.923        6.881      862.359
03/20/2014  02:29:00       32.675       41.017        2.713       13.807       16.666       12.435      190.634      277.758      154.619        0.169        0.031       52.441       10.400        0.039      335.592        6.330      862.359
03/20/2014  02:30:00       23.119       19.961        5.123       10.802       12.111       11.500      116.685      146.688      132.255        0.068        0.020       30.544        7.596        0.062      335.582        6.312      862.367
03/20/2014  02:31:00       23.433       21.030        4.705       11.944        5.920        7.082      142.670       35.051       50.161        0.062        0.011       31.486        5.904        0.035      335.614        6.365      862.375
03/20/2014  02:32:00        8.237       18.709        5.094        5.263        5.045        5.116       27.695       25.456       26.176        0.026        0.004       20.442        2.154        0.011      335.714        6.531      862.387
03/20/2014  02:33:00      -15.300       24.643        0.987       12.673        8.175        5.551      160.614       66.835       30.813        0.055        0.013       29.006        4.207        0.021      335.793        6.664      862.373
03/20/2014  02:34:00        4.804        3.703       11.735        7.472        6.071        7.741       55.836       36.858       59.925        0.016        0.008        6.065        5.948        0.962      335.685        6.484      862.347
03/20/2014  02:35:00       18.866       13.314        2.506        9.556        7.699        8.435       91.311       59.271       71.148        0.038        0.011       23.091        5.121        0.049      335.711        6.527      862.326
03/20/2014  02:36:00       13.546       15.708       -6.035        9.746       12.908        9.291       94.986      166.622       86.316        0.041        0.017       20.742        3.152        0.023      335.694        6.500      862.330
03/20/2014  02:37:00       18.188       24.101       -0.947        6.760        6.405        7.388       45.704       41.024       54.578        0.053        0.007       30.193        3.096        0.011      335.706        6.518      862.324
03/20/2014  02:38:00       25.588       21.010       -0.645        4.898        5.451        7.980       23.993       29.714       63.672        0.061        0.006       33.108        3.868        0.014      335.702        6.513      862.313
03/20/2014  02:39:00        7.894       18.985       -5.197        7.724        5.027        3.850       59.655       25.266       14.821        0.027        0.005       20.560        4.652        0.051      335.764        6.617      862.320
03/20/2014  02:40:00        1.575       25.987       -0.657        3.973        7.798        2.832       15.782       60.816        8.023        0.038        0.004       26.034        1.809        0.005      335.824        6.712      862.339
03/20/2014  02:41:00       16.012       48.278       -6.989        9.872       13.183        7.854       97.462      173.796       61.693        0.148        0.017       50.864        8.787        0.030      335.864        6.783      862.327
03/20/2014  02:42:00       23.611       16.884       -1.646       12.910       18.181       14.485      166.676      330.535      209.805        0.078        0.035       29.026       12.121        0.174      335.810        6.692      862.308
03/20/2014  02:43:00       26.783        4.589        2.451       15.072       13.317        9.924      227.159      177.331       98.480        0.062        0.025       27.173        6.868        0.064      335.805        6.683      862.301
03/20/2014  02:44:00       25.948       30.915       22.903       12.259       14.689       19.483      150.279      215.771      379.570        0.145        0.037       40.361        6.916        0.029      335.837        6.736      862.313
03/20/2014  02:45:00       -7.462        0.865       28.164       16.294       23.932       12.822      265.488      572.759      164.405        0.093        0.050        7.512        8.010        1.137      335.714        6.533      862.317
03/20/2014  02:46:00      -29.488      -28.813        2.166       26.989       20.328       15.459      728.411      413.208      238.971        0.154        0.069       41.228       14.027        0.116      335.606        6.353      862.321
03/20/2014  02:47:00      -33.390      -15.292       -7.169       13.308        8.414        8.128      177.113       70.793       66.068        0.086        0.016       36.725        8.768        0.057      335.391        5.993      862.328
03/20/2014  02:48:00      -38.167      -20.316       -8.195       10.739        6.637        6.660      115.336       44.044       44.359        0.107        0.010       43.237        4.254        0.010      335.379        5.970      862.329
03/20/2014  02:49:00      -79.323       -7.670      -11.404       12.235        9.736        8.240      149.694       94.787       67.898        0.340        0.016       79.693        3.474        0.002      335.276        5.800      862.313
03/20/2014  02:50:00      -59.235        0.849      -10.835        9.731        6.832        6.234       94.699       46.672       38.866        0.190        0.009       59.241        2.772        0.002      335.578        6.305      862.282
03/20/2014  02:51:00      -57.842      -20.966       -8.629       10.549        8.640        5.075      111.277       74.647       25.754        0.204        0.011       61.525        2.943        0.002      335.587        6.321      862.263
03/20/2014  02:52:00      -72.044      -34.008       -6.501       14.347        9.205        7.337      205.840       84.735       53.837        0.337        0.017       79.667        6.209        0.006      335.541        6.243      862.260
03/20/2014  02:53:00      -71.876      -23.591       -4.329       33.818       20.226        8.826     1143.627      409.082       77.900        0.369        0.082       75.648        7.585        0.010      335.373        5.963      862.248
03/20/2014  02:54:00      -80.288       -2.304       -0.633       43.642       24.555       20.060     1904.665      602.925      402.393        0.468        0.145       80.321       22.039        0.075      334.999        5.342      862.233
03/20/2014  02:55:00      -89.534      -35.310        5.502       44.844       26.384       15.966     2011.026      696.094      254.927        0.613        0.148       96.245       12.301        0.016      335.011        5.362      862.233
03/20/2014  02:56:00     -112.912      -33.119       -3.583       24.402       24.473       16.244      595.475      598.933      263.872        0.766        0.073      117.669       13.276        0.013      335.233        5.730      862.222
03/20/2014  02:57:00      -91.010      -42.021        1.504       21.924       19.422       13.193      480.677      377.233      174.055        0.554        0.052      100.242       12.932        0.017      335.433        6.062      862.208
03/20/2014  02:58:00      -97.069      -43.561        1.042       25.523       19.587       17.624      651.445      383.660      310.611        0.633        0.067      106.395       12.453        0.014      335.373        5.963      862.204
03/20/2014  02:59:00      -80.172      -57.064       -3.582       32.679       24.811       19.018     1067.891      615.574      361.693        0.587        0.102       98.407        7.887        0.006      335.377        5.969      862.195
03/20/2014  03:00:00      -94.954      -80.244       -0.152       31.593       38.195       21.906      998.140     1458.874      479.887        0.920        0.147      124.320       20.800        0.028      335.675        6.467      862.161
03/20/2014  03:01:00     -103.555      -36.434      -10.715       19.766       24.987       16.382      390.704      624.342      268.365        0.672        0.064      109.778       11.053        0.010      335.533        6.229      862.141
03/20/2014  03:02:00      -90.913      -36.784       -6.006       35.055       29.455       17.330     1228.827      867.577      300.338        0.603        0.120       98.073       16.972        0.030      335.454        6.098      862.165
03/20/2014  03:03:00      -58.901      -75.101       -0.385       38.596       23.157       17.384     1489.642      536.250      302.192        0.572        0.116       95.444       11.473        0.014      335.554        6.264      862.186
03/20/2014  03:04:00      -16.613      -46.302        4.189       24.883       24.581       18.709      619.179      604.212      350.015        0.201        0.079       49.192        8.964        0.033      335.593        6.331      862.176
03/20/2014  03:05:00        7.328      -30.908       -4.042       51.642       45.574       34.698     2666.868     2076.946     1203.965        0.349        0.297       31.765       29.836        0.882      335.548        6.256      862.174
03/20/2014  03:06:00      -58.399        7.073        6.477       17.310       23.360       16.629      299.636      545.697      276.527        0.231        0.056       58.826       12.288        0.044      335.625        6.384      862.179
03/20/2014  03:07:00      -40.439        0.662       14.791       28.386       25.029       18.609      805.739      626.456      346.309        0.182        0.089       40.445       15.061        0.139      335.577        6.303      862.177
03/20/2014  03:08:00      -36.406      -12.793       13.695       39.818       27.603       14.389     1585.435      761.945      207.050        0.212        0.128       38.588       15.775        0.167      335.588        6.321      862.160
03/20/2014  03:09:00      -55.021        0.812        0.511       29.517       24.779       19.633      871.243      614.009      385.450        0.245        0.094       55.027       16.903        0.094      335.650        6.426      862.149
03/20/2014  03:10:00      -21.650        8.164        2.606       16.839       22.021       14.307      283.551      484.924      204.703        0.076        0.049       23.138       14.106        0.372      335.712        6.531      862.136
03/20/2014  03:11:00       -7.002       26.055       12.683       32.626       13.096       15.129     1064.454      171.492      228.873        0.118        0.073       26.980        9.281        0.118      335.760        6.608      862.132
03/20/2014  03:12:00       63.915       35.833       12.142       19.880       22.439       15.739      395.207      503.527      247.721        0.333        0.057       73.274       12.104        0.027      335.496        6.166      862.136
03/20/2014  03:13:00       26.324       68.305       59.426       30.043       37.567       26.456      902.610     1411.299      699.914        0.595        0.151       73.202       22.455        0.094      335.428        6.055      862.130
03/20/2014  03:14:00       35.896       17.546       47.563       38.929       44.091       29.170     1515.475     1943.988      850.898        0.408        0.216       39.955       31.231        0.611      335.377        5.969      862.143
03/20/2014  03:15:00       43.744       35.102       21.986       35.564       20.074       19.785     1264.802      402.984      391.430        0.284        0.103       56.087       18.379        0.107      335.278        5.805      862.133
03/20/2014  03:16:00       57.440       26.144        2.872       18.709       18.638       17.135      350.027      347.368      293.605        0.249        0.050       63.110       10.350        0.027      335.188        5.655      862.126
03/20/2014  03:17:00       49.417       42.564        8.107       24.198       21.166       21.198      585.554      448.014      449.367        0.290        0.074       65.221       10.513        0.026      335.071        5.462      862.119
03/20/2014  03:18:00       33.092       65.816        7.733       31.313       26.433       23.490      980.516      698.727      551.793        0.386        0.112       73.667       16.339        0.049      335.142        5.580      862.091
03/20/2014  03:19:00        3.649       95.661      -18.492       15.201       17.118        7.319      231.074      293.011       53.565        0.504        0.029       95.730        7.195        0.006      335.484        6.150      862.075
03/20/2014  03:20:00        3.021      119.921      -19.476       12.577       26.452       12.933      158.187      699.683      167.251        0.790        0.051      119.959        9.881        0.007      335.652        6.429      862.048
03/20/2014  03:21:00       41.692      146.936      -25.898       20.406       23.770       16.994      416.412      564.992      288.810        1.263        0.064      152.737       14.804        0.009      335.586        6.319      862.032
03/20/2014  03:22:00       24.916      117.635      -17.732       26.050       32.056       22.470      678.583     1027.594      504.917        0.849        0.111      120.244       12.648        0.011      335.484        6.149      862.013
03/20/2014  03:23:00      -45.851       20.836      -14.933       28.070       74.400       19.027      787.949     5535.428      362.009        0.472        0.334       50.363       26.460        0.276      335.492        6.162      862.015
03/20/2014  03:24:00      -56.672      -20.609       -3.370       24.776       15.208       11.505      613.874      231.290      132.356        0.231        0.049       60.303        7.265        0.015      335.263        5.779      862.042
03/20/2014  03:25:00      -39.721      -23.584       -4.238       15.293       21.811       10.588      233.864      475.734      112.111        0.149        0.041       46.195        8.404        0.033      335.340        5.907      862.040
03/20/2014  03:26:00       -4.653       -1.061       -0.467        8.172        8.616        6.090       66.778       74.232       37.093        0.010        0.009        4.773        3.570        0.559      335.380        5.975      862.010
03/20/2014  03:27:00      -12.355       26.230       -5.742       14.197       21.573       10.290      201.561      465.374      105.880        0.082        0.039       28.994       10.242        0.125      335.755        6.601      861.996
03/20/2014  03:28:00      -53.903       31.196       -9.809       34.098       23.781       14.316     1162.686      565.535      204.946        0.295        0.097       62.279       12.726        0.042      335.709        6.523      861.993
03/20/2014  03:29:00      -96.470       22.795      -17.686       17.164       18.225       12.469      294.592      332.141      155.468        0.546        0.039       99.127        7.326        0.005      335.453        6.097      861.982
03/20/2014  03:30:00      -94.469       41.150      -15.246       24.299       25.868       18.290      590.430      669.133      334.515        0.622        0.080      103.042       13.357        0.017      335.682        6.478      861.961
03/20/2014  03:31:00      -89.929       55.830      -14.638       30.727       29.799       16.370      944.121      887.991      267.986        0.676        0.105      105.849       15.583        0.022      335.799        6.674      861.957
03/20/2014  03:32:00      -29.786      -23.978       -8.450       27.973       34.398       16.076      782.462     1183.247      258.449        0.188        0.111       38.238        5.039        0.017      335.703        6.513      861.973
03/20/2014  03:33:00       -5.288      -39.322        2.441       33.467       31.893       25.438     1120.063     1017.142      647.068        0.218        0.139       39.676       24.250        0.374      335.630        6.393      861.988
03/20/2014  03:34:00      -42.546      -64.861        0.875       36.263       28.238       23.189     1314.990      797.360      537.726        0.433        0.133       77.570       14.810        0.036      335.469        6.124      862.011
03/20/2014  03:35:00      -63.721      -69.019       -8.523       22.395       25.463       13.717      501.535      648.367      188.168        0.512        0.067       93.936        7.867        0.007      335.510        6.190      862.036
03/20/2014  03:36:00      -30.502      -31.845        5.702       38.194       21.499       19.630     1458.806      462.217      385.355        0.214        0.115       44.096       12.895        0.086      335.497        6.169      862.035
03/20/2014  03:37:00      -45.672      -57.824       10.518       45.550       34.224       27.977     2074.831     1171.279      782.695        0.478        0.201       73.686       30.025        0.166      335.432        6.061      862.044
03/20/2014  03:38:00     -103.042      -80.435       -5.637       34.867       33.253       20.769     1215.732     1105.767      431.331        0.994        0.138      130.719       17.490        0.018      335.556        6.269      862.039
03/20/2014  03:39:00      -71.179      -59.143        6.987       57.933       32.898       25.112     3356.217     1082.268      630.602        0.684        0.253       92.544       28.232        0.093      335.525        6.217      862.023
03/20/2014  03:40:00      -80.547      -57.855        2.736       47.057       38.284       26.860     2214.366     1465.659      721.440        0.712        0.220       99.172       28.899        0.085      335.514        6.198      862.018
03/20/2014  03:41:00     -102.848      -28.502       -4.634       14.045       17.643       10.180      197.254      311.265      103.629        0.601        0.031      106.724        7.657        0.005      335.461        6.112      862.013
03/20/2014  03:42:00      -42.729       -3.829        1.042       24.295       18.671       13.257      590.250      348.590      175.755        0.148        0.056       42.900       12.934        0.091      335.328        5.887      861.982
03/20/2014  03:43:00      -56.206        0.431       -8.632       21.087       15.533       12.326      444.670      241.272      151.928        0.204        0.042       56.208        9.399        0.028      335.355        5.933      861.967
03/20/2014  03:44:00      -57.233      -16.837       -9.019       16.764       19.431       10.172      281.038      377.550      103.474        0.220        0.038       59.659        6.369        0.011      335.371        5.960      861.969
03/20/2014  03:45:00        1.104      -31.298       -8.791       24.487       13.850       11.886      599.590      191.811      141.265        0.100        0.047       31.318        8.655        0.076      335.405        6.017      861.991
03/20/2014  03:46:00       -5.580       -2.733       11.834        7.730       16.411        9.331       59.758      269.310       87.071        0.030        0.021        6.213       10.359        2.780      335.375        5.966      862.003
03/20/2014  03:47:00       -8.282        8.962        2.468        6.019        9.238        6.265       36.233       85.334       39.250        0.016        0.008       12.203        5.636        0.213      335.475        6.134      861.993
03/20/2014  03:48:00      -17.490        0.634        1.780       14.930        8.548        7.073      222.906       73.075       50.034        0.033        0.017       17.501        7.947        0.206      335.494        6.164      861.975
03/20/2014  03:49:00      -64.615       18.719       -8.880       19.126        8.954        6.559      365.816       80.174       43.014        0.255        0.024       67.272        2.970        0.002      335.496        6.168      861.981
03/20/2014  03:50:00      -73.198       -0.744      -12.378       15.078       13.251        9.816      227.343      175.589       96.355        0.301        0.025       73.202        6.216        0.007      335.343        5.913      861.987
03/20/2014  03:51:00      -38.448        1.124       -9.972       15.754        5.800        8.125      248.201       33.641       66.019        0.096        0.017       38.464        7.326        0.036      335.194        5.665      861.982
03/20/2014  03:52:00      -32.296        2.021       -3.972       13.839       15.192       12.081      191.529      230.803      145.963        0.082        0.028       32.359        9.308        0.083      335.275        5.800      861.968
03/20/2014  03:53:00      -42.200       -7.576       -5.147       16.082       15.285        9.919      258.624      233.616       98.378        0.123        0.030       42.875        3.933        0.008      335.343        5.913      861.968
03/20/2014  03:54:00        9.503      -27.146       -8.765       14.249       17.573        9.397      203.033      308.820       88.303        0.075        0.030       28.761        7.709        0.072      335.149        5.592      861.993
03/20/2014  03:55:00       71.017       38.308        2.413       49.089       32.364       28.852     2409.758     1047.427      832.462        0.540        0.214       80.691       19.499        0.058      334.754        4.936      862.008
03/20/2014  03:56:00      104.223       61.246       -3.891       33.517       21.160       22.036     1123.384      447.762      485.588        0.834        0.103      120.886       12.783        0.011      334.507        4.526      862.003
03/20/2014  03:57:00       65.694       54.308        6.613       37.080       30.651       23.528     1374.945      939.464      553.589        0.509        0.143       85.236       19.191        0.051      334.479        4.480      861.999
03/20/2014  03:58:00       22.108       81.234      -16.004       22.601       40.384       18.072      510.824     1630.903      326.589        0.491        0.123       84.189       22.772        0.073      334.820        5.046      861.998
03/20/2014  03:59:00       -8.420      106.587      -16.434       21.889       21.525       14.048      479.128      463.333      197.360        0.642        0.057      106.919       10.103        0.009      335.114        5.532      862.009
03/20/2014  04:00:00       19.299      115.092      -15.513       23.987       20.032       11.497      575.359      401.268      132.191        0.748        0.055      116.699       10.448        0.008      335.195        5.667      862.004
03/20/2014  04:01:00       21.093       71.101      -15.407       19.146       28.811       20.873      366.562      830.049      435.694        0.368        0.082       74.163       16.206        0.048      335.128        5.556      861.980
03/20/2014  04:02:00       20.497       69.365      -15.144       13.008       23.907        9.879      169.209      571.538       97.589        0.315        0.042       72.330        9.016        0.016      335.201        5.678      861.971
03/20/2014  04:03:00        6.319       30.188       -3.952       16.966       22.434       11.509      287.843      503.294      132.462        0.095        0.046       30.842        5.477        0.032      335.272        5.794      861.977
03/20/2014  04:04:00      -44.762       -0.150       -8.406       22.905       21.629        7.781      524.625      467.795       60.541        0.156        0.053       44.762        3.546        0.006      335.192        5.662      861.974
03/20/2014  04:05:00      -97.349      -28.838      -11.737       25.683       13.381        8.451      659.626      179.059       71.428        0.568        0.046      101.530        6.695        0.004      334.937        5.239      861.969
03/20/2014  04:06:00      -95.683      -43.681      -10.361       20.140       12.568        9.059      405.612      157.950       82.072        0.591        0.032      105.182        8.302        0.006      334.947        5.255      861.961
03/20/2014  04:07:00      -44.959      -37.489       -0.128       22.224       10.152       10.974      493.900      103.066      120.437        0.207        0.036       58.538       13.084        0.050      334.987        5.324      861.940
03/20/2014  04:08:00      -50.732      -46.881       -7.193       10.145        8.303        9.097      102.923       68.943       82.752        0.254        0.013       69.076        3.895        0.003      335.210        5.692      861.928
03/20/2014  04:09:00      -66.104      -21.811      -11.168       10.333       11.703        9.371      106.774      136.952       87.808        0.265        0.017       69.610        5.677        0.007      335.046        5.420      861.918
03/20/2014  04:10:00     -116.164       10.021      -18.132       23.301       13.219       11.845      542.943      174.735      140.293        0.739        0.043      116.596        6.965        0.004      334.829        5.059      861.920
03/20/2014  04:11:00      -91.482       -4.086      -17.896       23.134       13.386       11.362      535.193      179.179      129.106        0.477        0.042       91.574       10.966        0.014      334.804        5.019      861.931
03/20/2014  04:12:00      -62.338       -8.515       -9.326       13.859       14.614        9.431      192.078      213.579       88.947        0.227        0.025       62.917        8.731        0.019      334.862        5.116      861.944
03/20/2014  04:13:00      -61.080      -28.907      -11.246       14.017       14.955        8.000      196.471      223.662       63.995        0.259        0.024       67.575        5.180        0.006      334.799        5.010      861.945
03/20/2014  04:14:00      -55.506      -27.469       -8.762       21.552       20.988       13.636      464.501      440.481      185.944        0.250        0.055       61.931        3.559        0.003      334.722        4.883      861.924
03/20/2014  04:15:00      -78.845      -13.464      -21.291       11.825       12.713        8.515      139.821      161.625       72.503        0.361        0.019       79.986        7.049        0.008      334.760        4.947      861.916
03/20/2014  04:16:00      -82.896      -12.422      -18.072       27.244       12.453       10.970      742.253      155.088      120.340        0.418        0.051       83.821       10.060        0.014      334.743        4.918      861.924
03/20/2014  04:17:00     -100.103      -42.149      -10.174       12.955       17.892       10.929      167.843      320.111      119.441        0.625        0.030      108.614        3.921        0.001      334.707        4.856      861.942
03/20/2014  04:18:00     -141.393      -23.593      -20.563       19.472       15.850       11.537      379.173      251.223      133.111        1.087        0.038      143.347       10.490        0.005      334.651        4.763      861.946
03/20/2014  04:19:00     -150.300      -32.757       -9.199       46.142       35.091       26.392     2129.062     1231.412      696.532        1.390        0.203      153.828       24.832        0.026      334.430        4.397      861.939
03/20/2014  04:20:00     -150.029      -39.531       -5.839       38.060       45.374       23.803     1448.592     2058.809      566.586        1.409        0.204      155.149       20.597        0.018      334.412        4.368      861.915
03/20/2014  04:21:00      -98.952      -12.637       -5.000       51.762       44.948       26.248     2679.259     2020.342      688.939        0.768        0.269       99.755       25.971        0.068      334.417        4.375      861.892
03/20/2014  04:22:00      -24.687      -17.067       19.358       32.971       27.865       27.957     1087.108      776.463      781.621        0.196        0.132       30.012       20.941        0.487      334.515        4.538      861.880
03/20/2014  04:23:00      -12.067       14.415       -6.153       31.530       23.144       15.254      994.152      535.641      232.671        0.108        0.088       18.799       16.098        0.733      334.600        4.679      861.884
03/20/2014  04:24:00      -13.503       16.218        1.057       15.631       16.674       10.016      244.337      278.011      100.330        0.053        0.031       21.103        7.381        0.122      334.889        5.160      861.905
03/20/2014  04:25:00      -47.110       -3.742       -8.713       37.746       19.075       15.400     1424.737      363.873      237.163        0.217        0.101       47.258       20.715        0.192      334.839        5.076      861.916
03/20/2014  04:26:00      -91.884      -29.763      -22.865       25.485       15.210       12.705      649.495      231.354      161.407        0.545        0.052       96.584       10.040        0.011      334.595        4.672      861.914
03/20/2014  04:27:00     -113.206      -33.869      -20.603       29.771       30.623       18.429      886.297      937.757      339.622        0.827        0.108      118.163       14.045        0.014      334.443        4.418      861.896
03/20/2014  04:28:00      -30.843       -1.433       -9.880       27.872       15.828       11.935      776.845      250.515      142.442        0.111        0.058       30.877       14.720        0.227      334.455        4.438      861.888
03/20/2014  04:29:00      -36.782      -30.616       -6.272       11.012       19.709       12.986      121.261      388.460      168.647        0.150        0.034       47.857        8.540        0.032      334.592        4.667      861.889
03/20/2014  04:30:00      -59.674      -26.805      -14.234       12.232       13.279       10.802      149.617      176.337      116.692        0.246        0.022       65.418        7.306        0.012      334.673        4.801      861.894
03/20/2014  04:31:00      -82.228       -9.926      -17.429       12.476        9.806       10.020      155.660       96.158      100.408        0.376        0.018       82.825        6.948        0.007      334.760        4.945      861.885
03/20/2014  04:32:00      -91.942      -21.997      -11.048       22.175       21.623       18.178      491.743      467.533      330.458        0.517        0.064       94.537        5.998        0.004      334.801        5.013      861.874
03/20/2014  04:33:00     -116.423      -25.747      -17.275       24.466       22.659       18.099      598.602      513.413      327.558        0.798        0.072      119.236       12.730        0.011      334.584        4.652      861.885
03/20/2014  04:34:00      -98.960       -6.812      -20.443       42.575       39.284       24.231     1812.590     1543.200      587.152        0.710        0.197       99.194       20.237        0.042      334.534        4.569      861.898
03/20/2014  04:35:00     -114.774      -16.611      -16.691       45.998       27.186       20.534     2115.842      739.094      421.649        0.850        0.164      115.970       19.030        0.027      334.526        4.557      861.905
03/20/2014  04:36:00     -138.617      -58.798      -20.315       35.192       42.073       25.321     1238.482     1770.144      641.142        1.337        0.182      150.572       16.427        0.012      334.521        4.546      861.904
03/20/2014  04:37:00     -136.750      -49.842      -17.537       50.569       60.954       29.010     2557.189     3715.410      841.604        1.430        0.356      145.550       18.367        0.016      334.393        4.335      861.899
03/20/2014  04:38:00     -160.332      -70.035       -5.709       54.587       52.686       31.410     2979.763     2775.816      986.615        1.869        0.337      174.961       23.952        0.019      334.423        4.384      861.896
03/20/2014  04:39:00     -173.346       -5.248      -21.215       41.941       61.966       28.107     1759.051     3839.791      789.983        1.846        0.319      173.425       22.413        0.017      334.396        4.340      861.887
03/20/2014  04:40:00     -176.212       28.313      -10.435       44.504       40.674       25.378     1980.605     1654.344      644.060        1.812        0.214      178.472       21.382        0.014      334.454        4.435      861.884
03/20/2014  04:41:00     -120.697      -45.369      -17.713       46.849       30.988       22.414     2194.857      960.236      502.396        1.030        0.183      128.943       14.685        0.013      334.464        4.453      861.891
03/20/2014  04:42:00      -61.945      -57.136       12.092       62.384       34.264       25.713     3891.773     1174.013      661.174        0.649        0.286       84.272       29.473        0.122      334.489        4.496      861.897
03/20/2014  04:43:00      -83.500      -56.275       -6.619       42.454       23.728       20.194     1802.348      563.008      407.809        0.648        0.139      100.694       17.864        0.031      334.470        4.464      861.900
03/20/2014  04:44:00     -115.726      -38.087       -1.985       38.457       35.554       22.162     1478.930     1264.113      491.152        0.904        0.162      121.832       11.883        0.010      334.393        4.337      861.914
03/20/2014  04:45:00     -168.631      -35.510        5.790       50.460       39.566       25.800     2546.217     1565.472      665.664        1.725        0.239      172.329       29.453        0.029      334.469        4.461      861.934
03/20/2014  04:46:00     -149.558      -52.288       -6.001       48.421       34.363       20.894     2344.597     1180.826      436.566        1.455        0.198      158.435       20.245        0.016      334.590        4.663      861.951
03/20/2014  04:47:00     -107.953      -39.525        0.711       37.160       24.300       19.484     1380.836      590.477      379.611        0.778        0.118      114.961       18.381        0.026      334.676        4.806      861.944
03/20/2014  04:48:00      -91.956      -48.322        0.595       23.145       16.806       12.954      535.711      282.447      167.812        0.589        0.049      103.879        9.190        0.008      334.822        5.049      861.932
03/20/2014  04:49:00     -117.129      -42.751      -10.129       26.187       19.958       12.062      685.744      398.311      145.502        0.844        0.061      124.687       10.042        0.006      334.763        4.949      861.940
03/20/2014  04:50:00     -136.336      -32.240       -8.785       28.422       29.471       19.074      807.834      868.565      363.810        1.087        0.102      140.096       16.107        0.013      334.638        4.741      861.946
03/20/2014  04:51:00     -144.631      -10.018      -10.560       45.526       27.918       19.517     2072.616      779.414      380.909        1.218        0.162      144.977       23.025        0.025      334.626        4.722      861.943
03/20/2014  04:52:00     -165.989       19.301      -17.540       41.635       31.179       19.899     1733.464      972.123      395.956        1.567        0.155      167.107       18.130        0.012      334.732        4.897      861.949
03/20/2014  04:53:00     -133.470      -20.125      -15.017       36.121       30.623       23.263     1304.716      937.775      541.171        1.061        0.139      134.978       18.834        0.019      334.776        4.971      861.944
03/20/2014  04:54:00      -85.829       10.093       -9.985       31.366       24.852       23.750      983.841      617.635      564.066        0.487        0.108       86.420       18.400        0.045      334.861        5.113      861.928
03/20/2014  04:55:00      -65.201      -16.305       -7.345       24.746       25.370       11.023      612.370      643.655      121.515        0.297        0.069       67.208        7.361        0.012      334.921        5.213      861.910
03/20/2014  04:56:00      -74.350      -27.461       -8.290       22.391       13.537       12.212      501.365      183.258      149.144        0.359        0.042       79.259       10.341        0.017      334.811        5.029      861.901
03/20/2014  04:57:00      -46.998      -28.100       -4.587       26.296       18.071       14.794      691.482      326.545      218.877        0.213        0.062       54.758        7.007        0.016      334.787        4.989      861.905
03/20/2014  04:58:00      -54.355      -23.545       -8.826       20.989       17.775       11.306      440.521      315.941      127.835        0.224        0.044       59.236        9.471        0.026      334.780        4.980      861.922
03/20/2014  04:59:00      -16.549      -43.531        3.194       23.541       22.472       18.018      554.165      505.007      324.631        0.178        0.069       46.571       11.869        0.065      334.820        5.044      861.941
03/20/2014  05:00:00      -14.730      -34.168      -12.383       26.738       22.016       10.603      714.916      484.687      112.419        0.142        0.066       37.208        2.522        0.005      334.742        4.916      861.956
03/20/2014  05:01:00       33.599       42.689       17.155       23.863       17.127       12.111      569.460      293.339      146.676        0.213        0.050       54.325        7.063        0.017      334.605        4.688      861.962
03/20/2014  05:02:00        2.801       26.248       10.804       13.777       12.721       17.059      189.813      161.824      291.003        0.073        0.032       26.397       12.540        0.226      334.569        4.627      861.971
03/20/2014  05:03:00      -54.314       31.821      -13.365       20.921       15.039        8.964      437.687      226.180       80.346        0.244        0.037       62.949       11.173        0.032      334.571        4.630      861.982
03/20/2014  05:04:00      -97.959       42.452      -20.854       20.181       20.532       12.963      407.287      421.555      168.041        0.641        0.050      106.762        8.340        0.006      334.582        4.650      861.976
03/20/2014  05:05:00     -117.981       36.300      -10.713       31.943       25.854       16.738     1020.376      668.418      280.166        0.866        0.098      123.439        8.729        0.005      334.739        4.911      861.961
03/20/2014  05:06:00      -87.484      -10.403       -6.475       33.721       29.858       16.661     1137.127      891.471      277.595        0.505        0.115       88.100       13.258        0.023      334.700        4.846      861.941
03/20/2014  05:07:00      -80.968        7.035      -10.938       40.337       30.409       15.913     1627.059      924.693      253.239        0.476        0.140       81.273        5.932        0.005      334.520        4.545      861.943
03/20/2014  05:08:00      -22.300       24.670      -13.598       22.234       35.413       16.522      494.373     1254.100      272.979        0.166        0.101       33.255       14.459        0.189      334.828        5.058      861.945
03/20/2014  05:09:00        4.801       85.601      -16.057       15.646       29.049       10.804      244.807      843.869      116.732        0.441        0.060       85.736        7.404        0.007      335.134        5.566      861.936
03/20/2014  05:10:00        9.197      113.396      -15.981       14.825       16.851       11.313      219.772      283.950      127.988        0.692        0.032      113.768        8.279        0.005      335.120        5.544      861.933
03/20/2014  05:11:00       -0.942       98.960      -14.463       21.028       15.254       10.838      442.161      232.699      117.473        0.540        0.040       98.964        3.920        0.002      335.117        5.536      861.935
03/20/2014  05:12:00      -30.143       34.501       -6.578       19.227       49.175       15.430      369.685     2418.191      238.075        0.258        0.151       45.814        9.562        0.044      335.233        5.732      861.935
03/20/2014  05:13:00      -78.833      -15.920       -7.146       22.831       18.678       12.269      521.262      348.860      150.526        0.377        0.051       80.424        8.371        0.011      334.799        5.009      861.939
03/20/2014  05:14:00     -143.836      -16.977      -13.510       31.657       28.078       19.157     1002.174      788.365      366.991        1.166        0.108      144.834       11.869        0.007      334.509        4.529      861.930
03/20/2014  05:15:00      -54.951        3.483      -14.563       30.253       28.536       21.301      915.217      814.277      453.750        0.271        0.109       55.061       18.276        0.110      334.533        4.567      861.919
03/20/2014  05:16:00      -16.305       40.991       -5.364       33.381       19.141       13.634     1114.273      366.369      185.893        0.182        0.083       44.115       17.094        0.150      335.036        5.403      861.899
03/20/2014  05:17:00       12.489       60.430       -8.573       22.239       27.271       12.087      494.561      743.732      146.099        0.263        0.069       61.707       14.099        0.052      335.290        5.826      861.886
03/20/2014  05:18:00      -32.727       23.107       -0.983       15.091       26.113        8.727      227.730      681.896       76.156        0.130        0.049       40.062        5.820        0.021      335.245        5.753      861.897
03/20/2014  05:19:00      -67.334      -16.128       -9.353       13.508       16.286       11.370      182.467      265.249      129.280        0.273        0.029       69.238        7.416        0.011      334.961        5.279      861.906
03/20/2014  05:20:00     -129.966      -48.776      -13.255       17.367       19.060       11.083      301.597      363.302      122.823        1.012        0.039      138.817        5.813        0.002      334.709        4.860      861.908
03/20/2014  05:21:00     -107.644      -24.651       -6.114       42.946       25.245       23.342     1844.364      637.319      544.851        0.763        0.151      110.430       22.739        0.042      334.548        4.594      861.904
03/20/2014  05:22:00      -36.867       53.499       -7.411       38.318       39.209       18.496     1468.295     1537.312      342.112        0.381        0.167       64.971       22.778        0.123      335.137        5.574      861.892
03/20/2014  05:23:00       38.612       50.559       10.373       17.989       21.270       13.050      323.604      452.400      170.291        0.255        0.047       63.616       13.357        0.044      335.393        5.997      861.866
03/20/2014  05:24:00        3.295       75.770      -13.320       25.623       15.793       10.539      656.555      249.429      111.066        0.347        0.051       75.841       10.487        0.019      335.360        5.941      861.866
03/20/2014  05:25:00      -56.665        1.627      -10.927       23.148       43.534        9.360      535.822     1895.201       87.612        0.293        0.126       56.689        8.564        0.023      335.323        5.881      861.883
03/20/2014  05:26:00     -149.783      -40.597      -16.926       41.073       30.912       13.108     1687.012      955.534      171.818        1.359        0.141      155.188        6.069        0.002      334.908        5.190      861.903
03/20/2014  05:27:00     -188.867      -76.869        1.993       70.005       67.721       37.937     4900.710     4586.171     1439.192        2.625        0.546      203.911       29.760        0.021      334.660        4.776      861.932
03/20/2014  05:28:00     -146.871      -42.398      -17.598       69.442       45.358       29.217     4822.146     2057.322      853.659        1.570        0.387      152.868       29.508        0.037      334.800        5.010      861.954
03/20/2014  05:29:00     -109.579      -18.389      -12.774       25.956       19.896       18.312      673.721      395.848      335.319        0.696        0.070      111.111        9.359        0.007      334.717        4.875      861.959
03/20/2014  05:30:00      -70.956       -7.655       -3.982       20.090       20.474       13.454      403.608      419.183      181.003        0.306        0.050       71.368        9.848        0.019      334.760        4.946      861.947
03/20/2014  05:31:00      -38.614      -15.547       -6.044       21.209       15.315        8.535      449.807      234.549       72.843        0.126        0.038       41.626        7.947        0.036      334.961        5.279      861.945
03/20/2014  05:32:00      -36.847      -24.849       -7.696       20.425        7.678        7.439      417.170       58.954       55.342        0.128        0.027       44.443        9.570        0.046      335.098        5.507      861.948
03/20/2014  05:33:00      -97.276      -31.809      -20.269       14.798       18.890       12.430      218.981      356.823      154.506        0.581        0.037      102.345        9.439        0.009      335.056        5.438      861.956
03/20/2014  05:34:00     -113.087      -52.262      -20.666       14.099       21.205       10.582      198.777      449.665      111.973        0.835        0.038      124.579        8.953        0.005      334.934        5.235      861.970
03/20/2014  05:35:00     -102.371      -26.916       -6.730       36.402       38.812       20.678     1325.111     1506.339      427.589        0.725        0.163      105.851       20.703        0.038      334.849        5.093      861.985
03/20/2014  05:36:00     -105.844       -0.488       -7.755       28.700       23.808       18.518      823.681      566.843      342.908        0.650        0.087      105.845       14.106        0.018      335.049        5.426      861.982
03/20/2014  05:37:00      -11.349      -11.997        2.052       15.953       16.460       12.183      254.496      270.920      148.423        0.048        0.034       16.514        8.608        0.272      335.038        5.405      861.976
03/20/2014  05:38:00      -37.046       -1.972       -7.981       18.256       12.429        9.080      333.295      154.474       82.445        0.101        0.029       37.099        9.128        0.061      335.342        5.911      861.978
03/20/2014  05:39:00      -43.118        1.444       -7.844       21.935        9.442       10.236      481.146       89.149      104.769        0.130        0.034       43.142        7.440        0.030      335.190        5.659      861.993
03/20/2014  05:40:00      -68.158      -18.642       -6.127       35.588       31.551       16.518     1266.518      995.474      272.841        0.378        0.127       70.661        9.081        0.017      335.015        5.369      862.004
03/20/2014  05:41:00      -20.406      -32.618       -6.204       37.275       16.724       20.266     1389.413      279.689      410.702        0.180        0.104       38.475       15.117        0.154      335.066        5.454      862.003
03/20/2014  05:42:00       -4.472      -23.424       -0.450       25.462       19.251       14.947      648.335      370.612      223.404        0.091        0.062       23.847        6.266        0.069      335.023        5.383      862.017
03/20/2014  05:43:00     -101.364      -38.489      -14.204       21.448       17.259        9.424      460.005      297.889       88.811        0.640        0.042      108.425        7.307        0.005      334.847        5.090      862.026
03/20/2014  05:44:00     -107.802      -30.116       -8.897       24.652       25.532       15.492      607.703      651.894      240.005        0.705        0.075      111.929       15.047        0.018      334.834        5.067      862.043
03/20/2014  05:45:00     -138.691      -38.531       -9.640       36.948       26.652       17.968     1365.140      710.337      322.863        1.161        0.120      143.944       19.239        0.018      334.719        4.876      862.062
03/20/2014  05:46:00      -16.505      -12.858        9.008       37.444       17.451       17.567     1402.034      304.544      308.603        0.127        0.101       20.922       16.785        0.644      334.667        4.791      862.073
03/20/2014  05:47:00        3.781      -39.841      -12.945       15.780       18.083       13.767      249.017      326.988      189.538        0.127        0.038       40.020        8.004        0.040      334.918        5.208      862.079
03/20/2014  05:48:00       -3.341      -35.062        0.247       40.249       22.296       18.560     1619.959      497.115      344.474        0.185        0.123       35.220       13.160        0.140      335.023        5.382      862.066
03/20/2014  05:49:00        9.380      -72.077        4.187       47.362       45.073       39.067     2243.199     2031.617     1526.250        0.555        0.290       72.685       33.531        0.213      335.027        5.390      862.054
03/20/2014  05:50:00      -32.782      -19.816       -1.774       27.383       30.255       17.121      749.847      915.342      293.116        0.171        0.098       38.306       17.125        0.200      334.919        5.209      862.042
03/20/2014  05:51:00      -76.746       -1.001       -7.264       19.963       17.963       15.464      398.535      322.660      239.138        0.345        0.048       76.752       12.272        0.026      334.620        4.713      862.040
03/20/2014  05:52:00      -87.672      -42.728       -8.318       14.800       15.019        9.552      219.054      225.564       91.241        0.506        0.027       97.530        5.293        0.003      334.748        4.925      862.039
03/20/2014  05:53:00      -66.544      -35.696        3.024       25.328       19.126       14.902      641.505      365.792      222.057        0.347        0.061       75.514       15.126        0.040      334.657        4.773      862.044
03/20/2014  05:54:00      -61.181      -53.509        2.270       47.937       35.653       18.574     2297.969     1271.135      344.994        0.526        0.196       81.280       23.213        0.082      334.881        5.147      862.051
03/20/2014  05:55:00     -113.389      -71.346        4.551       57.996       35.556       26.376     3363.507     1264.210      695.709        1.164        0.266      133.967       29.242        0.048      334.763        4.949      862.061
03/20/2014  05:56:00     -121.003      -60.410       -1.026       43.060       36.143       22.914     1854.187     1306.335      525.065        1.099        0.184      135.244       19.801        0.021      334.665        4.788      862.072
03/20/2014  05:57:00      -83.821      -46.173       -0.641       36.639       26.893       21.083     1342.416      723.220      444.489        0.583        0.126       95.697       15.590        0.027      334.637        4.741      862.083
03/20/2014  05:58:00      -62.808       -3.040       -7.437       37.590       22.413       19.468     1413.033      502.344      378.988        0.315        0.115       62.882       16.041        0.065      334.500        4.513      862.090
03/20/2014  05:59:00      -53.375      -29.301       -2.016       30.841       17.708        9.940      951.185      313.577       98.808        0.254        0.068       60.889       14.102        0.054      334.665        4.787      862.104
03/20/2014  06:00:00      -11.615      -40.886       -1.899       14.339       13.488        7.133      205.614      181.939       50.881        0.112        0.022       42.504        5.688        0.018      334.879        5.142      862.115
03/20/2014  06:01:00      -37.707      -29.539        2.898       25.411       16.201       15.132      645.737      262.485      228.990        0.172        0.057       47.900       11.453        0.057      334.894        5.169      862.128
03/20/2014  06:02:00      -84.097      -42.669       -3.268       33.795       28.488       16.704     1142.093      811.563      279.009        0.557        0.112       94.303       11.798        0.016      334.766        4.955      862.153
03/20/2014  06:03:00      -93.296      -26.601       -0.541       35.120       28.920       20.728     1233.399      836.380      429.637        0.596        0.125       97.014       17.705        0.033      334.642        4.749      862.174
03/20/2014  06:04:00     -123.715      -13.776       -9.475       23.821       23.417       16.831      567.449      548.357      283.270        0.849        0.070      124.479       13.364        0.012      334.426        4.391      862.195
03/20/2014  06:05:00     -100.428      -42.784       -4.780       15.849       14.202        9.712      251.178      201.684       94.325        0.624        0.027      109.162        6.488        0.004      334.607        4.691      862.195
03/20/2014  06:06:00      -78.858      -39.189       -3.738       23.307       15.119       14.075      543.235      228.573      198.111        0.437        0.048       88.059       12.438        0.020      334.678        4.809      862.186
03/20/2014  06:07:00      -37.521      -39.094        3.431       40.338       21.287       16.723     1627.179      453.117      279.650        0.265        0.118       54.187       14.977        0.076      334.715        4.869      862.174
03/20/2014  06:08:00      -36.442      -26.937        0.139       24.809       15.577       16.866      615.495      242.648      284.470        0.160        0.057       45.316        6.089        0.018      334.684        4.819      862.158
03/20/2014  06:09:00      -34.245      -36.913        4.644       30.082       24.459       16.720      904.905      598.263      279.554        0.217        0.089       50.351       18.264        0.132      334.783        4.983      862.149
03/20/2014  06:10:00      -61.258      -52.335       -1.044       20.072       16.579       11.573      402.894      274.861      133.933        0.365        0.041       80.569        5.031        0.004      334.859        5.108      862.149
03/20/2014  06:11:00      -97.101      -43.400        0.054       39.605       24.310       17.110     1568.562      590.970      292.748        0.688        0.123      106.359       20.277        0.036      334.714        4.870      862.154
03/20/2014  06:12:00     -141.115      -40.480       -5.630       21.698       24.932       16.402      470.784      621.622      269.017        1.147        0.068      146.806        9.965        0.005      334.491        4.499      862.163
03/20/2014  06:13:00     -112.671      -15.761       -8.128       28.915       33.352       18.838      836.099     1112.380      354.878        0.766        0.115      113.768       13.162        0.013      334.350        4.265      862.169
03/20/2014  06:14:00      -85.318      -38.784       -7.289       20.585       15.683        9.157      423.744      245.954       83.853        0.479        0.038       93.719        5.787        0.004      334.520        4.547      862.175
03/20/2014  06:15:00       -0.199      -22.565        1.982       24.405       11.916       12.271      595.588      141.995      150.581        0.070        0.044       22.566        7.934        0.124      334.615        4.704      862.174
03/20/2014  06:16:00       -1.576       -8.096       -8.512       12.842       11.625       10.203      164.914      135.149      104.096        0.027        0.020        8.248        8.455        1.051      334.657        4.774      862.174
03/20/2014  06:17:00      -33.686      -15.620       -5.476        9.390       11.193        7.678       88.175      125.278       58.957        0.084        0.014       37.131        6.181        0.028      334.665        4.788      862.187
03/20/2014  06:18:00     -101.357      -18.097      -11.133       27.618       16.059       12.605      762.731      257.889      158.876        0.595        0.059      102.960       14.615        0.020      334.616        4.706      862.210
03/20/2014  06:19:00     -104.266      -34.788      -12.409       23.754       28.028       16.837      564.256      785.577      283.500        0.693        0.082      109.916       13.543        0.015      334.484        4.487      862.234
03/20/2014  06:20:00      -30.387      -30.740        3.951       37.737       20.276       12.006     1424.087      411.116      144.138        0.193        0.099       43.224       10.150        0.055      334.401        4.350      862.243
03/20/2014  06:21:00       38.567       23.865       17.744       31.433       25.554       22.438      988.030      653.029      503.458        0.226        0.107       45.353       24.671        0.296      334.466        4.457      862.238
03/20/2014  06:22:00       54.991       56.231       48.655       41.203       30.855       33.266     1697.728      952.002     1106.643        0.615        0.188       78.651       30.152        0.147      334.570        4.630      862.219
03/20/2014  06:23:00       -1.877       62.669       70.890       16.941       25.549       17.980      287.000      652.772      323.268        0.511        0.063       62.697       16.137        0.066      334.621        4.714      862.211
03/20/2014  06:24:00      -25.266       12.742       18.479       24.847       20.784       24.675      617.368      431.974      608.852        0.140        0.083       28.297       21.845        0.596      334.658        4.777      862.229
03/20/2014  06:25:00      -91.577       18.007       -6.188       34.917       23.782       15.062     1219.172      565.563      226.850        0.538        0.101       93.331       12.966        0.019      334.425        4.390      862.262
03/20/2014  06:26:00      -87.981      -12.059       -3.707       44.937       38.896       19.597     2019.356     1512.884      384.035        0.591        0.196       88.803       19.821        0.050      334.194        4.006      862.281
03/20/2014  06:27:00      -55.432       12.401       -0.458       35.944       29.391       19.525     1291.944      863.842      381.218        0.288        0.127       56.802       15.860        0.078      334.170        3.967      862.297
03/20/2014  06:28:00      -11.641      -24.509       -1.116       18.753       17.476       11.284      351.689      305.420      127.324        0.076        0.039       27.133        7.172        0.070      334.379        4.312      862.283
03/20/2014  06:29:00       17.815       15.096       15.017       19.299       21.086       10.830      372.457      444.600      117.296        0.085        0.047       23.351       11.425        0.239      334.434        4.404      862.255
03/20/2014  06:30:00      -14.271       17.732        0.007       31.705        8.267        8.242     1005.199       68.338       67.938        0.083        0.057       22.762       12.412        0.297      334.488        4.494      862.256
03/20/2014  06:31:00      -57.769       -6.839       -4.725       16.061       17.764       10.103      257.962      315.576      102.077        0.204        0.034       58.173        9.893        0.029      334.553        4.602      862.273
03/20/2014  06:32:00      -47.486      -28.506       -0.593       18.714       17.370       12.667      350.213      301.715      160.455        0.194        0.041       55.385        9.268        0.028      334.530        4.562      862.271
03/20/2014  06:33:00      -40.887        1.167       -1.736        9.971       16.045        8.225       99.430      257.456       67.656        0.105        0.021       40.903        7.377        0.033      334.534        4.571      862.251
03/20/2014  06:34:00       15.135       14.460        5.010       32.954        7.982       10.846     1085.975       63.715      117.634        0.087        0.063       20.932       13.144        0.394      334.555        4.604      862.238
03/20/2014  06:35:00       70.009       31.146        8.797       15.048       21.288       25.030      226.445      453.186      626.502        0.363        0.065       76.624       14.640        0.037      334.503        4.517      862.232
03/20/2014  06:36:00       20.691       46.086       25.400       26.968       21.433       21.662      727.247      459.367      469.254        0.243        0.083       50.517       14.086        0.078      334.338        4.245      862.248
03/20/2014  06:37:00      -12.793       64.341      -16.960       28.744       14.468        9.199      826.216      209.314       84.621        0.286        0.056       65.600        5.606        0.007      334.128        3.897      862.277
03/20/2014  06:38:00      -69.442       31.961       -3.971       28.122       20.420       16.341      790.829      416.969      267.042        0.367        0.074       76.444        7.948        0.011      334.238        4.077      862.314
03/20/2014  06:39:00      -44.746        5.600       -3.218       31.843       12.248       10.774     1013.946      150.007      116.075        0.166        0.064       45.095       14.099        0.098      334.197        4.012      862.346
03/20/2014  06:40:00       -3.141      -12.161       -0.792       10.173        9.402       12.402      103.487       88.390      153.815        0.025        0.017       12.560        4.222        0.113      334.273        4.137      862.354
03/20/2014  06:41:00       -1.513        0.477        7.965       16.264       28.002       23.657      264.519      784.096      559.673        0.084        0.080        1.586       24.674      241.979      334.294        4.172      862.343
03/20/2014  06:42:00       15.719       41.050       47.753       20.743       22.066       13.364      430.291      486.929      178.600        0.265        0.055       43.956       10.457        0.057      334.112        3.870      862.327
03/20/2014  06:43:00       51.126       34.301       24.523       27.062       14.456       21.585      732.335      208.976      465.919        0.290        0.070       61.566       20.234        0.108      334.085        3.825      862.321
03/20/2014  06:44:00       40.555       26.989        1.227       14.722        7.921        5.140      216.739       62.744       26.424        0.134        0.015       48.715        1.853        0.001      334.088        3.829      862.343
03/20/2014  06:45:00       27.499       23.212       -7.793        8.300        8.989        5.755       68.888       80.797       33.119        0.077        0.009       35.986        3.181        0.008      334.196        4.008      862.350
03/20/2014  06:46:00        5.031        1.046       -1.896        3.756        3.191        3.502       14.105       10.186       12.263        0.003        0.002        5.138        1.480        0.083      334.279        4.148      862.345
03/20/2014  06:47:00       -0.702       -8.026        9.383       14.650       11.239       12.392      214.626      126.321      153.572        0.032        0.025        8.056       10.795        1.795      334.370        4.300      862.330
03/20/2014  06:48:00       12.066       -2.676        9.523       12.940       25.107       14.399      167.432      630.370      207.336        0.062        0.050       12.359       14.517        1.380      334.373        4.304      862.314
03/20/2014  06:49:00       48.492       33.020       19.638       11.943       10.119       13.507      142.629      102.388      182.451        0.213        0.021       58.666        9.594        0.027      334.251        4.102      862.308
03/20/2014  06:50:00       58.381       27.014        1.568       14.008       10.789       10.190      196.232      116.411      103.830        0.228        0.021       64.328        2.079        0.001      334.291        4.169      862.312
03/20/2014  06:51:00       17.549       18.515       10.716       16.157        9.468        8.474      261.048       89.634       71.802        0.059        0.021       25.510        6.354        0.062      334.228        4.062      862.308
03/20/2014  06:52:00        3.688       -1.370        1.621        7.960       17.743        9.536       63.361      314.829       90.931        0.024        0.023        3.935       10.231        6.761      334.360        4.283      862.306
03/20/2014  06:53:00       46.381       28.598       14.717       24.010        9.200       11.495      576.493       84.635      132.142        0.199        0.040       54.489        9.889        0.033      334.306        4.193      862.305
03/20/2014  06:54:00       79.650       44.672        4.337       18.083       14.289       11.683      326.997      204.169      136.491        0.451        0.033       91.322        9.466        0.011      334.304        4.189      862.302
03/20/2014  06:55:00       30.110       19.349       23.540       35.409       29.407       22.383     1253.781      864.748      501.011        0.223        0.131       35.791       13.006        0.132      334.284        4.155      862.305
03/20/2014  06:56:00       16.141       33.000       31.374       19.334       14.561       13.306      373.817      212.028      177.041        0.155        0.038       36.736        3.397        0.009      334.271        4.134      862.314
03/20/2014  06:57:00       52.961       39.586       11.327       14.062       14.610       14.842      197.729      213.452      220.273        0.257        0.032       66.120        7.408        0.013      334.232        4.070      862.304
03/20/2014  06:58:00       68.501       50.099       10.027       21.560       17.774       17.126      464.845      315.921      293.302        0.419        0.054       84.867       12.897        0.023      334.119        3.881      862.283
03/20/2014  06:59:00       99.931       65.575       -2.788       22.721       17.641       14.869      516.225      311.217      221.098        0.767        0.052      119.525        4.066        0.001      334.145        3.924      862.276
03/20/2014  07:00:00       56.594       18.616        4.124       22.766       20.177       17.340      518.303      407.092      300.685        0.240        0.061       59.577       15.841        0.071      334.178        3.978      862.282
03/20/2014  07:01:00       41.753       11.286        1.374       16.198       11.724       10.580      262.384      137.454      111.932        0.119        0.026       43.251        9.210        0.045      334.203        4.021      862.295
03/20/2014  07:02:00       36.252       38.250        0.806        7.819       15.399        5.266       61.136      237.115       27.736        0.155        0.016       52.700        5.166        0.010      334.210        4.033      862.309
03/20/2014  07:03:00       13.144       78.712       -7.024       27.053       12.297        7.413      731.857      151.206       54.952        0.368        0.047       79.802        5.012        0.004      334.274        4.139      862.308
03/20/2014  07:04:00      -24.192       42.996        1.878       39.138       32.556       19.878     1531.801     1059.861      395.144        0.271        0.149       49.335       14.284        0.084      334.227        4.062      862.309
03/20/2014  07:05:00      -11.692       60.615      -10.455       27.079       24.873       15.292      733.254      618.670      233.846        0.275        0.079       61.732       10.838        0.031      334.150        3.933      862.330
03/20/2014  07:06:00       12.917       62.978      -15.315       11.433       21.924        8.530      130.724      480.667       72.768        0.253        0.034       64.289        9.609        0.022      334.204        4.021      862.344
03/20/2014  07:07:00       61.980       55.679       -3.613       30.122       25.412       11.798      907.337      645.752      139.203        0.432        0.085       83.317        9.293        0.012      334.205        4.025      862.350
03/20/2014  07:08:00      126.217       77.315       24.637       25.872       19.745       23.214      669.363      389.848      538.869        1.206        0.080      148.014       13.008        0.008      334.233        4.071      862.334
03/20/2014  07:09:00       65.160       59.428       39.705       38.188       28.824       33.531     1458.354      830.806     1124.329        0.638        0.171       88.190       25.414        0.083      334.249        4.097      862.346
03/20/2014  07:10:00       25.244       19.526       23.081       15.100       17.590       17.835      228.018      309.425      318.083        0.120        0.043       31.914       14.019        0.193      334.215        4.041      862.374
03/20/2014  07:11:00        7.648       42.480       -6.729       14.774       19.035       10.098      218.271      362.333      101.979        0.130        0.034       43.163       10.355        0.058      334.161        3.950      862.404
03/20/2014  07:12:00       -2.086      103.229      -14.441       12.474       21.665       10.322      155.607      469.373      106.548        0.580        0.037      103.250        6.589        0.004      334.269        4.131      862.428
03/20/2014  07:13:00        8.646      127.096      -20.214       16.409       17.497        9.437      269.266      306.151       89.058        0.865        0.033      127.390        9.302        0.005      334.165        3.956      862.426
03/20/2014  07:14:00       10.258      108.292      -14.186       17.775       17.471       12.346      315.940      305.241      152.425        0.640        0.039      108.776       10.772        0.010      334.170        3.965      862.416
03/20/2014  07:15:00       27.667       66.484        2.881       27.062       33.670       21.444      732.344     1133.646      459.835        0.376        0.116       72.011       20.918        0.084      334.158        3.946      862.406
03/20/2014  07:16:00       32.952       46.995       -0.678       27.082       31.792       21.153      733.446     1010.741      447.466        0.274        0.110       57.397       17.576        0.094      334.155        3.941      862.386
03/20/2014  07:17:00       22.500       64.832       -6.824       20.140       29.016       14.152      405.631      841.933      200.267        0.310        0.072       68.625       14.587        0.045      334.199        4.015      862.379
03/20/2014  07:18:00      -14.896       49.134       -5.100       17.350       29.073       13.724      301.033      845.227      188.344        0.200        0.067       51.342       12.229        0.057      334.278        4.145      862.375
03/20/2014  07:19:00       -7.294       10.590        3.747       17.537        9.053        9.646      307.557       81.955       93.050        0.033        0.024       12.859        6.291        0.239      334.210        4.033      862.372
03/20/2014  07:20:00       20.326       37.762        1.335       14.774       26.165       13.434      218.282      684.597      180.476        0.146        0.054       42.885       12.059        0.079      334.309        4.199      862.355
03/20/2014  07:21:00       31.307       42.649       -2.321       17.939       32.187       18.858      321.809     1036.013      355.619        0.226        0.086       52.906       18.165        0.118      334.269        4.131      862.349
03/20/2014  07:22:00       19.509       26.612       -4.179       12.768       20.524       13.687      163.022      421.243      187.323        0.094        0.039       32.997       13.594        0.170      334.243        4.085      862.343
03/20/2014  07:23:00        9.179       10.430       -5.526       13.224        9.536        4.636      174.886       90.938       21.494        0.026        0.014       13.894        3.960        0.081      334.297        4.176      862.335
03/20/2014  07:24:00      -19.138        0.554       -7.876       12.431        5.237        4.996      154.535       27.430       24.957        0.032        0.010       19.146        0.909        0.002      334.312        4.205      862.340
03/20/2014  07:25:00      -27.572       -2.664        1.453        8.443       11.734        7.498       71.276      137.683       56.219        0.052        0.013       27.700        4.436        0.026      334.350        4.265      862.346
03/20/2014  07:26:00       -7.300        5.968        0.367        9.946        6.639        4.359       98.924       44.074       19.001        0.013        0.008        9.429        2.748        0.085      334.528        4.559      862.355
03/20/2014  07:27:00      -25.612       -4.030       -7.921       18.767       10.517        8.260      352.205      110.617       68.235        0.063        0.027       25.927        7.827        0.091      334.533        4.568      862.361
03/20/2014  07:28:00      -54.672      -18.258       -3.021       11.123       11.844       10.512      123.711      140.287      110.510        0.185        0.019       57.640        8.740        0.023      334.474        4.472      862.387
03/20/2014  07:29:00      -97.835       -1.521      -10.733       23.019       13.839       13.713      529.856      191.520      188.038        0.530        0.045       97.846       12.851        0.017      334.218        4.047      862.401
03/20/2014  07:30:00      -88.736      -17.306      -14.291       10.239        9.465        7.120      104.841       89.595       50.700        0.431        0.012       90.408        2.123        0.001      334.275        4.141      862.409
03/20/2014  07:31:00      -78.201       -1.987      -10.808       14.847       14.582       11.883      220.421      212.648      141.211        0.341        0.029       78.226        8.414        0.012      334.244        4.089      862.409
03/20/2014  07:32:00      -87.885       -8.113      -11.847       15.874        9.730       10.051      251.995       94.679      101.030        0.419        0.022       88.259        7.662        0.008      334.195        4.008      862.410
03/20/2014  07:33:00      -90.047       -5.648       -9.210       17.521       13.335       13.928      306.976      177.829      193.997        0.445        0.034       90.224       11.020        0.015      334.258        4.113      862.422
03/20/2014  07:34:00      -71.769      -25.236       -4.474       15.704       18.631       10.101      246.614      347.107      102.021        0.325        0.035       76.076        6.549        0.007      334.369        4.296      862.428
03/20/2014  07:35:00      -77.335      -18.928       -9.914       15.699       20.410       11.543      246.469      416.564      133.235        0.362        0.040       79.617        6.370        0.006      334.336        4.241      862.428
03/20/2014  07:36:00     -103.060       -0.284      -14.863       20.346       17.824       14.780      413.953      317.685      218.455        0.590        0.048      103.061       12.885        0.016      334.317        4.209      862.421
03/20/2014  07:37:00      -76.608       -5.172       -5.405       27.933       29.810       17.093      780.250      888.630      292.179        0.394        0.098       76.783       12.772        0.028      334.306        4.192      862.428
03/20/2014  07:38:00      -98.851      -47.397       -4.431       29.301       23.599       17.371      858.560      556.905      301.765        0.688        0.086      109.627        6.650        0.004      334.313        4.204      862.447
03/20/2014  07:39:00      -48.371      -34.927       17.038       77.125       35.140       27.719     5948.328     1234.797      768.329        0.590        0.398       59.663       39.014        0.428      334.420        4.382      862.479
03/20/2014  07:40:00     -106.567      -48.467        4.265       56.494       29.150       22.024     3191.600      849.750      485.069        0.912        0.226      117.071       25.472        0.047      334.372        4.301      862.505
03/20/2014  07:41:00      -75.173      -40.165        3.538       38.012       24.611       18.395     1444.889      605.677      338.391        0.483        0.119       85.231       16.502        0.037      334.409        4.363      862.488
03/20/2014  07:42:00     -124.596        0.748      -21.532       19.062       21.026       19.758      363.342      442.104      390.392        0.859        0.060      124.598       13.481        0.012      334.392        4.336      862.467
03/20/2014  07:43:00     -128.700      -31.614       -9.256       26.210       21.503       15.992      686.958      462.388      255.734        0.953        0.070      132.526       11.962        0.008      334.363        4.288      862.462
03/20/2014  07:44:00     -139.988      -46.718      -11.994       27.793       28.028       17.418      772.452      785.578      303.382        1.189        0.093      147.578       10.476        0.005      334.416        4.374      862.447
03/20/2014  07:45:00     -119.916      -16.733      -12.981       38.336       37.421       21.751     1469.684     1400.360      473.124        0.909        0.167      121.078       18.632        0.024      334.389        4.331      862.429
03/20/2014  07:46:00     -135.407       40.724       -8.743       31.074       24.289       20.366      965.601      589.953      414.787        1.102        0.099      141.398       12.665        0.008      334.477        4.474      862.412
03/20/2014  07:47:00     -119.448       30.684       -3.949       26.242       20.161       14.371      688.618      406.471      206.535        0.826        0.065      123.326       10.093        0.007      334.592        4.667      862.406
03/20/2014  07:48:00      -34.362      -18.167        0.356       39.346       29.635       14.104     1548.113      878.219      198.915        0.207        0.131       38.869       15.922        0.168      334.640        4.746      862.416
03/20/2014  07:49:00      -37.428      -48.557       13.249       57.047       30.049       28.615     3254.339      902.935      818.793        0.445        0.249       61.308       17.678        0.083      334.666        4.790      862.444
03/20/2014  07:50:00      -72.834      -76.097       -7.005       31.596       44.107       20.714      998.280     1945.403      429.076        0.726        0.169      105.335       22.001        0.044      334.647        4.757      862.476
03/20/2014  07:51:00      -39.106      -30.064        6.211       43.188       29.610       19.468     1865.235      876.743      379.022        0.280        0.156       49.327       21.212        0.185      334.750        4.929      862.466
03/20/2014  07:52:00      -84.125      -38.561       -1.838       29.834       23.020       18.908      890.074      529.914      357.513        0.517        0.089       92.542       13.382        0.021      334.747        4.924      862.437
03/20/2014  07:53:00      -78.762      -48.024        5.190       36.336       25.586       16.142     1320.340      654.641      260.579        0.539        0.112       92.248       20.228        0.048      334.657        4.773      862.433
03/20/2014  07:54:00      -40.340      -33.145        2.716       31.964       22.570       13.817     1021.710      509.424      190.899        0.223        0.086       52.210       16.419        0.099      334.738        4.910      862.447
03/20/2014  07:55:00      -15.424      -10.435        5.196       19.513        7.748        6.687      380.759       60.030       44.711        0.043        0.024       18.623        3.241        0.030      334.762        4.950      862.466
03/20/2014  07:56:00       12.524       14.894       20.039       16.645       10.112        9.653      277.040      102.254       93.184        0.063        0.024       19.460        9.470        0.237      334.845        5.086      862.473
03/20/2014  07:57:00      -21.331        1.122       12.862       14.582       19.978       11.877      212.633      399.125      141.056        0.069        0.038       21.360       14.647        0.470      334.870        5.127      862.477
03/20/2014  07:58:00      -29.268       11.065       -1.939       15.514       15.517        9.779      240.677      240.779       95.632        0.078        0.029       31.289        9.164        0.086      334.952        5.261      862.474
03/20/2014  07:59:00        2.009       13.819        9.930        5.617       13.471        6.769       31.552      181.479       45.822        0.028        0.013       13.965        5.819        0.174      334.907        5.192      862.471
03/20/2014  08:00:00       15.617       52.810       -9.156       14.723       14.630        9.481      216.779      214.029       89.881        0.182        0.026       55.071        6.388        0.013      334.833        5.068      862.458
03/20/2014  08:01:00        0.198       76.840      -13.042       13.638       12.342        8.978      186.005      152.329       80.610        0.325        0.021       76.840        7.204        0.009      334.827        5.058      862.452
03/20/2014  08:02:00       13.262       79.004      -10.300       13.825       12.779        6.855      191.138      163.309       46.986        0.346        0.020       80.109        5.650        0.005      334.774        4.969      862.441
03/20/2014  08:03:00       -2.454       63.995       -5.283       12.476       17.953       13.869      155.645      322.292      192.341        0.240        0.034       64.042       11.328        0.031      334.841        5.081      862.449
03/20/2014  08:04:00      -32.562       10.429        0.218       14.048       15.371       13.474      197.341      236.264      181.553        0.089        0.031       34.191        9.607        0.079      334.860        5.113      862.473
03/20/2014  08:05:00      -22.161        2.457       -3.635       16.171        7.715        6.917      261.508       59.528       47.848        0.044        0.018       22.297        5.320        0.057      334.903        5.184      862.480
03/20/2014  08:06:00       -2.960        0.294        8.463        5.308        6.917        7.310       28.180       47.846       53.440        0.010        0.006        2.975        3.549        1.423      335.161        5.611      862.483
03/20/2014  08:07:00      -13.169        9.039        3.010       15.818       12.053       10.891      250.214      145.269      118.617        0.039        0.026       15.973       11.757        0.542      335.076        5.470      862.504
03/20/2014  08:08:00      -24.087       10.797       10.158       14.779       11.795        8.904      218.415      139.122       79.286        0.062        0.022       26.396        6.464        0.060      335.029        5.393      862.503
03/20/2014  08:09:00        9.378        8.614       12.389       10.697        9.007       12.551      114.430       81.125      157.522        0.033        0.018       12.734        8.369        0.432      335.099        5.508      862.497
03/20/2014  08:10:00        4.357        0.828        0.607        7.605        5.681        5.937       57.833       32.279       35.244        0.007        0.006        4.435        3.185        0.516      335.099        5.508      862.485
03/20/2014  08:11:00       11.345        5.813        6.875        9.481        8.264        9.286       89.889       68.291       86.232        0.023        0.012       12.748        7.812        0.376      335.148        5.589      862.477
03/20/2014  08:12:00       -5.493       12.368        6.215       10.980        6.224        4.530      120.568       38.743       20.521        0.020        0.009       13.533        4.261        0.099      335.100        5.510      862.487
03/20/2014  08:13:00      -26.127        0.753       -3.234       14.858       10.244        4.970      220.774      104.945       24.697        0.052        0.018       26.138        1.214        0.002      335.145        5.586      862.493
03/20/2014  08:14:00      -54.041      -13.937       -4.580       14.232       15.973        9.472      202.538      255.151       89.723        0.184        0.027       55.809       10.174        0.033      335.136        5.571      862.508
03/20/2014  08:15:00      -51.513       -5.448       -6.596       19.052       16.682       11.704      362.998      278.274      136.992        0.175        0.039       51.800        6.594        0.016      335.176        5.634      862.514
03/20/2014  08:16:00      -93.904       -9.847       -9.934       16.297       19.814       13.094      265.605      392.582      171.448        0.492        0.041       94.419        8.696        0.008      335.143        5.582      862.524
03/20/2014  08:17:00      -46.095       -9.620       -2.085       25.545       11.728       14.788      652.549      137.545      218.681        0.162        0.050       47.088       16.395        0.121      335.157        5.604      862.513
03/20/2014  08:18:00      -68.256      -33.400       -5.280       10.962       20.792       12.943      120.160      432.326      167.521        0.326        0.036       75.990        4.942        0.004      335.250        5.756      862.516
03/20/2014  08:19:00      -70.787      -34.851       -6.065       20.414       18.268       13.214      416.714      333.722      174.612        0.359        0.046       78.901        8.761        0.012      335.294        5.830      862.524
03/20/2014  08:20:00     -102.530      -47.772       -7.907       40.232       17.656       12.610     1618.602      311.724      159.008        0.747        0.104      113.114       14.224        0.016      335.267        5.786      862.512
03/20/2014  08:21:00     -102.580      -19.080       -3.689       26.463       25.350       15.400      700.272      642.625      237.175        0.624        0.079      104.339       15.376        0.022      335.296        5.834      862.501
03/20/2014  08:22:00      -90.812      -27.181       -1.246       26.296       29.027       17.867      691.478      842.573      319.246        0.542        0.093       94.793       14.467        0.023      335.360        5.940      862.497
03/20/2014  08:23:00      -33.697      -37.423        5.902       39.988       34.056       23.329     1599.028     1159.797      544.262        0.294        0.165       50.359       23.919        0.226      335.471        6.126      862.499
03/20/2014  08:24:00      -20.167      -21.140        8.046       49.248       24.792       25.297     2425.334      614.658      639.947        0.230        0.184       29.217       25.309        0.750      335.509        6.190      862.494
03/20/2014  08:25:00      -30.014      -28.406        7.855       36.702       18.914       24.090     1347.070      357.749      580.349        0.203        0.114       41.325       23.124        0.313      335.503        6.181      862.494
03/20/2014  08:26:00      -51.117      -14.458        2.943       31.956       29.538       15.662     1021.157      872.499      245.285        0.248        0.107       53.122       15.890        0.089      335.566        6.284      862.488
03/20/2014  08:27:00      -87.938       11.668       -7.517       14.384       20.530       11.362      206.895      421.466      129.099        0.434        0.038       88.709        6.777        0.006      335.495        6.167      862.478
03/20/2014  08:28:00      -85.080       -1.145      -13.056       27.835       14.604       15.221      774.762      213.288      231.682        0.431        0.061       85.088       12.146        0.020      335.482        6.144      862.474
03/20/2014  08:29:00      -90.377       11.045      -16.921       32.681       24.653       14.352     1068.036      607.794      205.989        0.523        0.094       91.050       12.758        0.020      335.484        6.148      862.467
03/20/2014  08:30:00     -111.215       -1.895      -16.782       20.284       11.646       12.489      411.457      135.622      155.986        0.668        0.035      111.231        8.888        0.006      335.574        6.299      862.463
03/20/2014  08:31:00     -102.462      -23.293      -16.476       13.885       12.039        9.224      192.798      144.943       85.081        0.587        0.021      105.076        4.736        0.002      335.627        6.389      862.456
03/20/2014  08:32:00      -73.440       -2.049       -5.662       22.494       22.666       13.469      505.970      513.736      181.419        0.332        0.060       73.469       13.249        0.033      335.689        6.491      862.444
03/20/2014  08:33:00      -85.775       -3.507       -5.612       14.508       18.171       11.635      210.471      330.179      135.364        0.404        0.034       85.846       10.740        0.016      335.744        6.582      862.455
03/20/2014  08:34:00      -97.962      -31.630       -8.640       19.132       21.094       12.030      366.045      444.954      144.720        0.581        0.048      102.942        9.420        0.008      335.810        6.693      862.471
03/20/2014  08:35:00      -95.834      -29.023       -4.671       22.904       21.394       15.408      524.601      457.703      237.419        0.563        0.061      100.133       12.701        0.016      335.872        6.795      862.481
03/20/2014  08:36:00      -55.679      -19.342       -3.833       25.689       14.037       13.087      659.915      197.032      171.264        0.226        0.051       58.943        8.396        0.020      335.949        6.922      862.476
03/20/2014  08:37:00      -15.085        6.992        2.626       15.899       16.315       12.736      252.771      266.173      162.202        0.048        0.034       16.627        9.078        0.298      336.132        7.229      862.475
03/20/2014  08:38:00      -18.848       -4.564        3.031       17.452        7.719       10.687      304.575       59.590      114.215        0.043        0.024       19.392       11.569        0.356      336.158        7.271      862.483
03/20/2014  08:39:00      -24.833      -12.558       -5.844       18.202       11.598        6.360      331.321      134.505       40.445        0.066        0.025       27.828        5.732        0.042      336.220        7.373      862.495
03/20/2014  08:40:00      -24.346      -17.833        9.963       17.567       15.995       13.345      308.604      255.846      178.095        0.088        0.037       30.179       12.279        0.166      336.353        7.597      862.507
03/20/2014  08:41:00        9.106       13.148       21.214       24.449       19.108       22.558      597.729      365.132      508.854        0.109        0.074       15.993       21.071        1.736      336.501        7.846      862.524
03/20/2014  08:42:00        4.757       -0.256       41.166       18.122       30.710       21.211      328.395      943.078      449.922        0.172        0.086        4.764       17.724       13.842      336.585        7.986      862.539
03/20/2014  08:43:00       38.109       25.273       37.736       45.759       45.409       26.151     2093.929     2061.958      683.898        0.418        0.242       45.728       20.508        0.201      336.434        7.732      862.546
03/20/2014  08:44:00       64.497       49.432       34.518       47.849       50.239       40.859     2289.509     2523.963     1669.422        0.714        0.324       81.261       22.345        0.076      336.248        7.422      862.552
03/20/2014  08:45:00      133.917       76.289       15.024       44.830       39.227       36.397     2009.706     1538.756     1324.743        1.443        0.244      154.122       17.821        0.013      336.093        7.163      862.559
03/20/2014  08:46:00      125.057       57.014        7.256       46.538       40.397       33.315     2165.811     1631.892     1109.857        1.192        0.245      137.440       15.160        0.012      336.109        7.191      862.567
03/20/2014  08:47:00      155.654      108.719        5.659       45.882       45.071       37.426     2105.123     2031.440     1400.742        2.081        0.277      189.863       31.709        0.028      335.898        6.836      862.579
03/20/2014  08:48:00      113.368       82.504        2.554       54.370       43.266       29.768     2956.127     1871.926      886.117        1.269        0.286      140.211       29.243        0.043      335.822        6.712      862.596
03/20/2014  08:49:00      108.833       58.437       20.592       39.694       28.359       38.365     1575.601      804.238     1471.840        0.977        0.193      123.529       27.674        0.050      335.901        6.843      862.609
03/20/2014  08:50:00       84.770       59.075       33.305       49.001       26.530       32.493     2401.091      703.819     1055.818        0.797        0.208      103.324       25.203        0.059      335.977        6.970      862.620
03/20/2014  08:51:00      143.882       73.315       22.824       38.912       23.102       27.237     1514.117      533.687      741.840        1.469        0.139      161.484       16.474        0.010      335.887        6.820      862.613
03/20/2014  08:52:00       99.664       48.629        9.257       65.751       41.002       35.305     4323.195     1681.194     1246.439        0.982        0.363      110.895       35.359        0.102      336.114        7.198      862.605
03/20/2014  08:53:00      113.193       82.582        5.317       49.425       41.478       34.458     2442.848     1720.432     1187.326        1.250        0.268      140.116       27.761        0.039      336.126        7.219      862.592
03/20/2014  08:54:00       78.846       68.324       18.599       45.903       25.612       31.281     2107.057      656.000      978.520        0.749        0.187      104.330       16.791        0.026      336.197        7.337      862.593
03/20/2014  08:55:00       45.171       59.965       64.605       47.516       45.435       37.050     2257.795     2064.375     1372.689        0.775        0.285       75.074       35.347        0.222      336.179        7.308      862.616
03/20/2014  08:56:00       -8.764       66.895       88.111       27.146       45.976       27.590      736.898     2113.794      761.219        0.796        0.181       67.467       22.138        0.108      336.328        7.556      862.618
03/20/2014  08:57:00      120.430       89.942       23.109       61.656       33.023       44.255     3801.495     1090.500     1958.495        1.499        0.343      150.310       31.256        0.043      335.981        6.976      862.607
03/20/2014  08:58:00       67.344       80.712        6.130       53.368       37.512       34.436     2848.120     1407.163     1185.852        0.826        0.272      105.117       26.669        0.064      336.037        7.069      862.603
03/20/2014  08:59:00       98.313       62.660       19.679       64.242       44.957       27.387     4127.072     2021.092      750.039        1.044        0.345      116.583       25.913        0.049      336.325        7.551      862.597
03/20/2014  09:00:00       85.090       77.452       13.451       23.451       24.369       33.524      549.956      593.867     1123.891        0.784        0.113      115.062       11.835        0.011      336.177        7.303      862.614
03/20/2014  09:01:00       86.138       57.574        6.649       29.965       20.071       32.031      897.910      402.831     1026.008        0.655        0.116      103.607       14.650        0.020      336.145        7.249      862.625
03/20/2014  09:02:00       64.321       21.254       -2.741       30.837       20.156       19.510      950.921      406.275      380.633        0.317        0.087       67.742       13.364        0.039      336.085        7.149      862.645
03/20/2014  09:03:00       63.741       44.362       12.251       14.171       18.100       19.883      200.805      327.619      395.337        0.355        0.046       77.659        8.557        0.012      336.077        7.137      862.639
03/20/2014  09:04:00       34.264       25.625       -5.922       29.181       11.737       11.734      851.554      137.765      137.698        0.150        0.056       42.786       11.972        0.078      336.117        7.202      862.631
03/20/2014  09:05:00      -13.086       12.789       -4.990       19.939       19.347       16.274      397.549      374.315      264.838        0.070        0.052       18.298       13.812        0.570      336.334        7.566      862.607
03/20/2014  09:06:00        0.519       16.769       12.698       21.958       18.132       12.054      482.172      328.751      145.291        0.070        0.048       16.777        8.775        0.274      336.549        7.928      862.585
03/20/2014  09:07:00      -36.729       17.334        3.048       20.110       10.658       13.065      404.423      113.597      170.691        0.117        0.034       40.613        9.062        0.050      336.378        7.639      862.578
03/20/2014  09:08:00      -35.246       11.449       -0.043       19.403       17.709       17.303      376.475      313.602      299.392        0.118        0.049       37.059       13.554        0.134      336.434        7.733      862.573
03/20/2014  09:09:00      -67.137       -4.360       -8.657       10.395       12.304        9.101      108.052      151.381       82.822        0.247        0.017       67.278        6.538        0.009      336.275        7.468      862.554
03/20/2014  09:10:00      -76.976      -12.774       -3.785       17.780       15.732       11.417      316.145      247.502      130.341        0.340        0.035       78.029        7.317        0.009      336.318        7.540      862.545
03/20/2014  09:11:00      -31.775      -20.291       10.141       39.726       23.929       18.563     1578.153      572.594      344.574        0.201        0.125       37.701       19.450        0.266      336.518        7.874      862.547
03/20/2014  09:12:00      -62.260      -60.946        8.624       63.065       53.924       29.015     3977.199     2907.760      841.863        0.769        0.386       87.124       33.055        0.144      336.548        7.923      862.551
03/20/2014  09:13:00      -96.586      -57.001        1.318       71.419       53.036       28.246     5100.706     2812.770      797.827        1.064        0.436      112.151       33.477        0.089      336.587        7.987      862.546
03/20/2014  09:14:00      -95.350      -83.182        6.994       62.679       50.563       30.212     3928.701     2556.599      912.777        1.173        0.370      126.535       30.811        0.059      336.515        7.868      862.545
03/20/2014  09:15:00      -89.512     -119.866        0.316       41.104       49.007       29.181     1689.508     2401.680      851.535        1.366        0.247      149.600       26.075        0.030      336.421        7.711      862.552
03/20/2014  09:16:00      -93.689     -128.740       -8.436       39.629       44.431       22.913     1570.458     1974.120      524.983        1.475        0.203      159.222       26.057        0.027      336.433        7.733      862.537
03/20/2014  09:17:00      -80.898      -97.903       -4.111       35.341       31.579       24.574     1248.987      997.250      603.903        0.950        0.143      127.002       17.615        0.019      336.470        7.793      862.534
03/20/2014  09:18:00     -101.036     -104.541      -10.288       34.693       20.594       17.058     1203.630      424.099      290.984        1.158        0.096      145.386       12.930        0.008      336.500        7.845      862.524
03/20/2014  09:19:00      -82.316      -70.878        0.808       42.109       58.203       26.224     1773.171     3387.583      687.705        0.882        0.292      108.626       29.177        0.072      336.686        8.155      862.508
03/20/2014  09:20:00     -109.491      -89.323      -11.114       44.493       45.576       23.183     1979.602     2077.182      537.467        1.234        0.230      141.304       23.364        0.027      336.688        8.159      862.499
03/20/2014  09:21:00     -112.573      -83.233       -6.654       41.684       40.159       23.273     1737.525     1612.727      541.623        1.177        0.195      140.002       20.970        0.022      336.707        8.191      862.503
03/20/2014  09:22:00      -95.697      -78.882       -2.829       40.683       39.680       25.450     1655.072     1574.536      647.686        0.963        0.194      124.017       20.007        0.026      336.763        8.285      862.498
03/20/2014  09:23:00      -98.968     -121.664        0.795       52.670       52.289       31.231     2774.178     2734.154      975.356        1.554        0.324      156.833       35.036        0.050      336.753        8.266      862.504
03/20/2014  09:24:00      -99.321     -119.944       -6.000       37.817       39.415       23.778     1430.130     1553.512      565.380        1.392        0.177      155.728       18.733        0.014      336.745        8.253      862.507
03/20/2014  09:25:00      -60.667     -127.763       -1.707       28.906       33.125       22.838      835.531     1097.234      521.552        1.123        0.123      141.435       20.975        0.022      336.752        8.266      862.513
03/20/2014  09:26:00      -64.763      -52.034       -0.077       41.493       31.532       21.132     1721.657      994.239      446.552        0.503        0.158       83.077       24.945        0.090      336.882        8.483      862.505
03/20/2014  09:27:00      -57.030      -89.042       -1.864       30.799       37.619       19.477      948.588     1415.197      379.335        0.696        0.137      105.740       18.586        0.031      336.837        8.408      862.499
03/20/2014  09:28:00      -60.506      -30.021        4.619       38.399       21.189       20.720     1474.465      448.956      429.333        0.347        0.118       67.544       22.662        0.113      336.944        8.585      862.511
03/20/2014  09:29:00      -87.392       12.344       -7.288       30.360       30.558       18.412      921.706      933.798      338.987        0.502        0.110       88.259       16.083        0.033      336.880        8.478      862.513
03/20/2014  09:30:00      -57.137       22.903       -3.719       26.534       36.551       15.903      704.064     1335.958      252.900        0.305        0.115       61.556       13.615        0.049      337.045        8.753      862.508
03/20/2014  09:31:00       -8.005      -17.736        1.112       37.119       24.963       21.330     1377.857      623.167      454.985        0.142        0.123       19.458       13.825        0.505      337.243        9.085      862.508
03/20/2014  09:32:00      -52.629      -26.994       -0.923       41.351       20.451       12.854     1709.917      418.263      165.238        0.290        0.115       59.148       19.682        0.111      337.214        9.036      862.513
03/20/2014  09:33:00      -13.006      -15.981       13.510       36.243       34.441       26.789     1313.568     1186.155      717.652        0.191        0.161       20.605       21.473        1.086      337.448        9.430      862.486
03/20/2014  09:34:00     -102.772      -59.338        7.587       52.386       37.302       30.952     2744.330     1391.407      958.026        0.962        0.255      118.672       29.649        0.062      337.034        8.735      862.478
03/20/2014  09:35:00      -92.291      -77.876      -12.447       40.006       22.435       17.257     1600.460      503.326      297.792        0.857        0.120      120.757       20.867        0.030      336.937        8.573      862.460
03/20/2014  09:36:00     -145.985     -107.109        0.048       71.951       61.400       34.239     5176.964     3769.981     1172.296        2.145        0.506      181.063       37.869        0.044      336.946        8.586      862.450
03/20/2014  09:37:00      -85.264     -117.914      -17.030       48.344       36.122       17.453     2337.102     1304.770      304.601        1.270        0.197      145.512        9.316        0.004      336.943        8.581      862.439
03/20/2014  09:38:00      -37.649      -86.386       -1.226       60.031       44.478       31.574     3603.674     1978.285      996.933        0.773        0.329       94.234       18.161        0.037      337.056        8.771      862.419
03/20/2014  09:39:00     -183.264     -130.943      -18.075       43.486       42.908       29.535     1891.021     1841.107      872.321        2.783        0.230      225.237       24.558        0.012      336.968        8.621      862.421
03/20/2014  09:40:00     -158.787     -119.654       -5.112       68.128       49.913       28.392     4641.443     2491.322      806.130        2.375        0.397      198.823       38.422        0.037      337.082        8.812      862.418
03/20/2014  09:41:00      -86.169     -108.087        4.284       50.915       45.189       31.792     2592.315     2042.013     1010.759        1.238        0.282      138.231       28.400        0.042      337.181        8.981      862.422
03/20/2014  09:42:00      -68.242     -156.613       -1.618       46.862       54.347       27.003     2196.037     2953.621      729.179        1.753        0.294      170.835       27.721        0.026      337.176        8.973      862.419
03/20/2014  09:43:00      -93.014     -226.756       -7.447       47.547       65.589       23.327     2260.695     4301.947      544.132        3.361        0.355      245.092       18.666        0.006      337.071        8.793      862.423
03/20/2014  09:44:00      -86.489     -117.067       -6.921       53.808       53.581       26.820     2895.350     2870.932      719.309        1.386        0.324      145.550       21.645        0.022      337.119        8.878      862.424
03/20/2014  09:45:00      -48.604      -73.394       -0.191       45.887       39.760       21.295     2105.660     1580.844      453.480        0.594        0.207       88.029       21.127        0.058      337.257        9.110      862.415
03/20/2014  09:46:00      -86.758      -91.902       -6.740       36.323       53.043       22.912     1319.384     2813.534      524.975        1.034        0.233      126.384       25.169        0.040      337.331        9.233      862.409
03/20/2014  09:47:00      -75.583     -144.761        0.840       51.250       63.606       30.354     2626.572     4045.748      921.355        1.713        0.380      163.305       25.789        0.025      337.327        9.225      862.419
03/20/2014  09:48:00     -104.533     -134.893       -8.267       55.091       52.261       32.817     3034.984     2731.228     1076.966        1.802        0.342      170.656       30.578        0.032      337.219        9.045      862.425
03/20/2014  09:49:00      -72.984     -165.210       -3.158       36.056       32.702       21.440     1300.037     1069.405      459.684        1.773        0.141      180.613       18.959        0.011      337.227        9.058      862.425
03/20/2014  09:50:00      -67.115      -56.192        5.801       64.544       57.737       29.052     4165.910     3333.549      844.015        0.802        0.417       87.533       30.980        0.125      337.580        9.650      862.412
03/20/2014  09:51:00      -59.746      -53.007       -1.711       37.797       42.950       23.493     1428.606     1844.727      551.924        0.510        0.191       79.871        7.842        0.010      337.363        9.287      862.424
03/20/2014  09:52:00      -42.551      -26.184        8.741       46.146       22.302       20.861     2129.458      497.379      435.184        0.282        0.153       49.962       25.807        0.267      337.720        9.885      862.425
03/20/2014  09:53:00       -2.729      -26.156        7.418       44.241       53.759       37.113     1957.270     2889.979     1377.409        0.348        0.311       26.298       32.366        1.515      338.124       10.562      862.427
03/20/2014  09:54:00      -44.575       -1.046        6.729       20.946       27.500       25.779      438.718      756.237      664.566        0.195        0.093       44.587       20.021        0.202      337.884       10.159      862.434
03/20/2014  09:55:00       24.699       32.305       43.689       53.137       39.620       40.884     2823.491     1569.733     1671.540        0.481        0.303       40.665       26.276        0.418      337.984       10.327      862.444
03/20/2014  09:56:00       -3.586       30.936      -10.817       24.873       32.124       34.649      618.685     1031.967     1200.566        0.197        0.143       31.143       14.137        0.206      337.651        9.770      862.457
03/20/2014  09:57:00      -48.769       20.784       -4.561       21.335       30.158       17.844      455.198      909.516      318.412        0.226        0.084       53.013       11.935        0.051      337.627        9.729      862.460
03/20/2014  09:58:00      -15.593       10.482       25.600       19.455       15.794       14.224      378.484      249.461      202.315        0.092        0.042       18.789        9.056        0.232      338.267       10.803      862.471
03/20/2014  09:59:00       17.544       99.759        0.784       40.992       57.173       34.237     1680.317     3268.699     1172.203        0.819        0.306      101.290       34.181        0.114      337.912       10.207      862.461
03/20/2014  10:00:00       -7.392       39.240        7.511       14.561       24.025       26.440      212.035      577.179      699.079        0.157        0.074       39.931       18.508        0.215      338.098       10.520      862.454
03/20/2014  10:01:00       26.076       27.038       23.159       33.188       38.586       34.731     1101.424     1488.916     1206.238        0.287        0.190       37.564       26.621        0.502      338.419       11.058      862.433
03/20/2014  10:02:00       14.616       45.441        8.129       36.602       36.484       27.865     1339.742     1331.102      776.462        0.290        0.172       47.734       25.929        0.295      338.121       10.557      862.420
03/20/2014  10:03:00       15.950        8.674        1.010       29.732       38.226       24.048      884.010     1461.229      578.295        0.163        0.146       18.156       17.090        0.886      338.026       10.397      862.411
03/20/2014  10:04:00      -53.544      -69.883        4.400       27.907       35.476       20.470      778.782     1258.522      419.022        0.511        0.123       88.038       16.405        0.035      337.669        9.800      862.402
03/20/2014  10:05:00      -53.075      -68.203      -10.774       22.675       33.929       15.592      514.163     1151.160      243.098        0.475        0.095       86.422       11.050        0.016      337.838       10.083      862.388
03/20/2014  10:06:00      -28.067       -8.505       21.143       28.676       36.113       34.234      822.298     1304.176     1171.997        0.230        0.165       29.327       30.425        1.076      338.227       10.736      862.391
03/20/2014  10:07:00       49.740       76.408       68.674       49.610       35.531       27.758     2461.109     1262.481      770.509        0.876        0.225       91.172       21.437        0.055      337.973       10.309      862.384
03/20/2014  10:08:00       32.310       62.175       56.705       47.826       33.702       45.999     2287.287     1135.804     2115.903        0.683        0.277       70.070       36.505        0.271      338.316       10.887      862.377
03/20/2014  10:09:00       39.057       85.296       80.172       43.659       37.913       32.704     1906.108     1437.408     1069.540        0.982        0.221       93.813       21.528        0.053      338.308       10.872      862.389
03/20/2014  10:10:00       78.116       83.665       67.008       44.048       33.011       36.683     1940.267     1089.735     1345.616        1.098        0.219      114.464       30.895        0.073      338.058       10.452      862.390
03/20/2014  10:11:00       84.597       62.849        6.062       31.672       21.400       30.285     1003.102      457.942      917.188        0.676        0.119      105.388       18.243        0.030      337.831       10.070      862.383
03/20/2014  10:12:00       57.335       47.819       21.510       33.379       29.471       25.562     1114.163      868.560      653.398        0.434        0.132       74.659       15.840        0.045      338.117       10.550      862.378
03/20/2014  10:13:00        8.234       48.807       59.757       33.407       43.865       38.897     1116.028     1924.109     1512.958        0.529        0.228       49.497       30.432        0.378      338.843       11.770      862.364
03/20/2014  10:14:00      140.740       90.309       22.198       46.264       37.878       46.368     2140.403     1434.748     2150.016        1.709        0.286      167.223       23.767        0.020      337.886       10.162      862.348
03/20/2014  10:15:00      129.984       82.892        8.144       59.588       39.055       35.290     3550.679     1525.285     1245.377        1.508        0.316      154.166       29.133        0.036      338.051       10.440      862.327
03/20/2014  10:16:00       77.491       56.359       47.830       58.214       49.903       42.064     3388.857     2490.263     1769.414        0.956        0.382       95.818       40.074        0.175      338.356       10.950      862.311
03/20/2014  10:17:00        5.181       52.528       64.949       26.963       35.035       34.006      727.027     1227.420     1156.375        0.506        0.156       52.783       26.538        0.253      338.585       11.337      862.293
03/20/2014  10:18:00      118.244       82.086        6.730       55.488       59.692       44.609     3078.883     3563.119     1989.937        1.470        0.432      143.944       18.280        0.016      338.178       10.652      862.287
03/20/2014  10:19:00      102.869       73.149       16.889       43.105       38.915       28.066     1858.063     1514.411      787.710        1.019        0.208      126.225       17.890        0.020      338.063       10.461      862.279
03/20/2014  10:20:00       77.666       78.233       -5.678       51.423       44.870       35.529     2644.323     2013.281     1262.292        0.905        0.296      110.238       28.716        0.068      338.353       10.947      862.273
03/20/2014  10:21:00      107.961       75.423        8.576       48.272       43.264       36.711     2330.162     1871.731     1347.706        1.148        0.277      131.697       20.275        0.024      338.421       11.061      862.259
03/20/2014  10:22:00       37.044       92.943       -3.658       41.038       44.247       33.117     1684.148     1957.776     1096.704        0.738        0.237      100.053       28.327        0.080      338.590       11.346      862.251
03/20/2014  10:23:00       16.013       31.443       10.545       31.452       32.592       28.412      989.222     1062.241      807.221        0.211        0.143       35.285       18.272        0.268      338.836       11.759      862.246
03/20/2014  10:24:00       46.355       24.547       12.110       30.859       27.379       28.713      952.301      749.597      824.439        0.271        0.126       52.453       25.701        0.240      338.807       11.710      862.236
03/20/2014  10:25:00       -5.645       38.055       -6.665       25.202       24.835       26.682      635.123      616.767      711.915        0.174        0.098       38.472       14.720        0.146      338.748       11.610      862.233
03/20/2014  10:26:00        6.367      -19.416       26.460       35.905       46.680       31.574     1289.145     2178.982      996.906        0.279        0.223       20.433       22.942        1.261      339.160       12.303      862.225
03/20/2014  10:27:00       70.976      -49.272       51.696       46.357      107.544       61.398     2149.002    11565.752     3769.771        1.381        0.874       86.402       50.284        0.339      338.784       11.670      862.223
03/20/2014  10:28:00       88.372       71.944       60.096       50.421       46.326       44.687     2542.244     2146.117     1996.900        1.164        0.334      113.954       27.739        0.059      338.454       11.116      862.229
03/20/2014  10:29:00       81.034       44.078       27.220       72.882       71.273       45.508     5311.841     5079.880     2070.963        1.085        0.623       92.246       14.225        0.024      338.622       11.397      862.224
03/20/2014  10:30:00      118.874       88.372       13.331       47.493       41.966       34.275     2255.630     1761.127     1174.772        1.365        0.260      148.124       26.989        0.033      338.347       10.936      862.234
03/20/2014  10:31:00      130.267      117.543       15.819       49.896       38.578       36.639     2489.574     1488.272     1342.412        1.818        0.266      175.459       27.618        0.025      338.361       10.961      862.244
03/20/2014  10:32:00       81.734       72.959        0.957       24.056       35.580       35.616      578.669     1265.923     1268.474        0.756        0.156      109.560       13.127        0.014      338.360       10.959      862.243
03/20/2014  10:33:00       33.268      101.159        5.363       52.412       64.690       40.228     2746.982     4184.752     1618.274        0.996        0.428      106.489       38.901        0.133      338.525       11.235      862.246
03/20/2014  10:34:00      -10.360      127.449       -1.045       29.098       60.460       33.131      846.718     3655.457     1097.683        1.097        0.280      127.870       29.497        0.053      338.695       11.522      862.239
03/20/2014  10:35:00        5.617       19.250       16.471       42.981       52.259       28.039     1847.329     2731.021      786.210        0.302        0.268       20.053       19.817        0.977      339.279       12.505      862.231
03/20/2014  10:36:00       25.982        0.509       41.044       63.600       36.953       29.832     4044.913     1365.555      889.952        0.433        0.315       25.987       20.953        0.650      339.092       12.189      862.236
03/20/2014  10:37:00        4.677      -13.905       28.983       26.595       41.511       29.548      707.312     1723.153      873.101        0.218        0.165       14.671       23.671        2.603      339.249       12.453      862.224
03/20/2014  10:38:00       12.337      -56.085       12.923       41.580       70.594       47.429     1728.873     4983.565     2249.530        0.621        0.448       57.426       27.012        0.221      339.146       12.280      862.210
03/20/2014  10:39:00       45.364      -51.911       29.571       57.428       69.961       61.380     3297.997     4894.602     3767.502        0.879        0.598       68.940       52.977        0.591      339.129       12.250      862.206
03/20/2014  10:40:00       87.252     -114.597       -7.278       66.694       66.992       58.676     4448.025     4487.954     3442.922        1.659        0.619      144.032       58.593        0.165      338.685       11.503      862.201
03/20/2014  10:41:00       42.182       84.572       85.451       63.590       51.363       56.424     4043.741     2638.133     3183.617        1.305        0.493       94.508       51.067        0.292      338.958       11.964      862.201
03/20/2014  10:42:00       50.794       83.718       -5.597       47.269       51.582       31.150     2234.344     2660.678      970.303        0.774        0.293       97.922       26.120        0.071      338.593       11.349      862.186
03/20/2014  10:43:00       40.027       94.435       76.626       57.081       38.285       53.115     3258.198     1465.704     2821.196        1.197        0.377      102.567       42.466        0.171      339.190       12.354      862.170
03/20/2014  10:44:00      112.420      108.825       57.029       89.585       51.323       76.516     8025.531     2634.091     5854.653        2.212        0.826      156.465       73.872        0.223      338.691       11.514      862.165
03/20/2014  10:45:00      108.252       86.187       12.604       33.927       35.714       24.685     1151.038     1275.511      609.348        1.117        0.152      138.372       16.403        0.014      338.457       11.122      862.161
03/20/2014  10:46:00      106.138       85.679        8.698       37.550       33.343       38.844     1410.010     1111.725     1508.848        1.136        0.202      136.404       27.135        0.040      338.723       11.568      862.157
03/20/2014  10:47:00       98.221       80.202        1.265       54.177       47.054       48.311     2935.104     2214.101     2333.919        1.178        0.374      126.805       33.191        0.069      338.863       11.803      862.159
03/20/2014  10:48:00      136.968       80.617       12.270       50.418       48.562       35.262     2541.993     2358.237     1243.399        1.578        0.307      158.931       23.584        0.022      338.941       11.934      862.151
03/20/2014  10:49:00      116.159       70.804       19.034       55.339       45.595       45.244     3062.417     2078.879     2046.982        1.303        0.359      136.037       30.923        0.052      339.157       12.299      862.148
03/20/2014  10:50:00      117.150       85.574       39.380       60.323       50.580       39.603     3638.837     2558.301     1568.406        1.518        0.388      145.076       22.340        0.024      339.223       12.410      862.133
03/20/2014  10:51:00      128.234       59.502       11.436       44.609       46.968       45.840     1989.934     2205.971     2101.262        1.320        0.315      141.366       19.687        0.019      339.039       12.098      862.119
03/20/2014  10:52:00      140.606       73.579       16.270       60.415       46.384       45.393     3649.986     2151.455     2060.491        1.665        0.393      158.695       25.152        0.025      338.934       11.921      862.124
03/20/2014  10:53:00      101.992       92.182       74.835       59.986       59.684       52.755     3598.365     3562.215     2783.044        1.722        0.497      137.477       32.686        0.057      339.031       12.086      862.115
03/20/2014  10:54:00       88.960       73.396       71.743       68.291       51.934       43.487     4663.709     2697.132     1891.109        1.385        0.463      115.329       40.298        0.122      339.367       12.652      862.117
03/20/2014  10:55:00       65.207       58.565       70.877       45.869       63.043       35.088     2103.955     3974.415     1231.175        1.001        0.365       87.647       24.436        0.078      339.007       12.045      862.113
03/20/2014  10:56:00       67.103       44.405       89.797       64.367       97.409       65.322     4143.052     9488.459     4266.921        1.621        0.895       80.465       59.198        0.541      339.330       12.588      862.113
03/20/2014  10:57:00       79.789       37.581        7.609       56.647       54.011       34.391     3208.892     2917.210     1182.741        0.757        0.365       88.196       29.766        0.114      339.020       12.069      862.114
03/20/2014  10:58:00       67.981       67.826       75.702       54.248       38.819       40.094     2942.839     1506.922     1607.503        1.050        0.303       96.030       28.041        0.085      339.179       12.336      862.093
03/20/2014  10:59:00       46.535       54.099       60.006       41.734       27.664       24.850     1741.697      765.319      617.531        0.591        0.156       71.359       16.821        0.056      339.130       12.254      862.075
03/20/2014  11:00:00        4.402       51.734       66.313       29.014       47.370       31.586      841.834     2243.933      997.673        0.559        0.204       51.921       11.294        0.047      339.662       13.148      862.047
03/20/2014  11:01:00       42.605      -51.899       20.115       59.016       92.740       48.134     3482.937     8600.732     2316.887        0.965        0.720       67.147       48.217        0.516      339.798       13.379      862.026
03/20/2014  11:02:00        7.120       34.989       91.527       37.366       62.876       39.093     1396.198     3953.433     1528.280        0.826        0.344       35.707       41.301        1.338      339.911       13.569      862.014
03/20/2014  11:03:00      -15.530        0.114       56.585       24.264       46.770       23.035      588.726     2187.420      530.623        0.337        0.165       15.531       16.638        1.148      339.758       13.312      862.013
03/20/2014  11:04:00       -8.108       21.613       38.527       18.777       36.502       21.353      352.577     1332.432      455.952        0.208        0.107       23.084       13.996        0.368      340.161       13.992      862.002
03/20/2014  11:05:00       35.129       13.179       45.133       37.387       58.348       39.750     1397.797     3404.496     1580.033        0.491        0.319       37.520       42.729        1.297      339.948       13.631      861.998
03/20/2014  11:06:00       63.809      106.940      119.778       77.936       59.259       56.633     6073.971     3511.641     3207.247        2.132        0.640      124.530       57.465        0.213      339.284       12.511      861.980
03/20/2014  11:07:00       55.924      134.130      133.794       81.501       63.563       64.327     6642.398     4040.296     4137.991        2.692        0.741      145.322       59.915        0.170      339.299       12.535      861.967
03/20/2014  11:08:00       25.358       98.938      115.255       48.676       87.452       52.726     2369.361     7647.903     2779.987        1.825        0.640      102.136       57.491        0.317      339.278       12.501      861.964
03/20/2014  11:09:00       51.546       53.254       57.866       49.067       77.383       58.722     2407.531     5988.063     3448.281        1.034        0.592       74.115       52.231        0.497      339.544       12.950      861.964
03/20/2014  11:10:00       32.807       66.573      115.296       63.320      114.120       60.077     4009.467    13023.323     3609.186        1.972        1.032       74.218       71.829        0.937      339.540       12.943      861.958
03/20/2014  11:11:00       16.961       56.579      103.441       47.085       51.039       34.234     2217.017     2604.966     1171.981        1.009        0.300       59.067       34.096        0.333      339.580       13.010      861.965
03/20/2014  11:12:00       84.810       35.895       61.828       65.434       99.500       62.777     4281.646     9900.259     3941.001        1.521        0.906       92.094       59.850        0.422      339.418       12.737      861.944
03/20/2014  11:13:00       73.714      -61.491       17.108       91.226      113.992       60.205     8322.220    12994.175     3624.670        1.722        1.247       95.995       71.997        0.563      339.462       12.812      861.932
03/20/2014  11:14:00       13.741       38.375       73.239       54.172       57.846       40.652     2934.558     3346.118     1652.558        0.748        0.397       40.761       41.402        1.032      339.697       13.208      861.924
03/20/2014  11:15:00       -0.134       25.929       67.218       22.170       52.186       38.445      491.513     2723.387     1478.056        0.494        0.235       25.929       37.639        2.107      339.969       13.667      861.901
03/20/2014  11:16:00       30.104       71.659       68.113       52.302       48.772       54.991     2735.450     2378.672     3024.027        0.941        0.407       77.726       40.213        0.268      339.726       13.257      861.882
03/20/2014  11:17:00       14.481        8.940       45.726       47.027       46.062       39.113     2211.573     2121.708     1529.814        0.412        0.293       17.019       31.278        3.378      339.950       13.635      861.867
03/20/2014  11:18:00       -3.138       36.489       76.681       41.067       58.200       46.804     1686.527     3387.191     2190.638        0.724        0.363       36.623       36.404        0.988      339.952       13.637      861.855
03/20/2014  11:19:00        0.792       18.893       60.423       42.052       62.750       45.980     1768.394     3937.522     2114.162        0.591        0.391       18.909       44.106        5.441      340.118       13.919      861.851
03/20/2014  11:20:00       47.997      -71.101       16.692       59.392       93.078       56.550     3527.439     8663.460     3197.903        1.151        0.769       85.785       55.717        0.422      339.885       13.524      861.832
03/20/2014  11:21:00       40.748      -19.012       39.895       53.962       89.616       48.438     2911.886     8030.972     2346.281        0.845        0.664       44.965       53.712        1.427      339.847       13.461      861.823
03/20/2014  11:22:00       49.570        6.929       52.633       62.179      106.597       72.286     3866.247    11363.001     5225.220        1.286        1.023       50.052       76.852        2.358      340.077       13.848      861.809
03/20/2014  11:23:00       52.354      -10.647       78.332       74.536      119.639       80.939     5555.632    14313.503     6551.123        1.770        1.321       53.426       88.674        2.755      339.929       13.599      861.800
03/20/2014  11:24:00       51.530      -59.908       -6.989       51.313       53.481       25.139     2633.016     2860.224      631.949        0.621        0.306       79.021       28.102        0.126      339.403       12.712      861.813
03/20/2014  11:25:00       46.835      -59.833       20.504       57.108       78.267       39.536     3261.381     6125.741     1563.104        0.857        0.548       75.984       37.850        0.248      339.898       13.546      861.797
03/20/2014  11:26:00       82.638      -60.588       12.421       85.006      114.641       69.957     7226.024    13142.663     4894.045        1.795        1.263      102.470       81.949        0.640      339.895       13.541      861.777
03/20/2014  11:27:00       69.320      -48.447       45.762       70.785      139.435       94.269     5010.530    19442.106     8886.664        2.129        1.667       84.571      101.470        1.440      339.885       13.524      861.777
03/20/2014  11:28:00       65.143       60.160       43.435       58.232       66.924       56.520     3391.012     4478.780     3194.507        1.040        0.553       88.673       48.230        0.296      339.638       13.108      861.777
03/20/2014  11:29:00       83.798       61.813       74.348       73.393       66.020       57.378     5386.472     4358.671     3292.194        1.470        0.652      104.129       43.342        0.173      340.078       13.850      861.765
03/20/2014  11:30:00      179.748       78.082       48.086       57.952       59.379       61.520     3358.386     3525.870     3784.691        2.569        0.533      195.975       41.773        0.045      339.533       12.928      861.766
03/20/2014  11:31:00       36.448       39.561      -10.636       48.093       45.274       35.057     2312.948     2049.725     1228.967        0.430        0.280       53.792       19.449        0.131      339.781       13.351      861.756
03/20/2014  11:32:00       71.515      -76.450        2.212       89.572      117.699       47.058     8023.191    13853.037     2214.501        1.752        1.205      104.686       57.908        0.306      340.112       13.906      861.758
03/20/2014  11:33:00       84.826      -93.617       -5.485       82.413      122.084       66.355     6791.928    14904.622     4402.964        2.104        1.305      126.331       73.101        0.335      340.079       13.850      861.757
03/20/2014  11:34:00      126.511     -136.398      -36.154       77.743       75.670       51.681     6044.007     5725.988     2670.940        2.518        0.722      186.036       49.961        0.072      339.733       13.266      861.748
03/20/2014  11:35:00       63.807     -105.457       -8.053       58.473       71.288       38.824     3419.043     5081.976     1507.267        1.263        0.500      123.257       30.891        0.063      339.821       13.417      861.755
03/20/2014  11:36:00       42.025      -76.503       -5.126       34.820       52.687       36.065     1212.461     2775.892     1300.652        0.647        0.264       87.285       34.352        0.155      339.860       13.484      861.748
03/20/2014  11:37:00      -36.352        7.638       37.019       38.797       49.472       39.132     1505.224     2447.456     1531.301        0.412        0.274       37.146       41.944        1.275      340.167       14.001      861.721
03/20/2014  11:38:00        1.676       18.548       31.821       48.422       71.486       40.788     2344.683     5110.265     1663.681        0.524        0.456       18.624       35.958        3.728      340.269       14.173      861.704
03/20/2014  11:39:00       74.167      -92.300       16.366       75.082      105.044       64.289     5637.260    11034.297     4133.054        1.754        1.040      118.406       60.521        0.261      340.221       14.092      861.684
03/20/2014  11:40:00       89.046      -91.882       -3.650       74.542       79.366       53.892     5556.569     6298.976     2904.393        1.557        0.738      127.951       58.301        0.208      339.997       13.713      861.674
03/20/2014  11:41:00       33.758       34.450       46.276       43.732       37.739       35.486     1912.454     1424.268     1259.272        0.453        0.230       48.232       24.855        0.266      340.831       15.122      861.679
03/20/2014  11:42:00       78.362       50.183        2.316       59.517       53.095       39.504     3542.231     2819.035     1560.533        0.829        0.396       93.053       20.881        0.050      340.429       14.443      861.681
03/20/2014  11:43:00      109.983       75.013       52.857       86.058       55.092       57.301     7406.046     3035.080     3283.351        1.712        0.686      133.129       35.679        0.072      340.312       14.246      861.668
03/20/2014  11:44:00      154.161      120.196       49.259       86.602       77.984       76.947     7499.847     6081.469     5920.807        3.007        0.975      195.481       48.663        0.062      340.193       14.043      861.663
03/20/2014  11:45:00      107.690       85.099       -3.581       61.064       50.196       33.298     3728.822     2519.687     1108.755        1.310        0.368      137.255       27.104        0.039      339.764       13.321      861.686
03/20/2014  11:46:00       75.938       36.226       11.758       51.107       53.403       29.305     2611.945     2851.877      858.774        0.677        0.316       84.136       24.176        0.083      339.730       13.264      861.679
03/20/2014  11:47:00       27.536       16.369       11.415       24.832       32.542       23.637      616.639     1058.999      558.724        0.169        0.112       32.034       11.281        0.124      339.926       13.594      861.679
03/20/2014  11:48:00       -9.147     -115.417       -3.682       36.366       33.767       29.158     1322.513     1140.229      850.182        0.836        0.166      115.779       22.844        0.039      339.770       13.333      861.655
03/20/2014  11:49:00        9.303      -46.358       16.292       34.518       80.308       56.718     1191.521     6449.313     3216.953        0.668        0.543       47.282       59.651        1.592      340.163       13.995      861.637
03/20/2014  11:50:00      151.351       93.152       64.792       97.527       79.425       61.795     9511.437     6308.300     3818.674        2.771        0.982      177.720       44.142        0.062      340.326       14.267      861.633
03/20/2014  11:51:00      162.476      121.083       52.314       71.561       50.817       55.524     5120.951     2582.381     3082.926        2.729        0.539      202.632       42.809        0.045      339.954       13.639      861.638
03/20/2014  11:52:00       71.987       77.758       33.031       71.939       52.727       59.942     5175.157     2780.102     3593.077        1.193        0.577      105.964       31.140        0.086      340.291       14.211      861.633
03/20/2014  11:53:00       13.008       51.626       -2.023       55.784       34.771       32.636     3111.872     1208.990     1065.120        0.411        0.269       53.239       25.722        0.233      340.111       13.907      861.632
03/20/2014  11:54:00      -34.050       59.036        6.836       31.682       40.288       27.884     1003.742     1623.157      777.540        0.405        0.170       68.152       24.271        0.127      340.459       14.496      861.603
03/20/2014  11:55:00       59.816       58.484       11.846       63.539       50.289       33.036     4037.184     2528.998     1091.406        0.740        0.383       83.656       26.548        0.101      340.319       14.258      861.584
03/20/2014  11:56:00       61.971       80.099      -13.409       45.573       59.205       27.936     2076.934     3505.257      780.410        0.840        0.318      101.273       16.543        0.027      339.848       13.462      861.563
03/20/2014  11:57:00        7.061      142.279        4.532       44.640       85.958       34.401     1992.772     7388.721     1183.454        1.544        0.528      142.454       39.404        0.077      340.219       14.088      861.545
03/20/2014  11:58:00      -22.884      105.868      -11.745       32.603       86.347       25.100     1062.984     7455.889      630.012        1.051        0.457      108.313       31.205        0.083      340.262       14.160      861.526
03/20/2014  11:59:00       -5.339       22.315       16.007       28.898       40.212       28.025      835.108     1617.023      785.424        0.201        0.162       22.945       26.013        1.285      340.942       15.310      861.515
03/20/2014  12:00:00      -29.241       96.686      -17.027       53.084       78.717       46.474     2817.912     6196.414     2159.836        1.083        0.559      101.011       54.604        0.292      340.572       14.684      861.491
03/20/2014  12:01:00       -6.883      122.417       -8.958       50.952       49.812       29.113     2596.153     2481.223      847.569        1.052        0.296      122.610       29.631        0.058      340.561       14.668      861.485
03/20/2014  12:02:00      -31.745       87.883       13.058       30.617       56.903       32.817      937.376     3237.899     1076.952        0.708        0.263       93.440       35.863        0.147      340.980       15.377      861.476
03/20/2014  12:03:00      -34.794       71.015        6.533       35.357       46.226       33.350     1250.093     2136.829     1112.197        0.540        0.225       79.081       28.952        0.134      340.694       14.893      861.468
03/20/2014  12:04:00       11.520       69.206        9.374       29.239       41.381       39.424      854.947     1712.371     1554.291        0.456        0.206       70.158       27.276        0.151      340.747       14.982      861.448
03/20/2014  12:05:00      -25.685       65.681        2.382       49.938       42.417       28.174     2493.760     1799.230      793.797        0.503        0.254       70.525       26.434        0.140      340.617       14.762      861.440
03/20/2014  12:06:00      -29.148      141.435       -7.492       35.717       66.686       27.699     1275.696     4447.073      767.245        1.370        0.325      144.407       24.834        0.030      340.328       14.274      861.429
03/20/2014  12:07:00       -5.678       53.505       10.083       14.074       56.398       22.186      198.084     3180.731      492.222        0.343        0.194       53.806       27.807        0.267      341.102       15.583      861.414
03/20/2014  12:08:00      -22.957       20.949        2.106       29.740       41.180       25.826      884.484     1695.827      666.971        0.211        0.162       31.079       24.874        0.641      340.732       14.957      861.407
03/20/2014  12:09:00       28.691       19.678       20.606       20.945       26.629       25.297      438.674      709.089      639.932        0.171        0.089       34.791       12.028        0.120      340.721       14.936      861.397
03/20/2014  12:10:00        1.716       30.162       16.297       29.163       31.557       21.371      850.488      995.871      456.722        0.174        0.115       30.211       17.564        0.338      341.145       15.655      861.384
03/20/2014  12:11:00      -13.431       -1.483       36.537       26.201       35.400       28.286      686.485     1253.161      800.094        0.213        0.137       13.512       26.555        3.862      341.422       16.125      861.373
03/20/2014  12:12:00        1.967      -56.137        7.234       34.759       56.106       30.397     1208.184     3147.852      923.991        0.424        0.264       56.171       36.423        0.420      340.767       15.015      861.365
03/20/2014  12:13:00       10.445        2.391       24.754       20.243       31.763       23.289      409.762     1008.894      542.367        0.134        0.098       10.716       20.829        3.778      341.611       16.445      861.362
03/20/2014  12:14:00      -43.381       57.864       -1.989       40.997       47.132       29.870     1680.786     2221.400      892.218        0.501        0.240       72.320       31.857        0.194      340.880       15.207      861.358
03/20/2014  12:15:00      -10.041       22.542       23.551       20.441       48.451       19.942      417.851     2347.494      397.664        0.216        0.158       24.678       11.796        0.228      341.433       16.141      861.350
03/20/2014  12:16:00      -63.934      -14.990        0.714       39.350       26.138       19.734     1548.430      683.177      389.429        0.347        0.131       65.667       13.178        0.040      340.930       15.292      861.347
03/20/2014  12:17:00      -26.528       32.913      -15.674       53.145       43.901       18.867     2824.369     1927.274      355.952        0.357        0.255       42.273       13.376        0.100      340.728       14.949      861.330
03/20/2014  12:18:00      -13.138       54.339       13.840       39.960       43.722       30.137     1596.815     1911.638      908.251        0.387        0.221       55.904       20.935        0.140      341.333       15.973      861.330
03/20/2014  12:19:00       40.581       68.707       30.698       46.545       44.010       34.213     2166.458     1936.884     1170.503        0.629        0.264       79.797       23.355        0.086      341.396       16.080      861.328
03/20/2014  12:20:00      146.280       98.414       19.811       87.803       52.134       57.661     7709.373     2717.941     3324.737        2.261        0.688      176.304       38.504        0.048      340.638       14.795      861.312
03/20/2014  12:21:00      112.492       86.027       27.978       73.636       49.458       28.149     5422.249     2446.047      792.378        1.475        0.433      141.616       19.019        0.018      340.708       14.914      861.305
03/20/2014  12:22:00       38.119       34.436       13.553       50.579       40.311       33.566     2558.223     1624.994     1126.686        0.407        0.265       51.370       27.415        0.285      341.127       15.623      861.292
03/20/2014  12:23:00        1.754      -71.267       20.408       49.546       75.622       49.557     2454.855     5718.758     2455.938        0.806        0.531       71.289       43.919        0.380      341.375       16.045      861.279
03/20/2014  12:24:00       34.507       10.098       50.249       62.299       86.948       38.691     3881.153     7559.997     1496.979        0.838        0.647       35.954       29.413        0.669      341.408       16.101      861.279
03/20/2014  12:25:00       41.530      -13.007       32.711       54.948      102.575       47.748     3019.292    10521.626     2279.854        0.939        0.791       43.520       34.096        0.614      341.322       15.955      861.264
03/20/2014  12:26:00       38.382       39.091       70.720       57.120       68.569       38.468     3262.745     4701.667     1479.770        0.872        0.472       54.784       21.196        0.150      341.579       16.390      861.248
03/20/2014  12:27:00       54.000      -32.098       27.315       73.629       93.263       58.476     5421.159     8698.028     3419.499        1.111        0.877       62.820       70.789        1.270      340.977       15.371      861.238
03/20/2014  12:28:00       50.446       99.179       96.325       77.873       59.904       70.868     6064.228     3588.527     5022.281        1.816        0.734      111.271       51.119        0.211      341.019       15.439      861.237
03/20/2014  12:29:00      132.402       94.640       52.963       67.164       62.973       61.655     4511.023     3965.563     3801.283        2.078        0.614      162.748       49.546        0.093      340.615       14.758      861.251
03/20/2014  12:30:00       46.313       63.593        6.278       46.843       41.338       41.994     2194.295     1708.812     1763.455        0.595        0.283       78.670       32.896        0.175      340.905       15.250      861.240
03/20/2014  12:31:00       74.871       81.691       63.010       63.413       55.390       54.026     4021.164     3068.004     2918.787        1.313        0.500      110.811       48.020        0.188      340.873       15.194      861.229
03/20/2014  12:32:00       20.411      -41.808       37.578       36.677       74.049       38.899     1345.204     5483.225     1513.100        0.596        0.417       46.525       45.897        0.973      341.271       15.868      861.217
03/20/2014  12:33:00      128.863       68.096       59.927      120.464       89.457       72.161    14511.521     8002.535     5207.170        2.627        1.386      145.749       59.772        0.168      340.954       15.330      861.202
03/20/2014  12:34:00      197.700      110.623       23.785      110.073       79.411       78.889    12116.036     6306.134     6223.413        3.826        1.232      226.545       50.934        0.051      340.602       14.733      861.183
03/20/2014  12:35:00      151.763       94.116       14.000       84.259       58.846       47.478     7099.567     3462.844     2254.152        2.245        0.641      178.577       16.962        0.009      340.385       14.368      861.183
03/20/2014  12:36:00       93.217       79.264       33.206       74.968       34.392       43.859     5620.262     1182.802     1923.652        1.240        0.436      122.361       24.011        0.039      340.874       15.195      861.164
03/20/2014  12:37:00       96.593       95.621       31.111      104.301       62.768       53.432    10878.736     3939.828     2855.010        1.855        0.884      135.918       30.493        0.050      341.100       15.576      861.145
03/20/2014  12:38:00       88.817       77.376       34.797       76.867       59.663       47.962     5908.525     3559.708     2300.369        1.343        0.588      117.794       26.134        0.049      341.218       15.778      861.134
03/20/2014  12:39:00       56.992       14.645       58.384       54.559       83.218       70.132     2976.724     6925.246     4918.528        1.084        0.741       58.843       63.690        1.172      340.914       15.262      861.113
03/20/2014  12:40:00       -5.253       55.538       -0.538       53.461       38.134       31.478     2858.071     1454.233      990.852        0.421        0.265       55.785       28.442        0.260      340.991       15.395      861.094
03/20/2014  12:41:00       81.718       96.398       57.737       43.105       54.445       40.783     1858.009     2964.231     1663.246        1.289        0.324      126.374       19.713        0.024      341.431       16.139      861.068
03/20/2014  12:42:00       85.082      111.800      105.033       68.927       62.116       38.590     4750.944     3858.344     1489.155        2.043        0.505      140.493       16.231        0.013      341.265       15.857      861.064
03/20/2014  12:43:00      139.898      108.382       67.954       56.622       49.923       55.415     3206.018     2492.300     3070.809        2.235        0.438      176.969       43.991        0.062      340.903       15.244      861.051
03/20/2014  12:44:00       33.376      -16.640        1.169       58.884       36.005       32.485     3467.368     1296.355     1055.273        0.360        0.291       37.294       11.646        0.098      341.390       16.070      861.040
03/20/2014  12:45:00       33.652       -3.313       36.040       36.057       62.965       33.370     1300.138     3964.652     1113.566        0.441        0.319       33.814       28.639        0.717      341.519       16.287      861.035
03/20/2014  12:46:00       42.523       67.643       19.609       78.697       59.018       42.204     6193.234     3483.066     1781.214        0.911        0.573       79.899       29.166        0.133      341.616       16.452      861.024
03/20/2014  12:47:00        6.357      147.670      -14.517       80.711      106.786       43.671     6514.201    11403.342     1907.184        2.094        0.991      147.807       41.406        0.078      341.270       15.865      861.030
03/20/2014  12:48:00      -43.043      196.587      -15.909       56.976       85.527       45.914     3246.299     7314.811     2108.091        2.671        0.633      201.244       49.002        0.059      341.256       15.840      861.034
03/20/2014  12:49:00      -76.095      203.685      -23.247       68.776       71.909       45.683     4730.167     5170.886     2086.946        2.990        0.599      217.435       35.076        0.026      340.911       15.257      861.046
03/20/2014  12:50:00      -99.603      163.570      -23.517       61.185       74.278       37.858     3743.558     5517.295     1433.219        2.396        0.535      191.510       45.321        0.056      341.086       15.553      861.044
03/20/2014  12:51:00     -111.253      153.976      -25.932       48.531       65.083       33.915     2355.253     4235.839     1150.222        2.225        0.387      189.963       27.543        0.021      340.835       15.128      861.040
03/20/2014  12:52:00     -130.810       32.789      -18.210       40.247       58.428       25.237     1619.830     3413.812      636.921        1.209        0.284      134.857       20.667        0.023      340.621       14.769      861.028
03/20/2014  12:53:00      -76.342      -18.599      -12.189       40.209       42.541       18.067     1616.738     1809.733      326.399        0.504        0.188       78.575       17.385        0.049      340.813       15.093      861.001
03/20/2014  12:54:00      -63.965      -21.300        3.123       61.994       44.862       30.470     3843.269     2012.602      928.411        0.567        0.339       67.418       23.941        0.126      341.119       15.611      860.981
03/20/2014  12:55:00       -5.097       70.635        4.465       48.458       64.385       42.056     2348.130     4145.482     1768.739        0.665        0.413       70.819       30.897        0.190      341.501       16.259      860.961
03/20/2014  12:56:00       -3.761       76.821      -20.393       31.322       45.497       28.390      981.046     2069.932      805.972        0.509        0.193       76.913       17.048        0.049      340.864       15.178      860.949
03/20/2014  12:57:00       33.179       64.924      -11.091       46.059       63.542       30.618     2121.409     4037.596      937.489        0.627        0.355       72.911       24.705        0.115      340.899       15.238      860.936
03/20/2014  12:58:00       50.067       43.766       -0.260       36.119       32.275       31.280     1304.597     1041.687      978.438        0.387        0.166       66.499        6.612        0.010      341.035       15.468      860.909
03/20/2014  12:59:00        3.780      105.111        4.153       32.537       56.316       37.832     1058.632     3171.531     1431.227        0.837        0.283      105.179       30.804        0.086      341.261       15.851      860.912
03/20/2014  13:00:00      134.187      155.015       -0.169       49.640       57.991       52.927     2464.149     3362.972     2801.233        2.533        0.431      205.026       35.635        0.030      340.877       15.199      860.896
03/20/2014  13:01:00       68.766       92.013       15.166       79.522       62.140       38.223     6323.766     3861.320     1460.987        1.253        0.582      114.870       22.889        0.040      341.070       15.526      860.860
03/20/2014  13:02:00       38.613      -98.557        0.108       31.159       72.093       38.887      970.858     5197.375     1512.195        0.944        0.384      105.851       31.170        0.087      341.203       15.752      860.840
03/20/2014  13:03:00        9.469      -10.873       44.025       34.111       57.424       33.948     1163.534     3297.568     1152.447        0.388        0.281       14.418       34.898        5.858      341.611       16.443      860.816
03/20/2014  13:04:00      -20.651       16.452       33.726       31.452       47.387       25.749      989.227     2245.501      662.997        0.287        0.195       26.403       27.872        1.114      341.377       16.047      860.802
03/20/2014  13:05:00      -36.640       25.547        5.835       38.556       18.345       16.844     1486.551      336.549      283.725        0.207        0.105       44.667       13.475        0.091      341.139       15.645      860.782
03/20/2014  13:06:00      -11.074       27.534       14.497       32.368       31.550       27.548     1047.679      995.417      758.875        0.195        0.140       29.678       23.333        0.618      341.668       16.541      860.794
03/20/2014  13:07:00      -15.458       46.761        9.481       56.696       45.194       34.804     3214.433     2042.505     1211.312        0.449        0.323       49.249       27.634        0.315      341.443       16.158      860.776
03/20/2014  13:08:00      -97.690       93.742      -17.786       87.922       91.536       43.506     7730.234     8378.782     1892.773        1.832        0.900      135.392       24.074        0.032      341.416       16.113      860.738
03/20/2014  13:09:00       65.206      164.265        7.654      122.747      106.831       70.602    15066.749    11412.932     4984.682        3.137        1.573      176.734       50.731        0.082      341.793       16.750      860.713
03/20/2014  13:10:00       21.327      153.937      -16.147       40.724       70.399       44.002     1658.457     4955.996     1936.196        1.648        0.428      155.407       43.872        0.080      341.518       16.285      860.716
03/20/2014  13:11:00      139.072       67.080       46.910      100.213       64.207       63.635    10042.699     4122.573     4049.417        2.212        0.911      154.405       27.005        0.031      341.578       16.386      860.705
03/20/2014  13:12:00      -10.588       80.693      -19.705       44.247       71.040       31.442     1957.819     5046.700      988.624        0.750        0.400       81.385       36.434        0.200      341.732       16.649      860.687
03/20/2014  13:13:00      -35.597       75.514        8.485       62.889      101.643       44.681     3955.004    10331.355     1996.418        1.166        0.814       83.484       45.473        0.297      341.857       16.860      860.677
03/20/2014  13:14:00       21.025      240.867      -11.300       81.851       91.201       67.245     6699.536     8317.593     4521.892        3.906        0.977      241.783       61.554        0.065      341.371       16.035      860.661
03/20/2014  13:15:00     -164.527      213.507      -42.714       64.897      132.093       57.042     4211.608    17448.567     3253.762        4.969        1.246      269.544       44.037        0.027      341.137       15.639      860.648
03/20/2014  13:16:00      -23.782      -12.278       27.909      121.741      102.052       84.619    14820.976    10414.548     7160.302        1.694        1.620       26.764       72.253        7.288      341.301       15.918      860.662
03/20/2014  13:17:00      -39.367        2.851       16.419       64.925       55.363       31.279     4215.251     3065.022      978.379        0.504        0.413       39.470       35.732        0.820      341.482       16.226      860.622
03/20/2014  13:18:00     -152.794     -114.062      -34.356       73.260       51.660       35.484     5366.970     2668.738     1259.113        2.341        0.465      190.672       26.330        0.019      340.858       15.169      860.642
03/20/2014  13:19:00      -79.555      -60.751        0.379       79.389       50.311       22.475     6302.662     2531.181      505.141        0.968        0.467      100.098       23.072        0.053      341.016       15.436      860.604
03/20/2014  13:20:00     -185.385     -115.908      -14.152       60.518       64.675       36.668     3662.394     4182.843     1344.553        2.859        0.459      218.637       29.503        0.018      341.209       15.759      860.577
03/20/2014  13:21:00     -233.406     -124.822        8.147       92.979       67.598       52.422     8645.178     4569.544     2748.116        4.304        0.798      264.686       41.650        0.025      341.203       15.750      860.542
03/20/2014  13:22:00     -170.634     -105.695       -6.471       91.366       59.642       33.286     8347.716     3557.194     1107.986        2.667        0.651      200.717       26.572        0.018      341.147       15.656      860.529
03/20/2014  13:23:00      -20.344      -30.590       30.287       87.635       59.303       42.047     7679.844     3516.846     1767.910        0.761        0.648       36.737       44.097        1.441      341.732       16.649      860.518
03/20/2014  13:24:00      -39.605      -58.312       33.055      103.378       63.821       51.361    10686.960     4073.166     2637.917        1.173        0.870       70.490       59.909        0.722      341.559       16.356      860.500
03/20/2014  13:25:00      -55.012      -93.143       12.890       62.704       55.752       39.797     3931.754     3108.321     1583.800        1.024        0.431      108.176       40.016        0.137      341.369       16.032      860.490
03/20/2014  13:26:00     -119.840     -115.642       -6.313       44.316       37.575       27.223     1963.945     1411.849      741.074        1.594        0.206      166.537       18.211        0.012      341.139       15.644      860.490
03/20/2014  13:27:00      -86.343     -114.619        1.220       44.552       43.431       31.722     1984.889     1886.240     1006.277        1.273        0.244      143.501       27.354        0.036      341.168       15.693      860.473
03/20/2014  13:28:00       -1.753     -110.357        8.022       32.002       40.110       22.044     1024.144     1608.803      485.937        0.768        0.156      110.371       16.991        0.024      341.286       15.892      860.461
03/20/2014  13:29:00      -13.757      -61.868       17.064       60.736       57.073       39.786     3688.858     3257.293     1582.890        0.642        0.426       63.379       39.582        0.390      341.696       16.588      860.449
03/20/2014  13:30:00      -21.883      -71.871        6.775       46.471       50.700       32.922     2159.526     2570.441     1083.859        0.575        0.291       75.129       27.126        0.130      341.628       16.473      860.422
03/20/2014  13:31:00       43.796      -65.733        0.817       57.044       62.596       33.048     3254.046     3918.266     1092.141        0.725        0.413       78.987       32.973        0.174      341.615       16.451      860.413
03/20/2014  13:32:00      -56.793        7.446        5.212       45.764       26.978       21.849     2094.380      727.790      477.367        0.330        0.165       57.279       22.968        0.161      342.098       17.270      860.416
03/20/2014  13:33:00      -48.069       12.077        4.417       46.662       38.198       23.279     2177.300     1459.088      541.904        0.333        0.209       49.563       16.476        0.111      341.744       16.670      860.407
03/20/2014  13:34:00      -29.223       55.143       16.980       38.083       35.018       33.638     1450.321     1226.279     1131.506        0.399        0.190       62.408       27.003        0.187      342.044       17.179      860.374
03/20/2014  13:35:00        1.406      -75.834       11.545       67.321       62.783       44.452     4532.093     3941.702     1976.020        0.817        0.522       75.847       47.102        0.386      341.650       16.511      860.362
03/20/2014  13:36:00      -22.206       95.967       -2.058       45.620      102.706       38.762     2081.175    10548.438     1502.462        1.192        0.707       98.503       37.707        0.147      341.686       16.570      860.370
03/20/2014  13:37:00      -13.522      217.050      -18.047       56.864      101.329       46.689     3233.520    10267.525     2179.889        3.165        0.784      217.470       41.306        0.036      341.631       16.477      860.342
03/20/2014  13:38:00      -64.715      287.873      -38.646       74.108       95.252       46.532     5491.965     9072.895     2165.217        5.264        0.837      295.057       46.924        0.025      341.597       16.417      860.312
03/20/2014  13:39:00      -29.069      211.751      -18.892       73.969      109.096       51.829     5471.457    11901.840     2686.202        3.305        1.003      213.737       55.211        0.067      341.731       16.645      860.293
03/20/2014  13:40:00      -41.586      328.683      -31.653       91.331       98.722       42.208     8341.426     9745.956     1781.534        6.531        0.993      331.303       33.211        0.010      341.838       16.824      860.270
03/20/2014  13:41:00       79.236      148.109       -2.876      130.491      124.928       50.849    17028.027    15606.956     2585.645        3.171        1.761      167.972       45.846        0.074      342.044       17.175      860.241
03/20/2014  13:42:00       81.461       72.309        0.568      107.198       75.484       52.492    11491.429     5697.834     2755.419        1.590        0.997      108.925       40.649        0.139      342.435       17.842      860.213
03/20/2014  13:43:00      206.853      152.658       12.699      103.744       75.097       62.541    10762.785     5639.540     3911.418        4.328        1.016      257.085       40.323        0.025      342.014       17.124      860.182
03/20/2014  13:44:00      122.208      144.350       11.486      117.179       94.426       68.950    13731.012     8916.351     4754.049        3.165        1.370      189.134       52.944        0.078      341.717       16.621      860.186
03/20/2014  13:45:00       56.772      266.897      -30.099       82.487      128.374       72.780     6804.039    16479.920     5296.913        5.197        1.429      272.868       68.827        0.064      341.415       16.109      860.162
03/20/2014  13:46:00      211.333      110.793       25.365      133.559       87.635       68.133    17838.040     7679.833     4642.143        4.386        1.508      238.614       48.048        0.041      341.877       16.893      860.124
03/20/2014  13:47:00       68.492      233.841       -2.531      125.298      173.918       75.027    15699.496    30247.392     5629.068        5.547        2.579      243.665       90.797        0.139      341.919       16.964      860.132
03/20/2014  13:48:00       42.876      214.247       -1.024      126.801      144.737       93.750    16078.530    20948.809     8788.978        4.677        2.291      218.495       95.665        0.192      341.978       17.064      860.151
03/20/2014  13:49:00       15.640      246.869      -26.439       95.423       99.406       54.392     9105.548     9881.496     2958.515        4.191        1.097      247.364       55.044        0.050      341.924       16.970      860.166
03/20/2014  13:50:00      -36.770      273.908      -27.996       71.609      109.758       51.286     5127.823    12046.800     2630.298        4.848        0.990      276.365       53.867        0.038      341.539       16.318      860.162
03/20/2014  13:51:00       31.821      192.252      -30.016       50.017      144.484       51.266     2501.693    20875.767     2628.177        3.243        1.300      194.868       73.545        0.142      341.610       16.441      860.150
03/20/2014  13:52:00       74.703      218.246      -18.497      101.074      107.909       70.726    10215.872    11644.457     5002.186        4.020        1.343      230.677       52.147        0.051      341.721       16.627      860.119
03/20/2014  13:53:00       25.304      149.406      -17.575       59.290       81.966       44.349     3515.333     6718.398     1966.861        1.773        0.610      151.533       44.493        0.086      342.089       17.255      860.106
03/20/2014  13:54:00       83.366      123.314      -18.930       47.128       81.580       41.514     2221.090     6655.338     1723.436        1.656        0.530      148.850       44.010        0.087      341.537       16.319      860.104
03/20/2014  13:55:00       77.349       63.499        4.103       63.563       57.313       35.524     4040.214     3284.815     1261.938        0.931        0.429      100.074       31.670        0.100      341.749       16.676      860.065
03/20/2014  13:56:00       38.690       16.392       21.216       86.136       60.505       36.646     7419.474     3660.870     1342.910        0.732        0.621       42.019       28.927        0.474      341.975       17.061      860.012
03/20/2014  13:57:00      -31.982      179.368      -10.157      118.759      116.742       49.113    14103.646    13628.722     2412.124        3.172        1.507      182.197       60.904        0.112      341.754       16.685      860.013
03/20/2014  13:58:00      -39.489      184.227      -30.091       73.481       67.037       40.495     5399.513     4493.952     1639.877        2.397        0.577      188.411       39.951        0.045      341.567       16.367      859.994
03/20/2014  13:59:00       -2.095      108.573       -0.992       36.454       77.610       26.920     1328.901     6023.377      724.681        0.993        0.404      108.593       37.779        0.121      341.823       16.803      859.947
03/20/2014  14:00:00       60.299      113.658        2.371       63.090       79.780       54.015     3980.384     6364.896     2917.606        1.491        0.663      128.663       45.748        0.126      342.026       17.147      859.924
03/20/2014  14:01:00       88.436      229.527      -20.713       96.439      112.950       65.850     9300.566    12757.813     4336.206        4.366        1.320      245.975       65.315        0.071      341.897       16.926      859.921
03/20/2014  14:02:00      100.534      214.088      -11.225      125.484      109.684       71.331    15746.205    12030.620     5088.070        4.446        1.643      236.517       68.569        0.084      341.944       17.005      859.907
03/20/2014  14:03:00       57.323      121.142       10.051       94.196      101.413       73.824     8872.865    10284.667     5450.043        2.133        1.230      134.020       59.282        0.196      341.963       17.039      859.899
03/20/2014  14:04:00      -77.337      148.250      -24.305      127.139       88.454       54.438    16164.204     7824.060     2963.490        2.775        1.348      167.210       52.353        0.098      342.189       17.423      859.906
03/20/2014  14:05:00      -81.244      174.726      -29.188       58.167       86.606       46.599     3383.345     7500.672     2171.454        2.552        0.653      192.691       35.686        0.034      341.950       17.018      859.908
03/20/2014  14:06:00      -61.658      165.970      -22.302       69.581      103.699       41.764     4841.528    10753.403     1744.217        2.459        0.867      177.053       48.393        0.075      341.818       16.793      859.895
03/20/2014  14:07:00      -47.661      228.365      -18.822       78.282      136.270       58.385     6128.033    18569.519     3408.862        4.144        1.405      233.286       66.906        0.082      341.856       16.857      859.867
03/20/2014  14:08:00      -66.883      166.893        5.704       82.017       90.601       59.617     6726.866     8208.575     3554.130        2.542        0.924      179.796       55.354        0.095      342.240       17.509      859.832
03/20/2014  14:09:00      -98.951      296.904      -32.653       56.007       97.424       44.323     3136.801     9491.381     1964.544        5.680        0.730      312.959       44.756        0.020      341.588       16.401      859.840
03/20/2014  14:10:00       10.207      182.426       -8.546       65.663       86.892       57.400     4311.571     7550.180     3294.754        2.430        0.758      182.711       54.118        0.088      341.922       16.969      859.828
03/20/2014  14:11:00      -81.964      339.235      -39.023       60.017      154.844       50.058     3602.056    23976.693     2505.806        7.670        1.504      348.997       66.901        0.037      341.714       16.615      859.827
03/20/2014  14:12:00       14.826      211.254      -25.685       72.602      144.306       43.490     5271.022    20824.231     1891.361        3.674        1.399      211.774       60.239        0.081      341.588       16.402      859.843
03/20/2014  14:13:00       28.002       91.616      -15.124       89.109       59.993       38.459     7940.502     3599.193     1479.063        1.121        0.651       95.800       37.688        0.155      341.903       16.939      859.807
03/20/2014  14:14:00        8.625      128.975       -3.396       62.086      108.407       45.664     3854.622    11752.036     2085.213        1.720        0.885      129.263       55.346        0.183      341.762       16.698      859.803
03/20/2014  14:15:00       13.872       41.477       11.048       60.994       47.990       35.159     3720.249     2303.046     1236.178        0.465        0.363       43.735       28.375        0.421      341.889       16.915      859.788
03/20/2014  14:16:00      -27.978       65.882       -5.186       46.961       36.901       23.816     2205.341     1361.658      567.182        0.464        0.207       71.577       20.959        0.086      341.855       16.858      859.744
03/20/2014  14:17:00      -27.104       45.924        8.494       36.576       47.246       24.119     1337.810     2232.186      581.722        0.353        0.208       53.326       10.611        0.040      342.047       17.184      859.715
03/20/2014  14:18:00      -17.334       47.283      -18.527       22.446       42.951       25.601      503.813     1844.805      655.409        0.294        0.150       50.360       18.274        0.132      341.985       17.080      859.698
03/20/2014  14:19:00       97.038       83.385       22.417       99.941       92.855       58.789     9988.258     8621.960     3456.091        1.946        1.103      127.943       43.068        0.113      342.208       17.455      859.687
03/20/2014  14:20:00      259.369      168.755       33.188       88.499       61.009       48.817     7832.042     3722.145     2383.121        5.539        0.697      309.436       24.229        0.006      341.814       16.784      859.661
03/20/2014  14:21:00      150.069      142.737       -1.551       73.101       75.113       67.525     5343.709     5641.986     4559.681        2.922        0.777      207.110       49.714        0.058      341.843       16.836      859.652
03/20/2014  14:22:00       90.741       83.680        5.851       70.846       48.586       44.380     5019.192     2360.605     1969.578        1.231        0.467      123.435       30.564        0.061      341.721       16.629      859.654
03/20/2014  14:23:00       80.609       64.837       14.270       53.359       38.949       41.629     2847.160     1517.027     1732.960        0.850        0.305      103.449       17.331        0.028      341.882       16.903      859.649
03/20/2014  14:24:00       96.680       90.088       43.239       92.440       57.524       63.791     8545.229     3308.971     4069.290        1.762        0.796      132.147       52.144        0.156      342.173       17.398      859.630
03/20/2014  14:25:00      -18.400       47.041       76.410       42.939       51.724       50.958     1843.717     2675.353     2596.752        0.775        0.356       50.512       38.103        0.569      342.465       17.893      859.615
03/20/2014  14:26:00      -11.291      -23.151       33.305       22.730       69.453       52.278      516.645     4823.706     2732.937        0.492        0.404       25.758       56.007        4.728      342.264       17.552      859.603
03/20/2014  14:27:00       -3.017      -84.013      -23.870       45.176       57.179       35.899     2040.837     3269.460     1288.744        0.712        0.330       84.067       28.586        0.116      342.317       17.641      859.578
03/20/2014  14:28:00       -0.800     -170.471      -33.540       84.159       63.413       53.661     7082.755     4021.169     2879.533        2.208        0.699      170.473       52.775        0.096      341.923       16.970      859.558
03/20/2014  14:29:00       66.072      -63.162        8.605       83.668      128.657       58.184     7000.417    16552.684     3385.337        1.768        1.347       91.406       71.925        0.619      341.789       16.744      859.554
03/20/2014  14:30:00       51.696       45.860       58.049       41.307       44.123       33.530     1706.302     1946.876     1124.263        0.646        0.239       69.106       27.411        0.157      341.933       16.991      859.533
03/20/2014  14:31:00       33.389       64.790       90.274       55.880       58.183       36.673     3122.526     3385.298     1344.901        1.066        0.393       72.887       39.029        0.287      342.402       17.786      859.526
03/20/2014  14:32:00       64.600       -5.132       51.422       90.416      100.376       75.442     8175.081    10075.283     5691.484        1.539        1.197       64.804       73.870        1.299      342.135       17.331      859.507
03/20/2014  14:33:00      112.940      100.695      111.082      106.960      109.475       85.957    11440.345    11984.719     7388.660        3.302        1.541      151.311       87.873        0.337      342.111       17.289      859.477
03/20/2014  14:34:00      152.893      152.565      116.760       76.908       71.094       67.973     5914.827     5054.356     4620.332        3.793        0.779      215.992       50.949        0.056      341.635       16.479      859.461
03/20/2014  14:35:00      105.541       46.850       46.348      130.564       77.414       69.542    17046.870     5992.977     4836.145        2.167        1.394      115.472       66.281        0.329      342.187       17.420      859.446
03/20/2014  14:36:00       72.115       64.347       18.148       80.436       68.319       55.209     6469.980     4667.501     3048.029        1.193        0.709       96.650       41.051        0.180      342.229       17.491      859.449
03/20/2014  14:37:00      137.809       95.194       18.985       88.879       71.083       55.897     7899.477     5052.782     3124.530        2.224        0.804      167.491       29.858        0.032      342.145       17.348      859.429
03/20/2014  14:38:00       55.422       59.161       48.979       81.529       55.757       55.961     6647.000     3108.807     3131.630        1.093        0.644       81.066       46.444        0.328      342.390       17.767      859.414
03/20/2014  14:39:00      109.781       67.383       15.780       47.598       38.001       38.693     2265.571     1444.042     1497.113        1.102        0.260      128.811       25.504        0.039      341.728       16.642      859.415
03/20/2014  14:40:00       93.741       38.869        6.138       46.327       49.103       33.986     2146.184     2411.104     1155.035        0.802        0.286      101.480       23.866        0.055      341.831       16.817      859.409
03/20/2014  14:41:00      118.258       52.830       22.303       52.593       50.954       41.867     2766.045     2596.348     1752.868        1.219        0.356      129.522       26.432        0.042      342.385       17.756      859.385
03/20/2014  14:42:00       14.862       16.878       55.088       46.101       72.173       55.156     2125.291     5208.888     3042.192        0.696        0.519       22.489       51.807        5.307      342.837       18.525      859.368
03/20/2014  14:43:00       44.615      115.220      165.155       77.857      121.595       67.057     6061.779    14785.361     4496.665        3.394        1.267      123.556       75.007        0.369      342.568       18.067      859.343
03/20/2014  14:44:00      135.872       99.837       78.736       89.993       73.884       65.784     8098.752     5458.840     4327.494        2.625        0.894      168.608       48.695        0.083      342.235       17.501      859.365
03/20/2014  14:45:00       39.317       16.974       76.237       75.634       80.696       48.118     5720.447     6511.815     2315.367        1.109        0.727       42.824       41.269        0.929      342.802       18.467      859.363
03/20/2014  14:46:00      151.168       15.015       85.018       88.351       86.272       79.931     7805.922     7442.886     6389.014        2.597        1.082      151.912       69.622        0.210      342.043       17.176      859.369
03/20/2014  14:47:00       67.249       57.788       51.397       67.199       69.331       53.531     4515.772     4806.826     2865.578        1.134        0.609       88.668       37.206        0.176      342.118       17.304      859.350
03/20/2014  14:48:00      163.187      176.831      115.262      135.502       80.163      102.932    18360.705     6426.180    10595.064        5.328        1.769      240.623       91.110        0.143      342.199       17.437      859.329
03/20/2014  14:49:00      108.830      106.502       53.875       91.036       75.668       89.363     8287.634     5725.709     7985.707        2.404        1.100      152.272       60.479        0.158      342.118       17.303      859.342
03/20/2014  14:50:00       67.010       -3.008       14.938       49.351       60.861       39.155     2435.524     3704.072     1533.110        0.620        0.384       67.078       40.536        0.365      342.019       17.137      859.338
03/20/2014  14:51:00       27.375        2.516       26.699       52.467       48.230       37.181     2752.808     2326.180     1382.412        0.396        0.323       27.491       34.077        1.537      342.200       17.445      859.331
03/20/2014  14:52:00       17.089       58.672        3.752       47.698       42.178       35.744     2275.060     1778.965     1277.669        0.454        0.267       61.110       21.769        0.127      341.955       17.027      859.322
03/20/2014  14:53:00      -70.510       -5.835      -28.113       51.085       53.527       38.145     2609.657     2865.118     1455.070        0.636        0.346       70.751       33.258        0.221      342.085       17.248      859.294
03/20/2014  14:54:00     -131.216       24.200      -15.483       62.334       63.161       40.412     3885.556     3989.323     1633.167        1.377        0.475      133.429       33.857        0.064      342.262       17.548      859.251
03/20/2014  14:55:00      -17.639       -3.403       39.620       72.507       38.289       36.331     5257.293     1466.037     1319.945        0.497        0.402       17.964       42.315        5.548      342.674       18.249      859.233
03/20/2014  14:56:00       25.809      106.174        4.233       39.383      100.096       42.757     1551.000    10019.286     1828.140        1.268        0.670      109.266       59.699        0.299      342.416       17.810      859.247
03/20/2014  14:57:00       49.439       69.385       -6.002       54.610       52.254       40.694     2982.252     2730.532     1656.028        0.733        0.368       85.197       35.786        0.176      342.170       17.392      859.246
03/20/2014  14:58:00      -58.162      221.066      -23.116      116.296       99.623       57.241    13524.668     9924.689     3276.585        3.975        1.336      228.589       68.695        0.090      342.662       18.226      859.231
03/20/2014  14:59:00      -49.560      113.421       -9.711       64.866       80.314       44.487     4207.641     6450.349     1979.118        1.402        0.632      123.776       34.352        0.077      342.766       18.406      859.244
03/20/2014  15:00:00      -38.868      198.874      -33.595       88.264       76.145       39.267     7790.596     5798.019     1541.862        2.866        0.757      202.636       34.013        0.028      342.297       17.605      859.227
03/20/2014  15:01:00      -81.770        9.291        9.426      134.446       84.552       55.753    18075.623     7149.024     3108.382        1.759        1.417       82.296       51.919        0.398      342.550       18.038      859.215
03/20/2014  15:02:00      -38.962       21.845       12.121       59.516       67.285       41.470     3542.174     4527.268     1719.774        0.596        0.489       44.668       27.622        0.382      342.632       18.179      859.185
03/20/2014  15:03:00      -42.104       56.742       23.214       59.217       89.456       52.393     3506.672     8002.364     2745.017        0.989        0.713       70.658       39.675        0.315      342.765       18.405      859.174
03/20/2014  15:04:00     -146.335      206.496      -42.417      100.256      109.232       52.248    10051.278    11931.571     2729.801        4.528        1.236      253.090       55.618        0.048      342.364       17.720      859.197
03/20/2014  15:05:00     -106.524      227.315      -24.839       80.695      114.906       56.326     6511.631    13203.292     3172.641        4.326        1.144      251.037       52.983        0.045      342.549       18.034      859.194
03/20/2014  15:06:00      -89.197      179.618        6.693      102.275      123.517       66.764    10460.120    15256.519     4457.454        3.521        1.509      200.546       57.660        0.083      342.686       18.267      859.199
03/20/2014  15:07:00      -15.577      245.829      -23.878       54.806      108.705       47.596     3003.707    11816.722     2265.392        3.916        0.854      246.322       51.775        0.044      342.431       17.831      859.208
03/20/2014  15:08:00      -26.059      208.366      -21.231       58.237       74.369       40.131     3391.554     5530.708     1610.536        2.754        0.527      209.989       34.583        0.027      342.600       18.120      859.208
03/20/2014  15:09:00     -114.864      145.676      -22.086       65.587       63.981       47.681     4301.590     4093.539     2273.515        2.278        0.533      185.514       34.087        0.034      342.647       18.202      859.198
03/20/2014  15:10:00      -40.696      100.103      -17.989       51.510       49.963       39.468     2653.237     2496.279     1557.721        0.935        0.335      108.060       27.298        0.064      342.524       17.993      859.197
03/20/2014  15:11:00       29.682      188.082      -17.363       57.138       74.414       47.610     3264.710     5537.495     2266.706        2.381        0.553      190.410       43.212        0.052      342.328       17.657      859.166
03/20/2014  15:12:00      108.066      103.046        3.741       78.234       83.447       55.269     6120.625     6963.417     3054.621        1.922        0.807      149.321       47.665        0.102      342.126       17.317      859.158
03/20/2014  15:13:00      115.011      115.311       13.924       57.204       56.490       41.131     3272.351     3191.141     1691.726        1.744        0.408      162.862       29.353        0.032      341.976       17.063      859.156
03/20/2014  15:14:00       49.109       52.101       16.663       36.978       33.126       31.123     1367.342     1097.320      968.638        0.442        0.172       71.597       22.277        0.097      342.202       17.447      859.147
03/20/2014  15:15:00       -2.454       69.189        6.239       80.057       38.916       31.162     6409.171     1514.477      971.054        0.686        0.445       69.232       42.865        0.383      342.192       17.430      859.137
03/20/2014  15:16:00      -47.599      130.846       -6.610       64.574       63.807       41.495     4169.782     4071.346     1721.829        1.469        0.498      139.235       42.249        0.092      342.212       17.464      859.133
03/20/2014  15:17:00       -2.034      108.452      -22.236       22.297       39.395       19.112      497.157     1551.948      365.280        0.734        0.121      108.471       13.643        0.016      341.938       16.998      859.103
03/20/2014  15:18:00      -50.003        0.337        3.461       80.835       58.241       38.436     6534.359     3391.966     1477.291        0.696        0.570       50.004       42.355        0.717      342.614       18.147      859.092
03/20/2014  15:19:00       28.446       71.568       -4.901       34.605       50.255       34.033     1197.475     2525.565     1158.274        0.542        0.244       77.014       31.392        0.166      342.325       17.656      859.101
03/20/2014  15:20:00      -10.299       76.795      -10.627       37.757       36.051       26.945     1425.593     1299.708      726.054        0.478        0.173       77.483       17.030        0.048      342.382       17.752      859.097
03/20/2014  15:21:00      -32.460       73.997       -4.337       57.119       47.497       35.915     3262.546     2255.943     1289.866        0.668        0.340       80.803       29.722        0.135      342.650       18.208      859.102
03/20/2014  15:22:00      -46.602       78.773        0.095       81.833       70.605       43.951     6696.666     4985.030     1931.722        1.099        0.681       91.526       46.722        0.261      342.699       18.291      859.104
03/20/2014  15:23:00      -92.991      -11.759      -13.896       56.351       72.199       43.044     3175.451     5212.718     1852.756        0.961        0.512       93.732       44.519        0.226      342.129       17.322      859.076
03/20/2014  15:24:00      -51.409      120.003        0.448       70.380       92.548       44.598     4953.391     8565.148     1988.972        1.627        0.775      130.551       41.654        0.102      342.531       18.005      859.063
03/20/2014  15:25:00      -44.410      146.611      -15.059       58.847      124.735       45.918     3462.932    15558.754     2108.479        2.241        1.057      153.189       17.042        0.012      342.350       17.697      859.034
03/20/2014  15:26:00      -96.718      111.664      -27.603      131.245       90.780       42.091    17225.174     8240.952     1771.650        2.491        1.362      147.727       39.060        0.070      342.409       17.798      859.022
03/20/2014  15:27:00     -119.740      125.368      -17.204       67.126       83.132       52.326     4505.939     6910.973     2738.010        2.225        0.708      173.363       39.965        0.053      342.560       18.054      859.017
03/20/2014  15:28:00     -199.785       64.236      -38.011       95.260       99.355       51.929     9074.443     9871.352     2696.633        3.356        1.082      209.858       47.201        0.051      342.391       17.766      859.003
03/20/2014  15:29:00     -139.998      139.602      -19.500       82.458      102.613       49.703     6799.349    10529.459     2470.389        2.963        0.990      197.708       43.698        0.049      342.635       18.180      858.994
03/20/2014  15:30:00      -52.364      243.838      -21.471       88.883      141.294       55.730     7900.178    19963.970     3105.792        4.681        1.548      249.397       61.664        0.061      342.660       18.223      858.996
03/20/2014  15:31:00      -38.221      405.505      -45.455       52.251       75.850       43.461     2730.167     5753.153     1888.889        8.916        0.519      407.302       36.161        0.008      341.981       17.068      859.001
03/20/2014  15:32:00       49.811      248.899      -20.114       71.651      112.700       65.484     5133.872    12701.214     4288.139        4.348        1.106      253.835       70.960        0.078      342.074       17.225      858.990
03/20/2014  15:33:00       99.512      120.934       19.631      127.316       90.415       86.946    16209.281     8174.832     7559.646        2.842        1.597      156.613       71.375        0.208      342.430       17.833      858.972
03/20/2014  15:34:00      167.154      119.443        5.302       91.836       71.561       55.194     8433.928     5121.009     3046.330        2.942        0.830      205.443       39.478        0.037      342.288       17.590      858.955
03/20/2014  15:35:00      -19.522      160.640      -14.105       81.906      103.797       51.911     6708.587    10773.720     2694.755        2.328        1.009      161.822       54.921        0.115      342.474       17.906      858.977
03/20/2014  15:36:00     -166.692      308.253      -39.321       84.528      144.914       73.293     7144.943    21000.013     5371.888        7.893        1.676      350.437       66.227        0.036      342.417       17.809      858.980
03/20/2014  15:37:00       -7.004      223.983      -16.058       89.565      137.246       60.584     8021.886    18836.384     3670.399        4.050        1.526      224.093       73.422        0.107      342.240       17.510      858.997
03/20/2014  15:38:00       41.389      220.508      -21.397       66.711       91.189       60.790     4450.393     8315.469     3695.367        3.363        0.823      224.359       58.815        0.069      342.267       17.555      858.979
03/20/2014  15:39:00       31.896      359.406      -48.394       53.575      133.936       56.537     2870.271    17938.819     3196.407        7.826        1.200      360.819       67.754        0.035      342.031       17.152      858.980
03/20/2014  15:40:00      -25.165      302.963      -32.102       67.308      108.273       45.513     4530.319    11723.142     2071.472        5.588        0.916      304.007       56.313        0.034      342.199       17.439      858.990
03/20/2014  15:41:00      -42.984      187.033       -6.246       64.048       79.303       52.066     4102.192     6288.887     2710.876        2.498        0.655      191.908       48.485        0.064      342.550       18.035      858.989
03/20/2014  15:42:00      -61.540      187.769      -19.477       71.331       83.362       41.466     5088.109     6949.269     1719.427        2.659        0.688      197.597       51.324        0.067      342.469       17.899      858.966
03/20/2014  15:43:00      -14.543      204.070      -21.212       70.387       58.448       42.724     4954.361     3416.172     1825.361        2.625        0.510      204.588       25.446        0.015      342.429       17.831      858.936
03/20/2014  15:44:00      -57.041      146.634      -14.927       54.259      112.067       38.992     2944.001    12558.919     1520.398        2.100        0.851      157.337       45.873        0.085      342.520       17.987      858.933
03/20/2014  15:45:00      -22.147      202.384      -28.865       46.295       64.590       27.802     2143.271     4171.912      772.956        2.468        0.354      203.593       26.950        0.018      342.214       17.464      858.938
03/20/2014  15:46:00       -9.967       90.225      -16.806       29.763       71.476       25.887      885.824     5108.838      670.140        0.759        0.333       90.774       34.509        0.145      342.154       17.366      858.928
03/20/2014  15:47:00       -7.901       92.262        4.309       65.036       72.277       40.759     4229.731     5223.939     1661.332        0.985        0.556       92.600       48.086        0.270      342.224       17.483      858.904
03/20/2014  15:48:00       19.697       70.712      -12.290       33.128       60.758       28.580     1097.433     3691.492      816.790        0.557        0.280       73.404       36.021        0.241      342.205       17.450      858.871
03/20/2014  15:49:00       -5.598       92.926       -2.762       28.100       43.132       25.070      789.597     1860.397      628.482        0.598        0.164       93.094       20.094        0.047      342.462       17.888      858.841
03/20/2014  15:50:00       51.354       56.592        9.917       48.505       44.633       42.118     2352.725     1992.137     1773.892        0.603        0.306       76.419       27.120        0.126      342.478       17.914      858.832
03/20/2014  15:51:00      109.273      185.859       -1.629      105.587      126.415       88.518    11148.719    15980.688     7835.479        4.072        1.748      215.602       78.841        0.134      342.487       17.928      858.800
03/20/2014  15:52:00      108.527      253.411      -10.087      110.285      137.908      102.805    12162.690    19018.659    10568.859        5.892        2.088      275.672       92.826        0.113      342.351       17.697      858.809
03/20/2014  15:53:00      128.491      226.924      -19.919       90.109      126.906       97.913     8119.651    16105.022     9587.022        5.110        1.691      260.777       86.952        0.111      342.177       17.402      858.806
03/20/2014  15:54:00      137.412      125.295      -13.440       68.170       63.362       45.233     4647.137     4014.724     2046.065        2.273        0.535      185.959       35.670        0.037      342.273       17.563      858.785
03/20/2014  15:55:00       33.274      148.396       -9.663      105.601      135.508       41.335    11151.552    18362.475     1708.556        2.722        1.561      152.081       56.681        0.139      342.641       18.191      858.784
03/20/2014  15:56:00      -48.714      363.193      -38.100       42.069      105.604       34.161     1769.818    11152.126     1166.956        7.491        0.704      366.445       36.255        0.010      342.052       17.188      858.837
03/20/2014  15:57:00        2.957      311.880      -28.116       66.430      120.715       60.516     4412.950    14572.129     3662.132        6.035        1.132      311.894       61.586        0.039      342.343       17.682      858.815
03/20/2014  15:58:00     -147.179      316.876      -37.237       76.224      117.355       56.716     5810.126    13772.239     3216.702        7.313        1.140      349.388       58.883        0.028      342.262       17.545      858.801
03/20/2014  15:59:00     -114.901      192.514      -22.263       65.248       88.117       55.930     4257.274     7764.553     3128.165        3.295        0.757      224.196       28.722        0.016      342.402       17.784      858.787
03/20/2014  16:00:00     -113.368      316.457      -28.641       72.355       91.206       48.498     5235.216     8318.532     2352.084        6.486        0.795      336.151       44.119        0.017      342.164       17.378      858.764
03/20/2014  16:01:00     -135.814      218.511      -40.505       46.976      140.460       41.391     2206.781    19728.991     1713.227        4.574        1.182      257.279       41.251        0.026      342.236       17.502      858.757
03/20/2014  16:02:00     -208.649        5.370      -21.211       77.241       70.053       31.906     5966.111     4907.467     1018.014        2.795        0.595      208.718       36.552        0.031      342.413       17.801      858.704
03/20/2014  16:03:00     -197.882      192.550      -48.419       58.197       94.179       42.708     3386.910     8869.677     1823.997        4.633        0.704      276.103       46.254        0.028      342.379       17.742      858.744
03/20/2014  16:04:00       63.207      319.065      -29.231      117.535      119.928       79.318    13814.425    14382.769     6291.313        7.056        1.724      325.266       77.927        0.057      342.361       17.713      858.748
03/20/2014  16:05:00      -11.990      305.779      -33.461       67.800      135.833       62.874     4596.873    18450.500     3953.118        6.088        1.350      306.014       77.510        0.064      342.183       17.412      858.747
03/20/2014  16:06:00      -67.123      129.053      -21.808       94.625       57.937       39.606     8953.803     3356.703     1568.608        1.776        0.694      145.465       30.600        0.044      342.409       17.797      858.729
03/20/2014  16:07:00      -31.185      332.528      -36.230       81.297      113.950       52.325     6609.152    12984.554     2737.923        6.759        1.117      333.987       46.334        0.019      342.288       17.588      858.721
03/20/2014  16:08:00      -65.439      199.061       -9.708       69.003      118.275       56.479     4761.346    13988.956     3189.836        3.297        1.097      209.541       67.010        0.102      342.260       17.543      858.712
03/20/2014  16:09:00      168.916      151.401        3.424      126.407       94.212       71.167    15978.803     8875.839     5064.764        4.069        1.496      226.836       41.782        0.034      342.246       17.518      858.689
03/20/2014  16:10:00      144.731       96.133       21.604       77.275       51.857       43.756     5971.410     2689.200     1914.579        2.061        0.529      173.749       33.694        0.038      342.165       17.382      858.667
03/20/2014  16:11:00      200.595      164.853        4.623      153.989      104.381       63.242    23712.695    10895.426     3999.581        5.302        1.930      259.644       48.140        0.034      342.181       17.408      858.658
03/20/2014  16:12:00       92.308      212.051      -14.952       96.231      123.400       75.950     9260.311    15227.587     5768.353        4.198        1.513      231.271       78.632        0.116      342.237       17.502      858.645
03/20/2014  16:13:00      158.152      142.938        5.369      106.407       94.946       60.021    11322.522     9014.837     3602.573        3.470        1.197      213.175       54.052        0.064      342.326       17.654      858.644
03/20/2014  16:14:00      183.710      107.883       15.119       81.316       68.470       59.064     6612.323     4688.128     3488.569        3.020        0.739      213.045       31.127        0.021      342.355       17.703      858.636
03/20/2014  16:15:00       83.158       68.417       24.845       64.816       47.793       48.073     4201.150     2284.150     2311.023        1.050        0.440      107.685       26.188        0.059      342.462       17.889      858.623
03/20/2014  16:16:00       80.784       70.855       -0.179       56.126       37.448       35.895     3150.129     1402.354     1288.477        0.869        0.292      107.454       28.701        0.071      342.301       17.614      858.619
03/20/2014  16:17:00      -37.300       93.571      -19.599       28.602       49.074       21.030      818.060     2408.229      442.243        0.710        0.183      100.731       21.128        0.044      342.424       17.823      858.609
03/20/2014  16:18:00        6.727       71.606        2.545       48.415       48.997       35.601     2343.967     2400.720     1267.403        0.559        0.301       71.921       32.209        0.201      342.915       18.660      858.600
03/20/2014  16:19:00      -48.361       65.733       -8.140       93.238       89.917       42.558     8693.316     8085.094     1811.213        1.265        0.929       81.606       38.893        0.227      342.793       18.451      858.592
03/20/2014  16:20:00      -80.641      -41.211       -7.276       81.392       30.078       26.079     6624.646      904.676      680.095        0.823        0.410       90.561       27.429        0.092      342.630       18.175      858.571
03/20/2014  16:21:00      -21.376      -36.412        5.302       90.934       40.597       29.887     8269.077     1648.079      893.217        0.631        0.541       42.222       19.781        0.219      342.846       18.542      858.539
03/20/2014  16:22:00      -87.182       95.173      -27.800       48.837       36.496       25.051     2385.055     1331.944      627.536        1.089        0.217      129.068       16.254        0.016      342.499       17.952      858.538
03/20/2014  16:23:00      -31.457       49.083       -5.116       23.954       42.895       25.116      573.807     1840.004      630.833        0.323        0.152       58.298       19.310        0.110      342.610       18.141      858.519
03/20/2014  16:24:00      -40.897       -1.993       -0.614       47.477       23.202       18.457     2254.023      538.346      340.665        0.240        0.157       40.946       14.579        0.127      342.648       18.205      858.515
03/20/2014  16:25:00     -149.322       70.000      -15.013       75.544      130.263       37.576     5706.944    16968.407     1411.954        2.575        1.204      164.915       33.286        0.041      342.839       18.527      858.532
03/20/2014  16:26:00     -227.352      137.977      -27.292      106.577       91.846       58.094    11358.642     8435.729     3374.904        4.732        1.158      265.944       58.246        0.048      342.548       18.033      858.541
03/20/2014  16:27:00     -143.811      190.439      -30.972       77.278       75.975       54.826     5971.912     5772.260     3005.920        3.633        0.738      238.639       46.093        0.037      342.474       17.906      858.545
03/20/2014  16:28:00     -150.180      232.437      -24.655      101.832      115.187       58.234    10369.832    13267.979     3391.169        5.210        1.351      276.733       53.529        0.037      342.711       18.308      858.528
03/20/2014  16:29:00     -170.289      173.655      -30.487      118.166      124.225       50.206    13963.318    15431.886     2520.688        4.599        1.596      243.217       50.705        0.043      342.663       18.228      858.536
03/20/2014  16:30:00      -71.857       18.143       47.884      128.489      103.949       63.051    16509.528    10805.366     3975.473        1.953        1.565       74.112       68.310        0.850      342.730       18.345      858.514
03/20/2014  16:31:00     -143.357      141.167      -36.376       81.083       71.792       51.183     6574.385     5154.162     2619.718        2.807        0.717      201.195       52.774        0.069      342.779       18.426      858.524
03/20/2014  16:32:00     -106.433      180.836      -13.302       63.046      119.199       49.871     3974.857    14208.408     2487.098        3.244        1.034      209.833       57.399        0.075      342.662       18.225      858.536
03/20/2014  16:33:00     -112.167      178.850      -18.822       63.040       75.190       42.377     3974.099     5653.521     1795.797        2.817        0.571      211.113       40.743        0.037      342.488       17.929      858.560
03/20/2014  16:34:00      -22.706       50.703       -5.179       54.357       43.202       27.176     2954.710     1866.428      738.546        0.434        0.278       55.555       30.652        0.304      342.468       17.898      858.539
03/20/2014  16:35:00       74.061       55.773       -3.332       31.227       31.403       28.996      975.151      986.176      840.778        0.570        0.140       92.713       18.204        0.039      342.354       17.704      858.492
03/20/2014  16:36:00      -19.198       10.181       -6.251       33.776       56.230       22.271     1140.811     3161.790      495.997        0.265        0.240       21.731       24.538        1.275      342.589       18.105      858.462
03/20/2014  16:37:00     -109.977      -46.187       -2.564       56.892       45.955       27.559     3236.682     2111.899      759.511        1.017        0.305      119.282       22.389        0.035      343.023       18.844      858.464
03/20/2014  16:38:00      -70.124      -79.929       -0.255       84.832       63.148       35.201     7196.402     3987.691     1239.095        1.186        0.621      106.330       38.200        0.129      342.738       18.357      858.444
03/20/2014  16:39:00       -1.276        2.499       35.084       73.063       83.611       52.055     5338.268     6990.875     2709.771        0.814        0.752        2.806       55.904      396.968      342.804       18.469      858.427
03/20/2014  16:40:00       16.884      111.016        8.071       50.132       60.140       52.933     2513.192     3616.853     2801.878        1.080        0.447      112.293       42.794        0.145      342.822       18.501      858.434
03/20/2014  16:41:00      -13.846       56.680        3.199       63.274       49.489       28.037     4003.595     2449.132      786.053        0.533        0.362       58.347       18.409        0.100      342.730       18.344      858.436
03/20/2014  16:42:00       -0.923      147.180      -21.799       46.411       86.639       32.280     2154.024     7506.354     1042.024        1.642        0.535      147.183       44.294        0.091      342.633       18.178      858.444
03/20/2014  16:43:00       33.755      207.652      -11.764      127.450      109.733       62.344    16243.558    12041.324     3886.786        3.828        1.609      210.378       64.767        0.095      342.755       18.383      858.443
03/20/2014  16:44:00       28.414      266.709      -28.625       91.406       98.046       56.762     8355.098     9613.003     3221.869        4.697        1.059      268.218       62.587        0.054      342.375       17.738      858.431
03/20/2014  16:45:00      -26.500      236.190      -19.065       47.812       89.425       46.491     2286.031     7996.834     2161.410        3.465        0.622      237.672       42.061        0.031      342.617       18.149      858.410
03/20/2014  16:46:00       47.233       77.972        6.390       64.072       94.682       36.551     4105.228     8964.620     1336.011        1.138        0.720       91.163       44.884        0.242      342.539       18.018      858.408
03/20/2014  16:47:00       57.181      134.305        4.383       67.989       76.300       55.006     4622.528     5821.665     3025.638        1.740        0.673      145.971       47.084        0.104      342.680       18.258      858.390
03/20/2014  16:48:00      134.513      150.438       12.014       96.328       82.729       60.600     9279.004     6844.052     3672.337        3.033        0.990      201.805       51.560        0.065      342.450       17.864      858.383
03/20/2014  16:49:00      108.305       61.945       27.877       75.429       62.320       48.114     5689.473     3883.790     2314.945        1.411        0.594      124.769       21.560        0.030      342.518       17.982      858.388
03/20/2014  16:50:00       26.279       73.499        3.512       49.767       42.888       32.172     2476.783     1839.383     1035.069        0.573        0.268       78.055       25.102        0.103      342.611       18.142      858.383
03/20/2014  16:51:00       53.393       24.788       22.350      104.108       47.707       39.064    10838.538     2275.995     1526.029        0.930        0.732       58.866       22.341        0.144      342.855       18.557      858.383
03/20/2014  16:52:00       55.153       39.192        8.347       54.655       45.123       39.504     2987.151     2036.105     1560.573        0.561        0.329       67.660       29.177        0.186      342.930       18.685      858.379
03/20/2014  16:53:00      167.494      104.005       48.910       80.313       59.528       64.538     6450.108     3543.542     4165.214        2.771        0.708      197.158       44.007        0.050      342.599       18.120      858.371
03/20/2014  16:54:00       83.542      104.802       14.022       95.014       46.860       52.073     9027.727     2195.886     2711.625        1.604        0.697      134.025       42.145        0.099      342.590       18.105      858.375
03/20/2014  16:55:00       38.728      128.447      -18.348       93.831       70.303       41.641     8804.238     4942.454     1733.993        1.691        0.774      134.158       36.904        0.076      342.689       18.271      858.392
03/20/2014  16:56:00      -50.382      416.421      -51.169       80.322      129.579       57.042     6451.553    16790.824     3253.831       10.253        1.325      419.458       52.626        0.016      342.210       17.458      858.392
03/20/2014  16:57:00       22.786      388.880      -52.372      100.732       75.915       57.670    10146.851     5763.090     3325.885        8.686        0.962      389.547       36.827        0.009      342.217       17.468      858.369
03/20/2014  16:58:00       -3.329      527.959      -78.772      107.221      152.388       63.859    11496.284    23222.188     4077.969       16.187        1.940      527.970       78.998        0.022      342.122       17.307      858.355
03/20/2014  16:59:00      -10.711      467.136      -65.064       60.540       83.403       52.420     3665.146     6955.992     2747.882       11.796        0.668      467.259       44.565        0.009      342.164       17.379      858.351
03/20/2014  17:00:00       60.132      258.932       -5.537      109.896      176.854       95.866    12077.093    31277.346     9190.340        6.161        2.627      265.822       94.330        0.126      342.316       17.637      858.340
03/20/2014  17:01:00      -27.115      260.451      -29.169       87.874      102.282       62.169     7721.753    10461.596     3865.008        4.573        1.102      261.859       59.589        0.052      342.478       17.912      858.350
03/20/2014  17:02:00       89.280      222.586       -2.946      118.314      142.374       92.874    13998.138    20270.432     8625.489        5.020        2.145      239.824       88.229        0.135      342.442       17.852      858.337
03/20/2014  17:03:00      145.109      269.488      -10.110      135.021      148.042       93.234    18230.762    21916.374     8692.541        7.130        2.442      306.073       94.962        0.096      342.310       17.628      858.320
03/20/2014  17:04:00      109.874      138.904        1.652       99.121      119.221       68.627     9825.044    14213.720     4709.642        3.005        1.437      177.106       66.355        0.140      342.443       17.854      858.320
03/20/2014  17:05:00      193.690      123.065       31.023      107.992       74.185       70.746    11662.331     5503.477     5005.056        3.789        1.109      229.480       48.549        0.045      342.583       18.090      858.296
03/20/2014  17:06:00      163.630      124.267       48.658      143.268       85.165       55.795    20525.781     7253.078     3113.113        3.773        1.545      205.468       27.502        0.018      342.519       17.983      858.263
03/20/2014  17:07:00      109.030      134.830       13.965      127.291       79.235       69.799    16203.008     6278.224     4871.842        2.880        1.368      173.398       50.792        0.086      342.426       17.823      858.279
03/20/2014  17:08:00        6.099      276.384      -28.290       66.093      142.939       56.488     4368.257    20431.491     3190.920        5.260        1.400      276.451       70.354        0.065      342.480       17.917      858.314
03/20/2014  17:09:00       -0.205      409.972      -47.445       86.987      141.698       58.616     7566.730    20078.464     3435.869       10.070        1.554      409.972       59.967        0.021      342.162       17.375      858.296
03/20/2014  17:10:00      200.935      210.036        6.397      150.070      148.080       83.418    22521.087    21927.577     6958.531        6.796        2.570      290.672       85.243        0.086      342.434       17.839      858.332
03/20/2014  17:11:00      243.572      209.329       13.600      139.724      108.135       98.925    19522.692    11693.265     9786.233        7.216        2.050      321.163       78.892        0.060      342.312       17.629      858.336
03/20/2014  17:12:00      233.065      167.031       30.358      177.335      100.116       72.814    31447.564    10023.129     5301.913        6.495        2.339      286.738       40.043        0.020      342.304       17.618      858.320
03/20/2014  17:13:00       90.986      113.227       36.110       92.918       79.917       78.528     8633.790     6386.800     6166.720        2.179        1.059      145.254       50.722        0.122      342.357       17.709      858.322
03/20/2014  17:14:00      129.034      137.340       30.440      164.926       86.168       77.269    27200.681     7424.890     5970.575        3.851        2.030      188.446       61.990        0.108      342.318       17.641      858.344
03/20/2014  17:15:00      111.342      175.823       -4.693      116.327      122.616       85.341    13531.958    15034.752     7283.115        3.959        1.792      208.112       80.318        0.149      342.116       17.299      858.359
03/20/2014  17:16:00      134.347      153.001        7.326       94.438       88.349       76.230     8918.524     7805.548     5811.084        3.202        1.127      203.614       64.484        0.100      342.138       17.337      858.361
03/20/2014  17:17:00       52.582      131.796      -12.409       61.356       98.686       43.220     3764.531     9739.005     1867.932        1.783        0.769      141.898       35.297        0.062      342.136       17.332      858.360
03/20/2014  17:18:00       79.282      139.633       -9.854       78.987       76.434       41.640     6238.941     5842.225     1733.903        1.985        0.691      160.571       29.935        0.035      342.193       17.431      858.361
03/20/2014  17:19:00       23.702       91.991      -11.136       40.673       55.307       27.007     1654.304     3058.809      729.379        0.729        0.272       94.995       27.884        0.086      342.247       17.523      858.352
03/20/2014  17:20:00       75.040      169.433      -19.812       75.630       89.363       35.010     5719.929     7985.817     1225.733        2.483        0.747      185.306       42.141        0.052      342.181       17.407      858.358
03/20/2014  17:21:00       68.937      114.204        0.998       54.203       61.311       45.170     2937.975     3759.028     2040.371        1.327        0.437      133.397       40.614        0.093      342.364       17.722      858.359
03/20/2014  17:22:00      214.854      145.425       25.996       91.927       76.154       60.572     8450.500     5799.367     3668.922        4.295        0.896      259.443       43.724        0.028      342.206       17.449      858.358
03/20/2014  17:23:00      153.661      112.673       25.751       76.050       58.438       55.053     5783.664     3414.992     3030.798        2.460        0.611      190.543       34.142        0.032      342.170       17.390      858.364
03/20/2014  17:24:00       78.676       49.091       21.503       77.149       54.804       39.567     5952.005     3003.485     1565.568        0.979        0.526       92.735       13.325        0.021      342.331       17.665      858.365
03/20/2014  17:25:00       91.679       83.473        5.937       84.882       50.656       57.903     7204.935     2565.992     3352.719        1.426        0.656      123.987       41.671        0.113      342.232       17.497      858.347
03/20/2014  17:26:00       86.910       62.080       32.657      109.668       84.504       54.337    12027.030     7140.966     2952.548        1.729        1.106      106.805       33.798        0.100      342.399       17.781      858.348
03/20/2014  17:27:00      177.486       82.668       25.435       93.638       84.329       47.155     8768.027     7111.420     2223.550        2.854        0.905      195.794       36.138        0.034      342.278       17.573      858.351
03/20/2014  17:28:00       10.654      195.739      -22.869      129.443      161.383       65.225    16755.602    26044.337     4254.332        4.299        2.353      196.029       83.166        0.180      342.353       17.700      858.365
03/20/2014  17:29:00        5.183      313.994      -48.925       65.052       97.094       43.329     4231.819     9427.163     1877.395        5.827        0.777      314.037       44.378        0.020      342.206       17.448      858.370
03/20/2014  17:30:00        4.931      122.570       -1.288       43.060       92.589       44.445     1854.129     8572.693     1975.360        1.372        0.620      122.669       46.559        0.144      342.309       17.630      858.371
03/20/2014  17:31:00      155.902      208.942       -4.852      155.978      111.961       67.736    24329.149    12535.262     4588.137        5.471        2.073      260.695       57.157        0.048      342.269       17.558      858.365
03/20/2014  17:32:00      144.170      326.198       -6.061      226.269      168.578       96.671    51197.467    28418.649     9345.228       10.808        4.448      356.638       98.637        0.076      342.248       17.520      858.363
03/20/2014  17:33:00       20.044      400.071      -53.048       94.364      132.299       66.727     8904.502    17503.058     4452.493        9.706        1.543      400.572       71.100        0.032      342.253       17.530      858.387
03/20/2014  17:34:00       61.624      309.875      -34.281      106.680      146.837       84.767    11380.629    21561.149     7185.411        7.055        2.006      315.943       82.616        0.068      342.176       17.399      858.390
03/20/2014  17:35:00       28.738      299.861      -29.898       93.396      140.402       70.244     8722.842    19712.856     4934.210        6.250        1.668      301.234       71.970        0.057      342.247       17.520      858.394
03/20/2014  17:36:00       97.968      124.488        1.542       95.880       76.820       53.729     9193.023     5901.268     2886.778        2.154        0.899      158.414       40.906        0.067      342.357       17.709      858.398
03/20/2014  17:37:00      147.092      110.189       17.465      107.450       60.872       66.326    11545.450     3705.423     4399.128        2.686        0.983      183.787       43.704        0.057      342.273       17.564      858.405
03/20/2014  17:38:00       81.735      120.234       -2.012       93.699       71.693       57.222     8779.516     5139.910     3274.377        1.916        0.860      145.385       42.448        0.085      342.266       17.554      858.411
03/20/2014  17:39:00       23.071      171.597      -16.626       67.320      130.628       55.768     4532.016    17063.662     3110.058        2.748        1.235      173.141       66.778        0.149      342.206       17.452      858.409
03/20/2014  17:40:00       -6.851      142.006      -12.648       60.956       63.939       41.382     3715.590     4088.235     1712.470        1.494        0.476      142.171       38.203        0.072      342.314       17.634      858.412
03/20/2014  17:41:00       43.988      100.130       10.084       62.439       84.936       49.760     3898.657     7214.149     2476.060        1.282        0.679      109.366       50.295        0.211      342.370       17.731      858.424
03/20/2014  17:42:00       11.927      166.285      -28.307       65.192       61.675       39.170     4250.054     3803.832     1534.278        1.909        0.479      166.712       27.539        0.027      342.232       17.496      858.430
03/20/2014  17:43:00       73.165      119.619       -1.907       74.181       73.533       47.362     5502.776     5407.049     2243.129        1.641        0.658      140.221       35.909        0.066      342.176       17.402      858.427
03/20/2014  17:44:00       43.685      154.063       -9.977       74.918       91.700       47.766     5612.666     8408.976     2281.613        2.102        0.815      160.136       42.433        0.070      342.195       17.432      858.425
03/20/2014  17:45:00      115.574      133.366       -8.299       67.127       90.665       47.724     4506.045     8220.094     2277.543        2.311        0.750      176.476       40.275        0.052      342.239       17.509      858.427
03/20/2014  17:46:00       70.230      316.699      -25.676       73.935      160.740       87.495     5466.410    25837.286     7655.325        7.242        1.948      324.392       85.069        0.069      342.190       17.425      858.436
03/20/2014  17:47:00       76.028      206.365      -15.029       85.794      137.545       78.849     7360.668    18918.547     6217.104        4.054        1.625      219.925       78.674        0.128      342.150       17.355      858.440
03/20/2014  17:48:00      109.404      135.633        0.014      109.254       80.370       68.681    11936.484     6459.262     4717.143        2.674        1.156      174.257       52.205        0.090      342.065       17.211      858.450
03/20/2014  17:49:00      181.250      184.897       -4.273      103.414      102.178       91.048    10694.539    10440.410     8289.758        4.824        1.471      258.918       78.317        0.091      342.001       17.102      858.446
03/20/2014  17:50:00      125.245      141.899        9.860       84.454       74.453       56.664     7132.529     5543.247     3210.809        2.590        0.794      189.266       48.953        0.067      342.030       17.151      858.445
03/20/2014  17:51:00      110.204      134.148        9.044       90.765       66.217       53.681     8238.280     4384.639     2881.692        2.286        0.775      173.610       46.760        0.073      342.103       17.276      858.448
03/20/2014  17:52:00       75.639      135.548       -3.677       62.538      111.333       57.959     3911.004    12394.938     3359.242        2.188        0.983      155.224       66.982        0.186      342.182       17.411      858.460
03/20/2014  17:53:00      155.087       83.815        9.728       97.626       59.747       46.516     9530.776     3569.749     2163.717        2.322        0.763      176.287       30.399        0.030      342.240       17.509      858.461
03/20/2014  17:54:00       57.116      143.429      -21.187       41.857       72.451       43.354     1751.994     5249.098     1879.604        1.658        0.444      154.383       49.721        0.104      342.223       17.483      858.456
03/20/2014  17:55:00      100.911       97.640       24.504       83.652       56.955       44.259     6997.697     3243.917     1958.875        1.626        0.610      140.416       32.498        0.054      342.244       17.516      858.446
03/20/2014  17:56:00       60.689      164.910       -4.371       60.426       83.411       55.066     3651.281     6957.318     3032.314        2.227        0.682      175.723       45.267        0.066      342.289       17.591      858.458
03/20/2014  17:57:00       80.737      164.985       -2.790       95.775      105.682       61.390     9172.801    11168.643     3768.722        2.892        1.206      183.681       63.059        0.118      342.341       17.681      858.459
03/20/2014  17:58:00       95.824      238.189      -35.831       79.942      108.031       71.238     6390.731    11670.632     5074.893        4.516        1.157      256.742       70.948        0.076      342.055       17.194      858.453
03/20/2014  17:59:00      -49.044      234.596      -38.700       55.785       97.111       52.927     3111.992     9430.481     2801.276        3.714        0.767      239.667       55.513        0.054      342.252       17.528      858.444
03/20/2014  18:00:00     -117.403      187.581      -36.052       60.632       82.032       45.511     3676.198     6729.202     2071.294        3.137        0.624      221.292       38.472        0.030      342.215       17.467      858.446
03/20/2014  18:01:00      -98.866      226.912      -28.789      101.211       94.758       52.575    10243.591     8978.998     2764.158        4.204        1.099      247.514       50.338        0.041      342.264       17.549      858.439
03/20/2014  18:02:00       16.829      163.554       10.938      116.460      107.179       75.277    13563.018    11487.288     5666.658        2.893        1.536      164.417       67.116        0.167      342.230       17.492      858.443
03/20/2014  18:03:00       79.428      214.791      -19.238      102.941      127.289       90.796    10596.896    16202.553     8243.941        4.392        1.752      229.006       84.597        0.136      342.126       17.312      858.440
03/20/2014  18:04:00      101.796      263.682      -11.193      123.449      144.177       84.400    15239.639    20786.949     7123.304        6.158        2.157      282.649       87.555        0.096      342.036       17.162      858.436
03/20/2014  18:05:00       55.452       84.019       14.964       65.969       79.416       55.764     4351.869     6306.829     3109.678        1.206        0.688      100.669       43.129        0.184      342.181       17.410      858.444
03/20/2014  18:06:00       42.414      137.512        7.149       66.292      124.100       65.782     4394.585    15400.738     4327.242        2.244        1.206      143.905       69.374        0.232      342.200       17.442      858.456
03/20/2014  18:07:00       28.094      115.918      -21.339       59.102       60.207       32.671     3493.021     3624.882     1067.412        1.143        0.409      119.273       32.223        0.073      342.272       17.565      858.453
03/20/2014  18:08:00       38.075      177.087      -18.389       86.465      105.805       47.228     7476.266    11194.763     2230.456        2.702        1.045      181.134       52.096        0.083      342.250       17.526      858.450
03/20/2014  18:09:00       74.894       83.996        1.632       85.561       81.638       59.448     7320.667     6664.756     3534.091        1.509        0.876      112.536       43.735        0.151      342.226       17.486      858.455
03/20/2014  18:10:00       64.398      113.491       11.033       83.775       99.764       67.922     7018.207     9952.855     4613.405        1.936        1.079      130.489       57.099        0.191      342.216       17.470      858.462
03/20/2014  18:11:00       55.942      127.942       -5.063      113.326       86.939       60.304    12842.868     7558.431     3636.538        2.178        1.202      139.638       56.880        0.166      342.189       17.422      858.464
03/20/2014  18:12:00      -83.378      348.097      -44.765       65.586      102.799       45.474     4301.576    10567.671     2067.877        7.353        0.847      357.944       48.353        0.018      341.978       17.062      858.478
03/20/2014  18:13:00       46.529      303.343      -38.140       90.597      146.254       65.791     8207.841    21390.123     4328.401        6.478        1.696      306.891       72.031        0.055      341.969       17.045      858.468
03/20/2014  18:14:00       39.663      212.939      -12.706       69.981      126.233       64.961     4897.357    15934.862     4219.929        3.606        1.253      216.602       75.819        0.123      342.041       17.171      858.468
03/20/2014  18:15:00       35.036      302.528      -38.522       87.237      140.985       65.443     7610.343    19876.820     4282.779        6.300        1.588      304.550       71.820        0.056      342.018       17.131      858.479
03/20/2014  18:16:00       39.458      249.954      -21.842       83.688      114.778       67.256     7003.650    13173.880     4523.373        4.460        1.235      253.049       70.090        0.077      341.864       16.869      858.486
03/20/2014  18:17:00      -48.835      256.462      -26.464       63.548      101.530       46.100     4038.375    10308.360     2125.184        4.266        0.824      261.070       50.035        0.037      341.955       17.023      858.491
03/20/2014  18:18:00       74.448      137.737       -2.938       70.579      119.095       62.908     4981.350    14183.622     3957.434        2.382        1.156      156.569       67.397        0.185      341.994       17.093      858.496
03/20/2014  18:19:00       24.636      307.292      -28.082       97.216      122.978       53.766     9450.901    15123.612     2890.747        6.164        1.373      308.278       62.529        0.041      341.943       17.004      858.494
03/20/2014  18:20:00       19.806      181.693      -12.850       63.666      105.410       46.418     4053.337    11111.174     2154.605        2.544        0.866      182.769       36.635        0.040      341.991       17.085      858.489
03/20/2014  18:21:00       77.788      143.621        5.535       89.072      113.661       76.722     7933.891    12918.826     5886.268        2.672        1.337      163.334       72.871        0.199      341.953       17.023      858.484
03/20/2014  18:22:00      -39.707      297.949      -39.334      107.334      123.229       56.797    11520.500    15185.434     3225.914        6.091        1.497      300.583       63.047        0.044      341.899       16.927      858.493
03/20/2014  18:23:00      -15.030      282.032      -29.644       76.071       83.308       58.266     5786.823     6940.222     3394.944        4.838        0.806      282.432       46.292        0.027      341.910       16.947      858.504
03/20/2014  18:24:00       18.533      221.602      -31.683       51.616       68.924       37.295     2664.239     4750.479     1390.925        2.963        0.440      222.376       28.262        0.016      341.926       16.974      858.507
03/20/2014  18:25:00       12.117      177.657      -22.858       70.905       57.472       34.670     5027.483     3302.978     1201.995        2.088        0.477      178.070       23.911        0.018      341.957       17.030      858.519
03/20/2014  18:26:00       -5.739      179.278      -18.820       67.524       72.057       46.607     4559.463     5192.239     2172.228        2.222        0.596      179.369       44.895        0.063      341.939       16.998      858.520
03/20/2014  18:27:00       60.769       98.462        9.248       88.306       84.357       60.163     7797.932     7116.143     3619.565        1.600        0.927      115.705       52.530        0.206      341.876       16.892      858.521
03/20/2014  18:28:00       28.011      107.161      -16.556       85.578       63.984       51.485     7323.649     4093.992     2650.702        1.330        0.703      110.761       40.072        0.131      341.875       16.890      858.517
03/20/2014  18:29:00       24.704      181.326      -18.344       87.724      104.813       52.491     7695.573    10985.682     2755.302        2.763        1.072      183.001       60.160        0.108      341.846       16.839      858.529
03/20/2014  18:30:00       -4.879      433.895      -60.378       69.290       89.181       44.319     4801.052     7953.340     1964.205       10.332        0.736      433.922       37.843        0.008      341.730       16.642      858.532
03/20/2014  18:31:00      -13.384      303.076      -37.359       90.522      108.155       59.110     8194.147    11697.517     3494.051        5.840        1.169      303.372       58.922        0.038      341.767       16.706      858.545
03/20/2014  18:32:00      -17.730      333.754      -41.769       68.997      106.598       43.548     4760.647    11363.055     1896.469        6.573        0.901      334.225       40.744        0.015      341.749       16.675      858.549
03/20/2014  18:33:00       26.280      286.253      -24.720       72.937      119.003       63.089     5319.851    14161.808     3980.241        5.335        1.173      287.457       69.771        0.059      341.713       16.613      858.550
03/20/2014  18:34:00       -3.220      393.319      -48.699      103.780      121.759       61.951    10770.325    14825.183     3837.900        9.325        1.472      393.332       57.960        0.022      341.688       16.570      858.536
03/20/2014  18:35:00       -4.538      184.929       -8.514       78.924      109.453       50.854     6229.038    11980.039     2586.178        2.754        1.040      184.985       51.919        0.079      341.781       16.730      858.533
03/20/2014  18:36:00      -44.241      250.133      -37.388       51.669      142.884       44.995     2669.671    20415.880     2024.548        4.551        1.256      254.015       65.992        0.067      341.763       16.699      858.535
03/20/2014  18:37:00      -40.130      242.085      -27.687       95.823      157.647       51.247     9182.048    24852.439     2626.305        4.882        1.833      245.389       76.510        0.097      341.773       16.716      858.538
03/20/2014  18:38:00       20.800      405.711      -55.751       68.510      120.707       46.564     4693.570    14570.293     2168.173        9.478        1.072      406.243       61.646        0.023      341.680       16.559      858.529
03/20/2014  18:39:00      -11.928      346.390      -49.608       66.159       76.368       33.910     4376.997     5832.020     1149.909        6.697        0.568      346.595       30.252        0.008      341.688       16.572      858.530
03/20/2014  18:40:00     -110.347      410.726      -54.735       82.218       95.304       45.286     6759.771     9082.768     2050.821       10.088        0.895      425.291       45.592        0.011      341.613       16.444      858.526
03/20/2014  18:41:00     -116.829      362.272      -44.468       63.743      101.859       39.771     4063.115    10375.296     1581.768        8.144        0.801      380.644       45.917        0.015      341.621       16.457      858.527
03/20/2014  18:42:00      -91.605      191.020      -15.689      123.741       79.366       49.222    15311.807     6298.930     2422.765        3.458        1.202      211.850       34.405        0.026      341.663       16.528      858.532
03/20/2014  18:43:00       20.648      288.214      -22.652       84.202      168.942       76.210     7090.014    28541.440     5807.899        6.272        2.072      288.953       91.735        0.101      341.592       16.409      858.539
03/20/2014  18:44:00        6.345      281.432      -27.687      111.687      125.475       69.066    12474.087    15743.929     4770.115        5.649        1.649      281.504       67.443        0.057      341.552       16.340      858.528
03/20/2014  18:45:00        2.354      282.831      -30.118       76.150       91.332       60.556     5798.769     8341.472     3666.998        4.935        0.890      282.841       55.148        0.038      341.533       16.306      858.525
03/20/2014  18:46:00      -30.454      332.326      -41.525       98.140      121.594       70.792     9631.427    14785.008     5011.556        7.126        1.471      333.718       75.014        0.051      341.513       16.273      858.524
03/20/2014  18:47:00      -42.465      461.497      -61.904       66.357      100.622       39.395     4403.314    10124.856     1551.966       11.734        0.804      463.446       40.115        0.007      341.511       16.269      858.529
03/20/2014  18:48:00     -116.458      353.730      -47.734       77.907      110.089       54.323     6069.553    12119.695     2951.023        8.105        1.057      372.407       58.319        0.025      341.524       16.291      858.528
03/20/2014  18:49:00      -81.429      294.974      -41.378       74.735       96.039       34.891     5585.296     9223.480     1217.349        5.569        0.801      306.007       29.407        0.009      341.545       16.327      858.523
03/20/2014  18:50:00      -59.122      205.659       -7.881       73.755      161.141       65.578     5439.834    25966.386     4300.525        4.077        1.785      213.989       79.205        0.137      341.533       16.311      858.537
03/20/2014  18:51:00      -84.838      280.760      -35.208       83.662      121.915       53.895     6999.386    14863.319     2904.696        5.601        1.238      293.298       49.463        0.028      341.522       16.289      858.534
03/20/2014  18:52:00      -59.688      187.255      -26.072       61.203      110.954       50.290     3745.806    12310.725     2529.106        2.894        0.929      196.537       56.519        0.083      341.545       16.330      858.526
03/20/2014  18:53:00      -86.206      290.171      -38.407       82.526       86.704       50.687     6810.540     7517.669     2569.124        5.500        0.845      302.705       46.967        0.024      341.462       16.187      858.534
03/20/2014  18:54:00      -33.454      373.066      -65.346       59.511      102.351       39.053     3541.523    10475.649     1525.153        8.005        0.777      374.563       39.269        0.011      341.430       16.133      858.520
03/20/2014  18:55:00     -115.680      347.854      -47.339       75.099      105.960       49.845     5639.853    11227.551     2484.474        7.799        0.968      366.585       46.441        0.016      341.432       16.135      858.526
03/20/2014  18:56:00      -87.785      331.566      -42.582       76.203      117.677       49.515     5806.873    13847.829     2451.757        7.078        1.105      342.990       55.280        0.026      341.411       16.100      858.527
03/20/2014  18:57:00      -82.400      272.870      -42.317       86.305       79.239       44.051     7448.562     6278.761     1940.488        4.935        0.783      285.040       41.962        0.022      341.413       16.104      858.524
03/20/2014  18:58:00       -5.353      375.939      -58.182       77.856       93.219       40.750     6061.623     8689.856     1660.536        8.058        0.821      375.977       41.154        0.012      341.384       16.054      858.517
03/20/2014  18:59:00      -32.891      223.393      -20.683       61.939       98.340       51.326     3836.384     9670.679     2634.356        3.378        0.807      225.802       49.662        0.048      341.405       16.091      858.522
03/20/2014  19:00:00       28.735      244.766      -34.339       72.043       58.818       36.059     5190.208     3459.600     1300.233        3.593        0.498      246.447       31.380        0.016      341.369       16.032      858.517
03/20/2014  19:01:00      -34.577      269.430      -42.999       61.547       75.197       41.894     3788.072     5654.635     1755.148        4.342        0.560      271.640       40.435        0.022      341.369       16.029      858.522
03/20/2014  19:02:00      -78.629      267.064      -47.953       62.483       93.403       40.720     3904.154     8724.206     1658.079        4.704        0.714      278.398       33.506        0.014      341.397       16.078      858.520
03/20/2014  19:03:00     -116.032      229.082      -33.984       91.363       85.086       45.286     8347.147     7239.582     2050.823        4.236        0.882      256.792       44.361        0.030      341.373       16.038      858.528
03/20/2014  19:04:00     -103.221      248.664      -43.206      108.675      118.682       51.748    11810.315    14085.329     2677.865        5.146        1.429      269.236       47.150        0.031      341.331       15.968      858.537
03/20/2014  19:05:00     -136.254      247.231      -43.173       80.777       82.788       42.159     6524.859     6853.776     1777.415        4.835        0.758      282.292       34.402        0.015      341.307       15.925      858.550
03/20/2014  19:06:00     -151.296      249.240      -39.749       71.439       73.805       47.359     5103.466     5447.214     2242.842        4.969        0.640      291.567       42.300        0.021      341.261       15.846      858.559
03/20/2014  19:07:00      -65.552      310.319      -39.401       85.282      150.302       65.465     7272.937    22590.822     4285.720        6.814        1.707      317.167       81.265        0.066      341.227       15.791      858.568
03/20/2014  19:08:00     -106.235      249.851      -36.108       96.314       90.521       58.467     9276.305     8194.141     3418.419        4.795        1.044      271.498       56.825        0.044      341.212       15.766      858.568
03/20/2014  19:09:00     -102.077      200.382      -32.143       93.969       70.152       42.285     8830.224     4921.271     1788.009        3.357        0.777      224.883       49.893        0.049      341.212       15.765      858.568
03/20/2014  19:10:00      -71.405      211.798      -21.443       53.440       76.832       36.760     2855.877     5903.128     1351.282        3.026        0.506      223.511       39.448        0.031      341.209       15.761      858.566
03/20/2014  19:11:00     -100.589      213.851      -23.289       64.101       80.702       56.057     4108.977     6512.892     3142.407        3.508        0.688      236.327       34.675        0.022      341.214       15.767      858.569
03/20/2014  19:12:00      -78.665      212.982      -20.469       79.521      124.787       51.116     6323.586    15571.889     2612.797        3.823        1.225      227.045       61.666        0.074      341.208       15.759      858.567
03/20/2014  19:13:00     -112.809      227.413      -39.802       67.976       98.509       52.798     4620.779     9704.048     2787.679        4.157        0.856      253.855       53.446        0.044      341.174       15.701      858.575
03/20/2014  19:14:00     -105.074      259.617      -33.301       89.297       84.063       47.216     7973.899     7066.538     2229.361        4.841        0.863      280.074       39.330        0.020      341.134       15.631      858.580
03/20/2014  19:15:00      -64.045      182.180      -26.658       49.033       65.857       36.617     2404.245     4337.091     1340.804        2.304        0.404      193.109       34.581        0.032      341.157       15.673      858.577
03/20/2014  19:16:00      -76.643      155.931       -7.779       57.738       90.232       44.229     3333.664     8141.762     1956.243        2.184        0.672      173.749       48.629        0.078      341.110       15.593      858.575
03/20/2014  19:17:00     -117.220      234.092      -38.512       71.884       79.160       53.446     5167.367     6266.297     2856.434        4.215        0.715      261.801       43.520        0.028      341.084       15.548      858.580
03/20/2014  19:18:00     -102.943      192.184      -31.317       77.400       84.638       46.110     5990.815     7163.648     2126.098        3.189        0.764      218.018       41.130        0.036      341.049       15.489      858.576
03/20/2014  19:19:00     -114.109      255.635      -29.563       86.831       85.298       51.844     7539.628     7275.810     2687.834        4.837        0.875      279.946       48.457        0.030      341.008       15.419      858.572
03/20/2014  19:20:00      -79.332      253.870      -42.069       85.380       90.138       49.148     7289.734     8124.812     2415.497        4.517        0.892      265.977       48.746        0.034      340.995       15.396      858.570
03/20/2014  19:21:00      -64.753      236.288      -36.237       63.478      101.194       43.814     4029.451    10240.153     1919.703        3.876        0.809      245.000       41.322        0.028      340.995       15.396      858.579
03/20/2014  19:22:00     -100.105      225.085      -36.572       59.682      107.277       36.652     3561.974    11508.324     1343.336        3.921        0.821      246.342       45.786        0.035      340.974       15.362      858.576
03/20/2014  19:23:00     -119.117      171.098      -40.008       78.578       90.802       44.773     6174.489     8244.956     2004.662        3.074        0.821      208.479       54.727        0.069      340.967       15.351      858.581
03/20/2014  19:24:00      -89.353      269.628      -39.338       50.478       71.544       39.723     2548.008     5118.478     1577.940        4.574        0.462      284.048       33.982        0.014      340.930       15.286      858.583
03/20/2014  19:25:00      -77.826      210.938      -22.774       53.938       86.024       41.061     2909.347     7400.163     1686.001        3.153        0.600      224.837       42.167        0.035      340.946       15.313      858.582
03/20/2014  19:26:00     -108.460      172.746      -22.061       88.790       95.770       44.199     7883.703     9171.886     1953.556        3.055        0.950      203.972       42.745        0.044      340.916       15.264      858.587
03/20/2014  19:27:00      -99.433      196.982      -34.227       80.884      135.688       51.511     6542.141    18411.345     2653.365        3.873        1.380      220.656       60.332        0.075      340.902       15.243      858.597
03/20/2014  19:28:00      -53.108      213.350      -28.511       60.475       86.246       40.303     3657.267     7438.399     1624.331        3.093        0.636      219.860       39.705        0.033      340.852       15.155      858.591
03/20/2014  19:29:00     -109.700      287.878      -41.840       73.922       75.569       42.828     5464.515     5710.723     1834.247        5.483        0.650      308.072       29.015        0.009      340.799       15.065      858.598
03/20/2014  19:30:00      -81.881      231.593      -36.061       51.776      105.215       35.942     2680.802    11070.191     1291.811        3.834        0.752      245.642       39.688        0.026      340.811       15.085      858.607
03/20/2014  19:31:00      -73.548      221.926      -36.973       65.987       67.006       34.975     4354.226     4489.773     1223.259        3.305        0.503      233.796       32.991        0.020      340.797       15.064      858.610
03/20/2014  19:32:00      -77.940      184.373      -21.692       60.766       81.028       45.477     3692.460     6565.536     2068.116        2.643        0.616      200.170       40.107        0.040      340.744       14.972      858.619
03/20/2014  19:33:00      -63.292      170.510      -26.598       43.098       66.443       32.656     1857.441     4414.710     1066.434        2.056        0.367      181.878       29.863        0.027      340.736       14.961      858.628
03/20/2014  19:34:00      -35.275      221.070      -19.211       48.154       69.317       33.966     2318.775     4804.851     1153.672        2.938        0.414      223.867       21.873        0.010      340.676       14.859      858.635
03/20/2014  19:35:00      -65.627      110.847       -6.751       46.740       45.985       35.354     2184.600     2114.646     1249.887        1.109        0.277      128.817       29.615        0.053      340.668       14.848      858.644
03/20/2014  19:36:00      -89.336       67.172      -18.383       80.927       51.909       35.766     6549.185     2694.529     1279.218        1.168        0.526      111.772       35.159        0.099      340.683       14.872      858.661
03/20/2014  19:37:00      -68.914       79.278       -9.393       48.919       49.957       34.232     2393.063     2495.694     1171.831        0.859        0.303      105.044       22.766        0.047      340.576       14.693      858.676
03/20/2014  19:38:00      -25.865       56.873       -7.360       41.512       38.363       21.632     1723.276     1471.727      467.956        0.381        0.183       62.479       20.663        0.109      340.602       14.736      858.697
03/20/2014  19:39:00      -26.870      136.111      -20.113       41.805       58.648       28.069     1747.649     3439.561      787.854        1.281        0.299      138.738       28.017        0.041      340.494       14.552      858.710
03/20/2014  19:40:00        9.362      162.620      -27.687       57.343       61.070       29.648     3288.234     3729.570      879.025        1.760        0.395      162.890       27.775        0.029      340.456       14.487      858.718
03/20/2014  19:41:00      -28.424      163.175      -17.938       63.001       68.883       32.161     3969.112     4744.902     1034.318        1.875        0.487      165.633       25.992        0.025      340.451       14.478      858.740
03/20/2014  19:42:00        2.894       76.023        5.681       49.663       85.479       34.540     2466.373     7306.734     1193.030        0.839        0.548       76.078       49.053        0.416      340.366       14.337      858.765
03/20/2014  19:43:00      -44.628      158.340      -35.729       39.660       50.383       20.271     1572.911     2538.437      410.917        1.643        0.226      164.509       17.515        0.011      340.388       14.371      858.777
03/20/2014  19:44:00      -16.788       78.871       -7.424       51.917       45.071       31.078     2695.377     2031.425      965.813        0.612        0.285       80.637       15.112        0.035      340.405       14.401      858.797
03/20/2014  19:45:00      -51.186       81.236      -18.069       58.452       46.069       21.689     3416.580     2122.344      470.424        0.778        0.300       96.017       13.478        0.020      340.422       14.431      858.809
03/20/2014  19:46:00      -53.555       83.782      -13.680       55.402       41.747       21.598     3069.424     1742.787      466.480        0.768        0.264       99.436       10.822        0.012      340.368       14.340      858.827
03/20/2014  19:47:00      -65.116       32.187       -1.282       38.848       31.885       23.527     1509.160     1016.672      553.509        0.418        0.154       72.637       23.581        0.105      340.387       14.370      858.854
03/20/2014  19:48:00      -60.756      141.892      -35.966       54.484       66.043       39.864     2968.476     4361.723     1589.135        1.702        0.446      154.352       28.952        0.035      340.307       14.235      858.874
03/20/2014  19:49:00      -81.762       18.235       -2.726       54.740       43.423       24.327     2996.505     1885.537      591.795        0.625        0.274       83.771       18.627        0.049      340.332       14.279      858.893
03/20/2014  19:50:00      -28.353       68.107      -14.556       39.965       50.578       17.418     1597.207     2558.162      303.386        0.506        0.223       73.773       18.484        0.063      340.242       14.127      858.908
03/20/2014  19:51:00      -22.384      104.470      -16.959       58.343       41.945       30.308     3403.941     1759.401      918.554        0.889        0.304      106.841       15.744        0.022      340.244       14.130      858.921
03/20/2014  19:52:00      -10.892      130.735      -23.776       44.318       56.900       27.411     1964.124     3237.640      751.355        1.186        0.298      131.188       32.656        0.062      340.205       14.064      858.937
03/20/2014  19:53:00      -54.908       58.948       -8.402       43.113       91.505       27.608     1858.701     8373.110      762.194        0.878        0.550       80.559       35.264        0.192      340.302       14.228      858.949
03/20/2014  19:54:00      -71.838       65.679      -18.200       70.695       48.663       27.233     4997.737     2368.130      741.621        0.896        0.405       97.337       36.119        0.138      340.223       14.095      858.968
03/20/2014  19:55:00     -103.187      110.716      -32.779       51.443       53.050       33.623     2646.346     2814.279     1130.501        1.528        0.330      151.346       26.803        0.031      340.165       13.999      858.979
03/20/2014  19:56:00      -15.147       73.164      -21.144       28.206       36.723       16.135      795.573     1348.542      260.349        0.422        0.120       74.716       15.939        0.046      340.193       14.045      858.993
03/20/2014  19:57:00      -22.335      124.362      -21.512       38.795       51.416       25.150     1505.024     2643.592      632.520        1.060        0.239      126.352       21.987        0.030      340.159       13.986      858.996
03/20/2014  19:58:00      -96.421       72.975       -2.130       56.546       55.346       33.875     3197.449     3063.210     1147.506        1.102        0.370      120.922       30.509        0.064      340.258       14.153      859.012
03/20/2014  19:59:00      -92.121       86.298      -21.422       32.147       44.643       28.933     1033.420     1992.954      837.140        1.013        0.193      126.229       18.102        0.021      340.163       13.994      859.033
03/20/2014  20:00:00      -94.859       72.851      -21.605       41.496       40.424       23.684     1721.917     1634.127      560.955        0.934        0.196      119.605       15.327        0.016      340.256       14.150      859.047
03/20/2014  20:01:00     -134.706       56.384      -16.953       39.380       32.711       23.752     1550.823     1070.020      564.136        1.240        0.159      146.030       18.444        0.016      340.272       14.179      859.065
03/20/2014  20:02:00      -91.036       13.986      -11.032       38.992       20.997       19.308     1520.393      440.874      372.809        0.547        0.117       92.104       15.161        0.027      340.407       14.406      859.087
03/20/2014  20:03:00      -76.881      -20.041       -1.643       31.370       32.223       19.264      984.052     1038.297      371.103        0.435        0.120       79.450       11.909        0.022      340.290       14.208      859.093
03/20/2014  20:04:00      -26.219       12.421        6.003       31.657       21.527       17.319     1002.135      463.398      299.939        0.132        0.088       29.012       20.569        0.503      340.248       14.137      859.103
03/20/2014  20:05:00      -86.736      -19.171       -6.736       32.247       26.961       19.743     1039.892      726.891      389.775        0.505        0.108       88.829       15.009        0.029      340.389       14.375      859.129
03/20/2014  20:06:00      -99.116      -15.785      -14.524       25.300       24.181       16.568      640.093      584.706      274.503        0.589        0.075      100.365       11.954        0.014      340.370       14.345      859.131
03/20/2014  20:07:00     -105.379      -28.284       -4.000       54.922       41.409       25.834     3016.395     1714.679      667.397        0.866        0.270      109.109       26.942        0.061      340.215       14.082      859.149
03/20/2014  20:08:00     -120.021       11.314      -18.051       62.075       41.113       20.254     3853.353     1690.315      410.205        1.041        0.298      120.554       23.246        0.037      340.159       13.988      859.162
03/20/2014  20:09:00     -103.811       12.122       -6.899       51.754       36.406       24.910     2678.522     1325.404      620.499        0.780        0.231      104.516       24.744        0.056      340.221       14.090      859.177
03/20/2014  20:10:00      -84.557        1.173       -3.361       39.416       38.942       26.836     1553.626     1516.453      720.195        0.548        0.190       84.565       25.639        0.092      340.296       14.218      859.192
03/20/2014  20:11:00     -125.171       18.460      -17.741       35.573       37.374       23.746     1265.437     1396.842      563.872        0.977        0.161      126.525       21.269        0.028      340.298       14.221      859.195
03/20/2014  20:12:00     -151.511       66.882      -23.053       30.923       39.863       27.258      956.204     1589.047      743.013        1.562        0.164      165.616       15.620        0.009      340.168       14.002      859.206
03/20/2014  20:13:00     -173.324      -15.393      -18.757       29.214       44.080       20.949      853.480     1943.020      438.853        1.693        0.162      174.006       15.854        0.008      340.116       13.914      859.209
03/20/2014  20:14:00     -128.410      -31.625      -11.961       67.336       44.795       31.227     4534.141     2006.564      975.102        1.257        0.376      132.247       29.872        0.051      340.065       13.827      859.209
03/20/2014  20:15:00     -137.639      -43.809      -15.258       66.353       54.627       29.410     4402.688     2984.115      864.941        1.467        0.413      144.443       28.584        0.039      339.893       13.539      859.218
03/20/2014  20:16:00     -156.138        7.896      -19.199       49.461       24.127       23.069     2446.415      582.096      532.187        1.418        0.178      156.338       22.160        0.020      339.788       13.362      859.228
03/20/2014  20:17:00     -138.621      -16.193      -18.704       39.779       44.003       26.689     1582.333     1936.276      712.309        1.203        0.212      139.564       25.701        0.034      340.017       13.749      859.235
03/20/2014  20:18:00     -152.370       -6.745      -20.966       39.891       71.928       30.674     1591.299     5173.644      940.922        1.570        0.385      152.519       19.514        0.016      339.805       13.390      859.241
03/20/2014  20:19:00     -127.229      -29.754       -8.536       37.960       51.979       31.026     1440.937     2701.813      962.613        1.112        0.255      130.662       25.837        0.039      339.868       13.495      859.249
03/20/2014  20:20:00     -106.342      -41.241       -1.021       42.793       48.016       29.944     1831.277     2305.497      896.670        0.902        0.252      114.059       22.969        0.041      339.706       13.225      859.255
03/20/2014  20:21:00     -142.522       38.035      -25.054       53.537       44.018       25.165     2866.159     1937.602      633.297        1.391        0.272      147.510       25.790        0.031      339.812       13.402      859.255
03/20/2014  20:22:00     -121.047       -2.831       -9.478       46.686       48.077       32.272     2179.597     2311.421     1041.489        1.014        0.277      121.080       14.421        0.014      339.787       13.361      859.277
03/20/2014  20:23:00     -117.181      -25.562      -14.972       48.891       33.598       28.759     2390.373     1128.806      827.089        0.948        0.217      119.936       19.051        0.025      339.685       13.188      859.278
03/20/2014  20:24:00      -90.618       -1.042      -17.293       38.103       38.851       27.432     1451.807     1509.437      752.531        0.611        0.186       90.624       11.619        0.016      339.664       13.152      859.299
03/20/2014  20:25:00     -121.869      -37.245       -2.688       45.952       47.756       32.629     2111.594     2280.650     1064.630        1.085        0.273      127.433       25.161        0.039      339.672       13.167      859.306
03/20/2014  20:26:00     -151.158      -44.676      -16.739       35.814       39.554       23.387     1282.609     1564.512      546.944        1.426        0.170      157.622       14.611        0.009      339.553       12.965      859.325
03/20/2014  20:27:00      -67.373      -30.494       -2.639       96.272       42.481       39.176     9268.367     1804.594     1534.750        0.904        0.630       73.953       46.830        0.401      339.584       13.017      859.326
03/20/2014  20:28:00     -203.679      -38.043      -22.507       49.097       54.284       34.061     2410.494     2946.761     1160.176        2.498        0.326      207.201       23.557        0.013      339.536       12.933      859.341
03/20/2014  20:29:00     -168.011      -41.372      -21.847       52.605       65.063       31.885     2767.271     4233.168     1016.659        1.922        0.401      173.029       27.950        0.026      339.463       12.812      859.362
03/20/2014  20:30:00     -241.118      -59.261      -16.028       71.642       52.965       37.095     5132.605     2805.339     1376.003        3.561        0.466      248.293       36.754        0.022      339.370       12.652      859.366
03/20/2014  20:31:00     -212.794      -59.757      -26.428       59.718       59.061       30.872     3566.247     3488.207      953.092        2.878        0.400      221.025       29.027        0.017      339.449       12.786      859.375
03/20/2014  20:32:00     -203.551      -83.382       -9.098       81.221       54.257       34.241     6596.889     2943.842     1172.436        2.959        0.536      219.968       39.478        0.032      339.443       12.777      859.376
03/20/2014  20:33:00     -210.384      -72.484      -14.407       82.491       55.220       39.462     6804.805     3049.194     1557.229        3.057        0.571      222.520       41.348        0.035      339.459       12.804      859.391
03/20/2014  20:34:00     -205.739     -105.653      -18.150       73.931       47.993       35.341     5465.806     2303.302     1249.006        3.142        0.451      231.281       32.547        0.020      339.444       12.778      859.402
03/20/2014  20:35:00     -221.607      -79.817      -15.492       62.688       61.581       32.991     3929.804     3792.245     1088.423        3.226        0.441      235.543       27.721        0.014      339.416       12.729      859.419
03/20/2014  20:36:00     -214.562      -55.279      -19.641       48.413       38.853       30.212     2343.836     1509.561      912.773        2.712        0.238      221.568       28.441        0.016      339.370       12.652      859.440
03/20/2014  20:37:00     -186.085      -86.108      -12.803       77.434       58.888       37.723     5996.038     3467.760     1423.049        2.654        0.544      205.042       29.870        0.021      339.384       12.677      859.438
03/20/2014  20:38:00     -223.141      -20.770      -17.447       58.677       50.190       34.312     3443.021     2519.014     1177.288        2.883        0.357      224.105       35.331        0.025      339.341       12.602      859.453
03/20/2014  20:39:00     -248.825      -59.690      -22.595       55.684       52.355       27.413     3100.722     2741.027      751.448        3.629        0.330      255.884       27.783        0.012      339.271       12.484      859.457
03/20/2014  20:40:00     -203.538      -53.100      -16.101       52.396       48.160       31.264     2745.370     2319.422      977.454        2.527        0.302      210.350       28.455        0.018      339.284       12.507      859.471
03/20/2014  20:41:00     -191.710      -42.115      -12.969       71.400       61.485       32.478     5097.945     3780.410     1054.789        2.431        0.497      196.281       34.649        0.031      339.255       12.459      859.483
03/20/2014  20:42:00     -176.854      -27.164       -8.025       59.394       55.299       35.094     3527.595     3057.965     1231.587        1.995        0.391      178.928       33.180        0.034      339.288       12.517      859.487
03/20/2014  20:43:00     -139.144      -86.642       -5.706       69.101       48.373       34.371     4774.946     2339.955     1181.355        1.760        0.415      163.915       32.916        0.040      339.284       12.511      859.495
03/20/2014  20:44:00     -129.826      -86.497       -6.428       54.796       47.133       34.786     3002.563     2221.534     1210.033        1.540        0.322      156.001       32.576        0.044      339.291       12.523      859.505
03/20/2014  20:45:00     -137.438      -44.756       -6.526       50.130       42.532       22.214     2513.033     1808.961      493.478        1.287        0.241      144.541       19.290        0.018      339.243       12.443      859.516
03/20/2014  20:46:00     -154.560      -18.382      -19.373       32.394       44.581       24.088     1049.403     1987.493      580.231        1.411        0.181      155.649       19.069        0.015      339.322       12.577      859.529
03/20/2014  20:47:00     -181.676      -12.710      -19.839       47.747       35.081       24.598     2279.769     1230.650      605.080        1.884        0.206      182.120       22.122        0.015      339.224       12.410      859.541
03/20/2014  20:48:00     -185.024      -23.659      -23.150       48.275       34.529       26.694     2330.503     1192.235      712.594        1.978        0.212      186.530       25.078        0.018      339.058       12.131      859.546
03/20/2014  20:49:00     -176.180      -54.180      -14.662       61.740       46.100       25.762     3811.889     2125.183      663.700        2.039        0.330      184.323       26.605        0.021      339.028       12.080      859.555
03/20/2014  20:50:00     -170.374      -30.344       -8.933       38.573       44.538       29.262     1487.877     1983.590      856.247        1.718        0.216      173.055       21.528        0.015      339.104       12.207      859.549
03/20/2014  20:51:00     -182.704      -30.869      -12.816       52.174       35.053       30.943     2722.090     1228.707      957.442        1.970        0.245      185.294       29.916        0.026      339.057       12.129      859.565
03/20/2014  20:52:00     -176.221      -23.104       -8.391       67.109       41.508       28.696     4503.596     1722.950      823.464        1.935        0.353      177.729       34.301        0.037      339.053       12.120      859.562
03/20/2014  20:53:00     -151.563      -34.773      -27.343       28.702       33.663       18.666      823.810     1133.214      348.427        1.362        0.115      155.501       12.653        0.007      339.038       12.097      859.567
03/20/2014  20:54:00     -115.732      -20.294       -5.214       34.422       26.085       20.182     1184.845      680.408      407.332        0.805        0.114      117.498       17.749        0.023      339.062       12.138      859.573
03/20/2014  20:55:00     -143.654      -25.961      -23.135       45.201       29.074       19.342     2043.091      845.312      374.127        1.255        0.163      145.981       12.354        0.007      339.007       12.046      859.577
03/20/2014  20:56:00     -147.684      -48.565      -14.591       52.849       46.280       32.913     2792.996     2141.850     1083.288        1.520        0.301      155.464       30.777        0.039      339.070       12.150      859.584
03/20/2014  20:57:00     -137.439      -28.711       -9.258       61.765       52.111       27.316     3814.905     2715.520      746.190        1.354        0.364      140.405       29.475        0.044      338.938       11.930      859.587
03/20/2014  20:58:00     -125.672      -28.387      -17.764       40.065       46.017       27.321     1605.206     2117.541      746.422        1.069        0.223      128.839       19.839        0.024      338.931       11.918      859.593
03/20/2014  20:59:00     -153.575      -41.953      -14.952       45.086       40.434       26.243     2032.728     1634.878      688.694        1.496        0.218      159.203       21.554        0.018      338.898       11.861      859.589
03/20/2014  21:00:00     -169.332      -41.528      -32.735       40.058       46.060       23.885     1604.609     2121.562      570.510        1.788        0.215      174.350       13.276        0.006      338.920       11.898      859.588
03/20/2014  21:01:00     -135.179      -39.784      -22.055       33.418       52.092       24.420     1116.780     2713.611      596.317        1.238        0.221      140.911       12.337        0.008      338.854       11.788      859.588
03/20/2014  21:02:00     -106.446      -19.604      -21.788       31.502       33.268       22.043      992.348     1106.770      485.877        0.739        0.129      108.236        9.702        0.008      338.932       11.921      859.588
03/20/2014  21:03:00     -116.672      -12.955      -19.623       46.776       50.206       25.522     2188.035     2520.603      651.362        0.976        0.268      117.389       16.344        0.019      338.947       11.945      859.580
03/20/2014  21:04:00     -112.513      -26.895      -20.525       26.775       33.716       23.419      716.918     1136.786      548.427        0.810        0.120      115.683       17.426        0.023      338.963       11.972      859.572
03/20/2014  21:05:00     -117.126       -2.988      -11.592       31.610       36.742       25.717      999.218     1349.992      661.382        0.844        0.151      117.164       23.007        0.039      339.042       12.104      859.580
03/20/2014  21:06:00     -140.771      -39.258      -24.147       41.885       34.291       20.387     1754.335     1175.875      415.630        1.264        0.167      146.142       20.653        0.020      338.875       11.822      859.574
03/20/2014  21:07:00     -116.057      -14.241      -13.649       34.574       52.546       24.040     1195.388     2761.092      577.898        0.920        0.227      116.927       19.950        0.029      338.866       11.809      859.583
03/20/2014  21:08:00     -113.910      -22.844      -11.802       37.805       34.574       24.147     1429.209     1195.346      583.095        0.842        0.160      116.178       19.548        0.028      338.849       11.779      859.578
03/20/2014  21:09:00      -85.580      -19.645       -8.005       70.258       36.904       26.882     4936.125     1361.882      722.640        0.740        0.351       87.806       27.707        0.100      338.860       11.797      859.580
03/20/2014  21:10:00      -72.519      -41.644      -10.821       31.695       28.447       18.667     1004.577      809.255      348.446        0.464        0.108       83.625        8.252        0.010      338.889       11.847      859.578
03/20/2014  21:11:00      -32.544      -31.569        4.739       47.696       28.230       29.604     2274.939      796.944      876.402        0.301        0.197       45.340       19.058        0.177      338.776       11.657      859.574
03/20/2014  21:12:00     -118.228      -66.963       -6.489       30.023       39.361       28.045      901.377     1549.263      786.511        1.087        0.162      135.874       20.908        0.024      338.734       11.586      859.592
03/20/2014  21:13:00     -108.043      -50.425       -3.191       41.173       49.723       32.532     1695.223     2472.365     1058.338        0.973        0.261      119.230       28.271        0.056      338.751       11.614      859.591
03/20/2014  21:14:00      -73.428       21.213       -6.253       40.659       48.586       28.746     1653.159     2360.579      826.312        0.536        0.242       76.431       18.517        0.059      338.805       11.706      859.596
03/20/2014  21:15:00      -90.340        8.162      -22.743       34.837       44.948       28.748     1213.605     2020.311      826.451        0.640        0.203       90.708       22.612        0.062      338.952       11.953      859.611
03/20/2014  21:16:00     -111.734        4.367      -16.397       30.525       35.827       24.127      931.801     1283.574      582.105        0.778        0.140      111.820       19.228        0.030      339.019       12.067      859.614
03/20/2014  21:17:00     -104.096      -27.668      -14.334       46.223       48.989       24.443     2136.576     2399.932      597.445        0.847        0.257      107.710       13.297        0.015      338.818       11.728      859.620
03/20/2014  21:18:00     -115.683      -43.505      -34.355       44.797       34.701       28.804     2006.760     1204.152      829.645        1.025        0.202      123.593       25.659        0.043      338.807       11.709      859.634
03/20/2014  21:19:00     -101.361       -4.546       -8.448       47.792       46.620       30.610     2284.107     2173.394      936.998        0.788        0.270      101.463       25.630        0.064      338.779       11.663      859.634
03/20/2014  21:20:00     -111.912      -46.551       -6.237       36.911       35.907       23.228     1362.410     1289.294      539.561        0.896        0.160      121.208       21.360        0.031      338.731       11.581      859.641
03/20/2014  21:21:00     -138.956      -44.683      -20.905       47.156       41.052       23.451     2223.691     1685.232      549.967        1.310        0.223      145.964       15.602        0.011      338.743       11.603      859.642
03/20/2014  21:22:00     -125.359      -60.366      -16.639       54.377       42.048       29.840     2956.868     1768.044      890.408        1.262        0.281      139.136       22.402        0.026      338.762       11.633      859.639
03/20/2014  21:23:00     -149.777      -47.774      -17.290       54.591       41.733       24.665     2980.231     1741.647      608.364        1.517        0.267      157.211       24.277        0.024      338.723       11.568      859.650
03/20/2014  21:24:00     -179.855      -26.139      -19.472       38.515       33.617       20.914     1483.440     1130.073      437.396        1.823        0.153      181.744       15.119        0.007      338.745       11.604      859.655
03/20/2014  21:25:00     -147.112      -39.065      -22.940       42.949       34.525       26.522     1844.631     1191.991      703.398        1.372        0.187      152.210       26.939        0.031      338.743       11.604      859.652
03/20/2014  21:26:00     -164.327      -40.676      -18.144       42.346       35.911       28.522     1793.157     1289.619      813.526        1.644        0.195      169.286       24.591        0.021      338.711       11.549      859.655
03/20/2014  21:27:00     -160.534      -25.339      -14.404       47.820       41.988       24.971     2286.745     1762.957      623.561        1.565        0.234      162.522       23.928        0.022      338.851       11.782      859.660
03/20/2014  21:28:00     -185.116      -64.989      -18.374       32.463       33.737       25.214     1053.847     1138.190      635.763        2.083        0.141      196.193       17.912        0.008      338.854       11.789      859.653
03/20/2014  21:29:00     -142.614      -34.508      -17.897       27.262       41.642       23.046      743.219     1734.073      531.141        1.243        0.150      146.729        8.478        0.003      338.855       11.790      859.646
03/20/2014  21:30:00     -131.086      -64.903       -9.136       40.075       37.876       26.400     1606.017     1434.590      696.974        1.261        0.187      146.273       25.621        0.031      338.906       11.877      859.652
03/20/2014  21:31:00     -171.858      -83.579      -21.449       45.256       36.769       21.905     2048.114     1351.927      479.808        2.043        0.194      191.104       15.977        0.007      338.977       11.994      859.645
03/20/2014  21:32:00     -179.983      -54.281      -16.942       43.463       36.828       23.969     1889.058     1356.308      574.534        1.972        0.191      187.990       14.238        0.006      338.954       11.956      859.641
03/20/2014  21:33:00     -196.956      -46.735      -17.561       32.249       29.722       19.226     1040.008      883.416      369.625        2.179        0.115      202.425       11.138        0.003      338.920       11.899      859.631
03/20/2014  21:34:00     -153.367      -47.596      -10.694       33.310       31.787       19.464     1109.569     1010.412      378.837        1.420        0.125      160.583       15.432        0.009      338.976       11.993      859.632
03/20/2014  21:35:00     -159.474      -36.604      -12.921       26.203       42.111       19.170      686.610     1773.308      367.501        1.488        0.141      163.621       17.304        0.011      338.953       11.955      859.622
03/20/2014  21:36:00     -147.567      -46.657       -6.113       23.480       31.328       17.965      551.327      981.416      322.729        1.292        0.093      154.767       15.115        0.010      338.995       12.026      859.623
03/20/2014  21:37:00     -110.000      -69.781       -3.676       39.288       27.701       22.030     1543.579      767.322      485.337        0.989        0.140      130.266       10.119        0.006      338.902       11.869      859.629
03/20/2014  21:38:00      -61.349      -65.494        8.699       74.958       46.578       25.391     5618.664     2169.485      644.684        0.828        0.422       89.739       33.923        0.143      338.776       11.657      859.633
03/20/2014  21:39:00     -105.497     -105.231       -3.109       64.872       39.756       29.732     4208.374     1580.570      883.978        1.444        0.334      149.007       28.214        0.036      338.681       11.497      859.635
03/20/2014  21:40:00     -140.440     -137.412       -8.199       47.063       48.164       29.802     2214.957     2319.731      888.134        2.205        0.271      196.483       25.378        0.017      338.601       11.361      859.647
03/20/2014  21:41:00     -145.241     -114.313       -4.165       56.625       53.511       32.351     3206.392     2863.457     1046.616        2.065        0.356      184.831       25.790        0.019      338.592       11.348      859.657
03/20/2014  21:42:00     -147.388     -146.379       -6.987       35.333       44.321       26.638     1248.397     1964.343      709.567        2.356        0.196      207.726       20.306        0.010      338.530       11.243      859.661
03/20/2014  21:43:00     -143.684     -134.089      -13.626       47.126       39.737       28.620     2220.861     1579.048      819.098        2.171        0.231      196.532       31.503        0.026      338.468       11.139      859.661
03/20/2014  21:44:00     -173.687     -138.747       -8.179       42.812       45.764       29.730     1832.861     2094.388      883.901        2.715        0.241      222.301       17.501        0.006      338.464       11.129      859.667
03/20/2014  21:45:00      -72.888      -85.115       14.921       77.409       44.565       40.573     5992.141     1986.020     1646.178        1.120        0.481      112.059       48.410        0.187      338.462       11.131      859.673
03/20/2014  21:46:00     -124.417      -95.001        2.868       65.508       57.415       36.611     4291.312     3296.506     1340.343        1.672        0.446      156.540       36.823        0.055      338.504       11.199      859.665
03/20/2014  21:47:00     -118.044     -114.269       -4.768       57.073       47.642       34.768     3257.272     2269.723     1208.842        1.687        0.337      164.292       31.024        0.036      338.526       11.236      859.669
03/20/2014  21:48:00     -140.179      -98.254        0.732       57.104       42.597       31.614     3260.855     1814.501      999.433        1.769        0.304      171.184       23.917        0.020      338.523       11.233      859.676
03/20/2014  21:49:00     -122.504      -75.242        6.218       68.868       36.453       28.561     4742.759     1328.837      815.731        1.380        0.344      143.766       31.186        0.047      338.533       11.249      859.673
03/20/2014  21:50:00      -81.798      -92.515       -1.618       62.848       41.328       34.626     3949.842     1708.018     1198.992        1.105        0.343      123.491       31.879        0.067      338.513       11.215      859.677
03/20/2014  21:51:00     -114.221      -58.785       -1.509       53.911       45.904       23.079     2906.447     2107.171      532.636        1.102        0.277      128.461       25.622        0.040      338.568       11.307      859.680
03/20/2014  21:52:00     -178.884      -32.151       -8.673       41.267       31.614       28.594     1702.952      999.418      817.644        1.831        0.176      181.751       26.311        0.021      338.481       11.160      859.673
03/20/2014  21:53:00     -184.843      -66.892        2.269       73.536       45.358       34.411     5407.547     2057.350     1184.093        2.365        0.432      196.575       38.226        0.038      338.538       11.256      859.666
03/20/2014  21:54:00     -174.989      -54.720       -2.549       55.543       51.903       30.662     3084.971     2693.949      940.150        2.017        0.336      183.345       28.401        0.024      338.583       11.332      859.672
03/20/2014  21:55:00     -191.257      -52.071       -5.063       50.093       40.745       25.853     2509.314     1660.125      668.354        2.208        0.242      198.218       22.361        0.013      338.470       11.142      859.668
03/20/2014  21:56:00     -151.038      -52.795       -1.123       56.822       39.851       23.615     3228.714     1588.074      557.672        1.549        0.269      160.000       25.628        0.026      338.452       11.112      859.662
03/20/2014  21:57:00     -163.320      -57.515       -6.281       49.487       37.058       30.974     2448.963     1373.286      959.390        1.740        0.239      173.151       27.984        0.026      338.485       11.167      859.670
03/20/2014  21:58:00     -138.347      -41.776       -1.174       45.793       47.802       25.855     2096.978     2285.061      668.466        1.297        0.253      144.517       25.347        0.031      338.408       11.040      859.674
03/20/2014  21:59:00     -170.900      -46.092        6.751       71.611       48.051       32.588     5128.190     2308.900     1061.953        1.994        0.425      177.006       36.633        0.043      338.458       11.120      859.662
03/20/2014  22:00:00     -198.754      -71.855        1.400       60.632       43.850       33.092     3676.263     1922.792     1095.093        2.568        0.335      211.344       34.424        0.027      338.587       11.338      859.665
03/20/2014  22:01:00     -196.443      -57.333       -7.844       69.498       51.025       38.734     4829.935     2603.543     1500.341        2.543        0.447      204.639       35.773        0.031      338.711       11.545      859.665
03/20/2014  22:02:00     -177.671      -58.840       -1.026       69.729       43.781       28.828     4862.200     1916.809      831.059        2.132        0.381      187.160       31.029        0.027      338.768       11.644      859.667
03/20/2014  22:03:00     -169.581      -29.734       -8.274       59.027       53.153       28.509     3484.211     2825.294      812.761        1.842        0.356      172.168       29.086        0.029      338.601       11.362      859.682
03/20/2014  22:04:00     -140.601      -47.980        2.104       64.439       38.235       27.255     4152.446     1461.899      742.852        1.422        0.318      148.563       26.307        0.031      338.604       11.368      859.678
03/20/2014  22:05:00     -184.947      -69.215      -10.449       72.235       50.392       34.013     5217.936     2539.383     1156.904        2.401        0.446      197.474       35.221        0.032      338.637       11.420      859.676
03/20/2014  22:06:00     -152.527      -44.785        3.209       69.492       56.403       34.615     4829.087     3181.249     1198.198        1.724        0.460      158.966       39.748        0.063      338.598       11.357      859.692
03/20/2014  22:07:00     -154.628      -41.030      -12.040       33.074       35.615       25.325     1093.916     1268.405      641.332        1.437        0.150      159.979       21.221        0.018      338.506       11.204      859.706
03/20/2014  22:08:00     -163.510      -52.444      -20.472       39.568       43.694       19.733     1565.660     1909.172      389.390        1.688        0.193      171.714       19.590        0.013      338.458       11.123      859.709
03/20/2014  22:09:00     -164.295      -84.688      -14.033       43.910       27.832       24.223     1928.108      774.630      586.741        1.883        0.164      184.837       20.316        0.012      338.387       11.004      859.711
03/20/2014  22:10:00     -156.759      -73.407      -10.530       51.510       36.934       33.338     2653.235     1364.095     1111.391        1.760        0.256      173.095       23.549        0.019      338.391       11.010      859.714
03/20/2014  22:11:00     -155.420      -70.868       -0.476       50.030       38.492       30.873     2502.987     1481.643      953.145        1.706        0.247      170.814       32.404        0.036      338.390       11.009      859.713
03/20/2014  22:12:00     -149.959      -83.436        1.769       56.773       46.820       30.369     3223.142     2192.135      922.259        1.789        0.317      171.608       33.194        0.037      338.472       11.146      859.716
03/20/2014  22:13:00      -84.055      -57.597        1.756       55.325       54.010       34.635     3060.804     2917.115     1199.617        0.878        0.359      101.895       34.955        0.118      338.459       11.125      859.722
03/20/2014  22:14:00      -59.215      -42.931       -0.573       53.819       37.651       28.310     2896.462     1417.568      801.429        0.523        0.256       73.140       32.208        0.194      338.506       11.203      859.718
03/20/2014  22:15:00     -138.677      -53.780      -12.586       41.429       38.924       21.564     1716.363     1515.071      465.028        1.299        0.185      148.740       20.344        0.019      338.585       11.336      859.714
03/20/2014  22:16:00     -104.269      -84.046        0.760       54.814       35.551       27.566     3004.532     1263.908      759.885        1.148        0.251      133.924       29.926        0.050      338.617       11.389      859.707
03/20/2014  22:17:00      -65.761      -48.772        1.248       60.961       50.499       26.549     3716.256     2550.141      704.867        0.684        0.349       81.873       28.772        0.123      338.624       11.401      859.701
03/20/2014  22:18:00      -62.601      -58.461        5.132       65.596       54.282       41.167     4302.826     2946.564     1694.704        0.815        0.447       85.654       37.131        0.188      338.592       11.348      859.705
03/20/2014  22:19:00      -72.788      -63.068       12.235       74.481       51.227       40.662     5547.393     2624.235     1653.363        0.962        0.491       96.310       36.547        0.144      338.535       11.253      859.703
03/20/2014  22:20:00      -84.812      -83.228       11.569       63.707       43.469       37.254     4058.609     1889.546     1387.885        1.079        0.367      118.828       37.857        0.101      338.562       11.299      859.699
03/20/2014  22:21:00     -124.915      -92.149       -3.725       68.724       42.191       35.928     4723.012     1780.059     1290.808        1.595        0.390      155.227       32.790        0.045      338.597       11.357      859.687
03/20/2014  22:22:00     -166.201      -58.619       -4.374       41.382       49.509       20.706     1712.478     2451.128      428.737        1.783        0.230      176.236       21.451        0.015      338.518       11.224      859.688
03/20/2014  22:23:00     -126.075      -21.636        0.950       52.634       48.738       27.625     2770.375     2375.371      763.152        1.114        0.295      127.918       25.634        0.040      338.593       11.348      859.692
03/20/2014  22:24:00      -97.084      -50.319       -4.837       66.609       45.390       26.951     4436.816     2060.231      726.374        0.960        0.361      109.349       28.070        0.066      338.569       11.311      859.695
03/20/2014  22:25:00     -105.694      -44.289       -5.962       52.218       41.858       19.852     2726.668     1752.072      394.106        0.902        0.244      114.598       14.425        0.016      338.532       11.248      859.687
03/20/2014  22:26:00     -111.639      -41.574       -3.288       41.099       40.583       25.933     1689.147     1646.940      672.537        0.910        0.200      119.129       25.931        0.047      338.490       11.176      859.690
03/20/2014  22:27:00     -105.106      -22.187       -2.190       37.887       28.815       18.342     1435.427      830.289      336.424        0.707        0.130      107.422       17.016        0.025      338.372       10.979      859.683
03/20/2014  22:28:00     -120.869      -15.830       -8.835       44.780       23.404       17.542     2005.246      547.767      307.714        0.890        0.143      121.901       19.655        0.026      338.414       11.049      859.681
03/20/2014  22:29:00     -152.993      -15.689       -8.125       32.350       24.354       21.056     1046.497      593.118      443.342        1.290        0.104      153.795       17.793        0.013      338.334       10.913      859.690
03/20/2014  22:30:00     -117.252      -40.899      -11.848       42.837       53.970       22.263     1835.042     2912.799      495.644        1.040        0.262      124.181       14.960        0.015      338.392       11.013      859.690
03/20/2014  22:31:00      -77.428      -44.528        3.365       43.538       38.859       23.169     1895.583     1510.057      536.810        0.597        0.197       89.318       20.902        0.055      338.314       10.881      859.681
03/20/2014  22:32:00     -125.356      -45.344       -3.250       34.082       50.512       26.402     1161.592     2551.475      697.069        1.109        0.221      133.305       19.219        0.021      338.396       11.018      859.674
03/20/2014  22:33:00      -53.663      -39.236       -1.673       58.946       39.075       28.073     3474.640     1526.848      788.097        0.510        0.289       66.477       27.169        0.167      338.342       10.930      859.665
03/20/2014  22:34:00      -92.229      -39.334        1.079       64.993       31.742       27.144     4224.037     1007.554      736.796        0.801        0.298      100.267       31.986        0.102      338.315       10.882      859.662
03/20/2014  22:35:00      -68.261      -20.302        1.293       42.591       27.415       17.897     1814.013      751.582      320.289        0.398        0.144       71.216       16.455        0.053      338.417       11.054      859.665
03/20/2014  22:36:00      -94.932        9.358       -9.544       61.752       27.148       21.805     3813.288      737.031      475.470        0.711        0.251       95.392       26.873        0.079      338.462       11.131      859.669
03/20/2014  22:37:00      -30.135      -26.722       11.568       45.607       26.779       26.934     2079.974      717.104      725.424        0.264        0.176       40.276       23.231        0.333      338.325       10.900      859.678
03/20/2014  22:38:00      -72.984      -28.102       -0.877       49.012       37.920       23.790     2402.217     1437.932      565.947        0.526        0.220       78.207       19.830        0.064      338.249       10.772      859.669
03/20/2014  22:39:00      -75.876      -34.008       -3.111       51.990       23.353       22.956     2702.944      545.383      526.971        0.535        0.189       83.148       25.878        0.097      338.211       10.708      859.675
03/20/2014  22:40:00      -44.986      -25.694       -8.737       44.149       22.585       17.646     1949.159      510.066      311.374        0.276        0.139       51.807       16.978        0.107      338.272       10.811      859.674
03/20/2014  22:41:00      -22.341      -36.746        1.080       26.182       19.791       11.952      685.505      391.667      142.861        0.154        0.061       43.004       10.748        0.062      338.405       11.033      859.685
03/20/2014  22:42:00      -19.938       -5.727        9.212       20.701       14.385       14.103      428.542      206.925      198.885        0.067        0.042       20.744        8.266        0.159      338.336       10.919      859.702
03/20/2014  22:43:00      -42.303      -64.330        3.933       18.560       31.214       16.385      344.463      974.342      268.479        0.377        0.079       76.993        9.860        0.016      338.404       11.033      859.721
03/20/2014  22:44:00       -9.573      -75.108       -9.300       21.714       25.077       15.858      471.502      628.842      251.470        0.359        0.068       75.715       11.030        0.021      338.407       11.037      859.729
03/20/2014  22:45:00       -8.618      -19.306        9.789       17.874       34.002       14.176      319.493     1156.103      200.970        0.111        0.084       21.142       12.886        0.371      338.386       11.003      859.731
03/20/2014  22:46:00       38.970       34.421       -6.113       24.502       14.977       22.165      600.367      224.317      491.301        0.203        0.066       51.995       13.599        0.068      337.956       10.280      859.736
03/20/2014  22:47:00       64.121       33.898       21.743       35.684       23.035       21.913     1273.378      530.607      480.184        0.401        0.114       72.530       17.743        0.060      337.908       10.198      859.730
03/20/2014  22:48:00       40.549       37.439       20.941       35.496       23.703       19.502     1259.957      561.832      380.323        0.284        0.110       55.190       14.610        0.070      337.905       10.196      859.733
03/20/2014  22:49:00       57.054       31.148       22.667       53.804       21.898       20.039     2894.830      479.531      401.551        0.426        0.189       65.003       19.223        0.087      337.959       10.284      859.739
03/20/2014  22:50:00       31.280       31.081       37.224       45.698       28.446       23.800     2088.286      809.177      566.449        0.340        0.173       44.096       18.940        0.184      338.053       10.443      859.732
03/20/2014  22:51:00       -8.459        7.233       25.023        9.059       13.858       10.737       82.062      192.048      115.277        0.057        0.019       11.130        8.349        0.563      338.015       10.381      859.743
03/20/2014  22:52:00      -11.541      -21.092       11.672       10.811       18.569       13.670      116.882      344.802      186.864        0.068        0.032       24.043       10.914        0.206      338.226       10.734      859.744
03/20/2014  22:53:00       11.669       12.335       24.972       21.830       24.109       18.911      476.561      581.231      357.629        0.116        0.071       16.980       15.556        0.839      338.104       10.528      859.743
03/20/2014  22:54:00       -4.549       42.143       59.120       16.127       27.801       16.856      260.078      772.879      284.120        0.330        0.066       42.388       11.431        0.073      338.187       10.667      859.736
03/20/2014  22:55:00      -11.356       -6.876       39.141       17.438       24.346       18.934      304.083      592.749      358.486        0.148        0.063       13.276       13.498        1.034      338.279       10.822      859.733
03/20/2014  22:56:00       -3.016        2.234       34.217       19.864       33.303       14.635      394.577     1109.093      214.179        0.145        0.086        3.753       10.338        7.586      338.286       10.833      859.743
03/20/2014  22:57:00       23.019       65.797        4.917       22.487       32.905       27.811      505.667     1082.723      773.426        0.362        0.118       69.708       26.202        0.141      337.724        9.891      859.764
03/20/2014  22:58:00       71.629       42.241       10.584       48.129       32.355       24.875     2316.381     1046.857      618.781        0.550        0.199       83.156       20.692        0.062      337.659        9.783      859.758
03/20/2014  22:59:00       67.414       39.660       22.047       36.313       22.022       25.627     1318.646      484.988      656.724        0.453        0.123       78.215       20.977        0.072      337.678        9.814      859.752
03/20/2014  23:00:00       73.702       32.120       21.635       35.255       21.389       27.806     1242.922      457.480      773.153        0.470        0.124       80.397       19.399        0.058      337.779        9.983      859.748
03/20/2014  23:01:00       24.604       25.544       35.586       33.787       20.999       20.772     1141.593      440.968      431.464        0.227        0.101       35.466       19.425        0.300      337.734        9.908      859.751
03/20/2014  23:02:00       -8.065       36.247       63.431       11.845       24.958       15.753      140.306      622.888      248.158        0.321        0.051       37.134       14.195        0.146      337.889       10.167      859.760
03/20/2014  23:03:00       13.018       -4.177       32.800       28.107       34.347       26.602      789.979     1179.686      707.672        0.197        0.134       13.672       28.158        4.242      338.015       10.381      859.778
03/20/2014  23:04:00       10.868       30.908       56.203       30.240       46.666       31.593      914.473     2177.737      998.127        0.416        0.205       32.763       31.284        0.912      337.965       10.297      859.788
03/20/2014  23:05:00       70.082       24.085       35.577       54.237       32.097       38.814     2941.634     1030.211     1506.513        0.612        0.274       74.105       36.095        0.237      337.782        9.988      859.794
03/20/2014  23:06:00      117.916       53.225       18.698       42.201       31.332       33.865     1780.890      981.664     1146.857        1.050        0.195      129.372       14.552        0.013      337.550        9.599      859.816
03/20/2014  23:07:00      100.301       65.128        8.410       46.525       33.573       29.885     2164.595     1127.133      893.109        0.928        0.209      119.591       15.628        0.017      337.437        9.410      859.856
03/20/2014  23:08:00       84.571       70.234        7.996       50.176       32.843       24.553     2517.660     1078.630      602.871        0.817        0.210      109.932       16.547        0.023      337.337        9.244      859.925
03/20/2014  23:09:00       95.153       92.655       17.937       81.317       56.497       48.174     6612.459     3191.874     2320.731        1.504        0.606      132.812       37.816        0.081      337.355        9.272      859.991
03/20/2014  23:10:00      161.375      104.448       29.069       72.392       65.473       48.721     5240.644     4286.731     2373.738        2.485        0.595      192.227       37.702        0.038      337.511        9.532      860.009
03/20/2014  23:11:00       91.520       46.771       43.412       83.196       54.712       50.417     6921.522     2993.435     2541.909        1.245        0.623      102.779       34.060        0.110      337.467        9.460      859.982
03/20/2014  23:12:00      154.198       82.828       16.663       52.670       28.628       42.116     2774.145      819.590     1773.780        1.814        0.268      175.036       20.686        0.014      337.787        9.995      859.971
03/20/2014  23:13:00       64.253       69.564       69.835       62.481       33.809       42.146     3903.900     1143.057     1776.300        1.033        0.341       94.697       28.924        0.093      337.673        9.806      859.958
03/20/2014  23:14:00      116.933       84.156       51.253       41.125       38.186       38.807     1691.238     1458.192     1505.979        1.402        0.233      144.068       27.465        0.036      337.657        9.779      859.954
03/20/2014  23:15:00      111.854       75.806       48.069       70.513       55.259       54.805     4972.045     3053.543     3003.628        1.580        0.551      135.122       44.402        0.108      337.592        9.670      859.957
03/20/2014  23:16:00       68.933       55.003       40.107       71.221       42.321       43.360     5072.439     1791.035     1880.062        0.906        0.437       88.188       45.786        0.270      337.637        9.746      859.972
03/20/2014  23:17:00       50.422       29.597       40.902       53.085       39.202       36.648     2818.058     1536.776     1343.088        0.539        0.285       58.467       29.073        0.247      337.582        9.654      859.983
03/20/2014  23:18:00       36.980       34.793       35.128       30.764       29.157       31.134      946.423      850.159      969.352        0.329        0.138       50.775       22.793        0.202      337.636        9.745      859.979
03/20/2014  23:19:00       34.641      -31.893        2.755       17.399       22.651       22.257      302.735      513.062      495.368        0.177        0.066       47.087       14.547        0.095      337.637        9.745      859.978
03/20/2014  23:20:00       30.865      -49.200        6.088       30.538       39.209       29.688      932.550     1537.352      881.372        0.338        0.168       58.080       29.373        0.256      337.744        9.924      859.975
03/20/2014  23:21:00       25.536       -3.669       26.471       29.035       41.542       30.271      843.041     1725.743      916.344        0.243        0.174       25.799       36.316        1.981      337.641        9.753      859.975
03/20/2014  23:22:00       22.964        6.538       27.261       34.910       17.050       16.648     1218.732      290.703      277.152        0.155        0.089       23.877       15.759        0.436      337.664        9.791      859.976
03/20/2014  23:23:00        7.010       23.534       46.130       22.584       25.940       13.416      510.028      672.894      179.983        0.205        0.068       24.556        8.353        0.116      337.610        9.700      859.984
03/20/2014  23:24:00        6.247        9.444       40.963       22.265       37.157       19.440      495.714     1380.630      377.925        0.203        0.113       11.323       16.712        2.178      337.748        9.932      859.973
03/20/2014  23:25:00        3.066       -2.689       31.930       30.450       30.266       22.741      927.202      916.059      517.140        0.170        0.118        4.078       18.176       19.862      337.637        9.746      859.964
03/20/2014  23:26:00       39.037      -65.294       11.743       48.564       54.758       37.821     2358.472     2998.386     1430.427        0.636        0.339       76.074       43.177        0.322      337.705        9.861      859.994
03/20/2014  23:27:00       86.250      -97.315      -19.378       25.373       26.712       12.302      643.798      713.514      151.337        0.940        0.075      130.035       10.565        0.007      337.640        9.750      860.010
03/20/2014  23:28:00       29.008       -8.390       12.848       29.853       39.333       32.196      891.216     1547.106     1036.573        0.228        0.174       30.197       34.321        1.292      337.594        9.675      860.003
03/20/2014  23:29:00       -1.362       35.171       58.149       12.449       22.993       16.729      154.969      528.675      279.862        0.279        0.048       35.197       15.077        0.184      337.632        9.737      860.014
03/20/2014  23:30:00       40.010       47.068       55.570       39.338       29.794       19.858     1547.476      887.701      394.345        0.487        0.141       61.776       15.519        0.063      337.717        9.880      860.042
03/20/2014  23:31:00       74.543       56.279       23.765       29.769       24.525       26.564      886.222      601.470      705.622        0.574        0.110       93.403       13.614        0.021      337.637        9.744      860.070
03/20/2014  23:32:00       61.954       46.976        3.939       46.940       31.954       25.348     2203.331     1021.060      642.503        0.496        0.193       77.750       10.334        0.018      337.551        9.602      860.075
03/20/2014  23:33:00       95.240       46.462        5.054       44.722       27.393       25.604     2000.065      750.401      655.571        0.733        0.170      105.968       11.313        0.011      337.386        9.325      860.103
03/20/2014  23:34:00       60.145       50.984       -5.233       58.501       39.903       27.257     3422.356     1592.210      742.932        0.600        0.288       78.847       24.191        0.094      337.358        9.278      860.139
03/20/2014  23:35:00      -30.028       35.556        0.571       42.940       39.125       26.200     1843.809     1530.799      686.463        0.311        0.203       46.539       14.748        0.100      337.791       10.005      860.130
03/20/2014  23:36:00      -60.923       78.644      -23.418       47.911       49.325       23.818     2295.422     2432.907      567.309        0.787        0.265       99.481       26.249        0.070      337.816       10.046      860.134
03/20/2014  23:37:00     -105.903      101.006      -23.356       47.746       69.284       41.654     2279.696     4800.224     1735.016        1.539        0.441      146.348       35.108        0.058      337.876       10.145      860.131
03/20/2014  23:38:00      -87.312      107.487      -29.399       46.086       61.652       28.093     2123.923     3800.933      789.240        1.338        0.336      138.481       24.757        0.032      337.778        9.982      860.130
03/20/2014  23:39:00      -14.884      153.080      -22.833       26.486       71.126       25.272      701.511     5058.959      638.658        1.529        0.320      153.802       31.247        0.041      337.762        9.955      860.127
03/20/2014  23:40:00      -57.188      127.839      -18.671       50.552       72.871       35.131     2555.495     5310.251     1234.214        1.453        0.455      140.048       23.644        0.029      337.808       10.032      860.116
03/20/2014  23:41:00      -48.615      116.076      -10.792       51.280       86.100       28.976     2629.673     7413.293      839.609        1.342        0.544      125.845       35.732        0.081      337.872       10.138      860.125
03/20/2014  23:42:00      -58.049      149.954      -23.182       66.830       82.565       40.616     4466.239     6817.045     1649.673        1.966        0.647      160.798       37.170        0.053      337.915       10.210      860.127
03/20/2014  23:43:00      -48.350       88.979      -11.447       50.539       70.162       27.605     2554.165     4922.716      762.043        0.931        0.412      101.267       25.194        0.062      337.934       10.244      860.131
03/20/2014  23:44:00      -43.046      161.074       -5.152       49.181       87.019       45.013     2418.725     7572.346     2026.143        1.992        0.601      166.727       46.605        0.078      337.876       10.145      860.142
03/20/2014  23:45:00     -105.713      122.184      -30.825       63.297       77.527       35.070     4006.515     6010.502     1229.925        1.915        0.562      161.568       46.611        0.083      338.008       10.366      860.159
03/20/2014  23:46:00     -102.574      100.065      -25.739       52.741       51.304       31.734     2781.602     2632.109     1007.021        1.381        0.321      143.299       27.646        0.037      337.860       10.119      860.171
03/20/2014  23:47:00     -117.053       54.475      -26.182       56.502       59.279       29.023     3192.503     3513.975      842.363        1.245        0.377      129.108       23.087        0.032      337.902       10.190      860.177
03/20/2014  23:48:00     -124.115       30.637      -24.160       63.000       78.064       33.874     3969.023     6093.930     1147.459        1.407        0.561      127.840       28.478        0.050      337.888       10.166      860.184
03/20/2014  23:49:00     -102.048       26.643       -9.132       53.687       67.034       24.645     2882.270     4493.528      607.358        0.959        0.399      105.468       21.305        0.041      337.886       10.164      860.182
03/20/2014  23:50:00     -151.571      -13.063      -29.773       82.540       59.722       30.274     6812.777     3566.707      916.533        1.766        0.565      152.133       28.266        0.035      337.851       10.103      860.193
03/20/2014  23:51:00      -48.820      -85.744        0.105       51.334       50.176       24.163     2635.178     2517.636      583.842        0.774        0.287       98.668       15.425        0.024      337.712        9.871      860.190
03/20/2014  23:52:00      -23.354      -20.915       18.641       56.021       32.447       21.150     3138.326     1052.835      447.338        0.298        0.232       31.350       26.996        0.741      337.585        9.659      860.190
03/20/2014  23:53:00     -117.261      -47.769       -4.872       41.839       29.922       20.395     1750.482      895.297      415.955        0.956        0.153      126.617       18.189        0.021      337.485        9.490      860.194
03/20/2014  23:54:00     -129.093        0.594       -9.475       33.277       35.341       24.269     1107.390     1249.006      588.996        0.985        0.147      129.094       12.958        0.010      337.679        9.816      860.189
03/20/2014  23:55:00     -120.886      -46.230        2.306       66.604       56.551       28.160     4436.145     3198.023      793.013        1.259        0.421      129.425       29.690        0.053      337.438        9.410      860.189
03/20/2014  23:56:00     -106.285      -50.187        5.878       81.306       55.805       47.528     6610.619     3114.224     2258.937        1.291        0.599      117.538       43.347        0.136      337.336        9.240      860.184
03/20/2014  23:57:00      -70.273      -24.985       11.173       81.178       46.973       29.292     6589.837     2206.451      858.003        0.767        0.483       74.582       37.978        0.259      337.322        9.216      860.186
03/20/2014  23:58:00     -140.318      -52.423       -7.423       82.510       89.530       42.961     6807.878     8015.559     1845.645        1.958        0.833      149.791       44.350        0.088      337.350        9.263      860.169
03/20/2014  23:59:00      -95.326      -43.354        8.347       68.869       53.453       40.410     4742.925     2857.255     1632.976        1.013        0.462      104.721       40.024        0.146      337.397        9.343      860.171
